Big Piney River (Missouri), Fort Leonard Wood (06930060)

StateMissouriLatestGood (692 cfs)
RiverBig Piney RiverRatingObservedEstimated
Updated2021-02-27 15:00 (56 minutes ago)Flood - The river is flooding. Obstacles can be treacherous or deadly. The river should be avoided at this stage for casual trips and definitely for the inexperienced. Trips should be attempted only with protective gear and equipment.Flood(none)3337
Discharge692 cfs (median: 583 cfs)High - The river is high and potentially dangerous, especially for the young and / or inexperienced. Normal stream obstacles are sometimes difficult to navigate. Extended distances can be attempted, but canoe travel may not be advisable.High(none)1572
Height3.08 feetGood - Conditions are ideal for a canoe or kayak. Boats typically will drag on fewer than one-quarter of riffles, if at all, and portages are unnecessary or rare. Normal float lengths can be attempted without a problem.Good(none)673
TrendRising (falling over 24 hours)Low - River is low but can still be floated. Some riffles are okay but most come with significant dragging and might need a portage. Float lengths should be reduced to accommodate low flow, dragging, and portages.Low(none)395
USGSExternal icon USGS Site (External icon Google Maps)Poor - River is too low to float comfortably. Most or all riffles will drag or must be portaged and some obstacles (such as slick shelf rock) cause undue problems. Avoid the river at this stage for casual paddling trips.Poor(none)208

Trending Data

Plot Image

Trips for Big Piney River (Missouri), Fort Leonard Wood (06930060)

DateStartEndDistanceConditionDischargeHeightFishingDetails

A total of 0 rows are displayed.

Condition Descriptions

Fishing Conditions

Fish Species

Notes

Classic Trip List

The classic River Trips application is still available for use. It is updated with the new system using a data retrofit. It is no longer maintained. The original River Trips application is no longer updated (as of 1 Dec 2016) but can be checked for errors or for the condition of the data before it was converted to the new system.

Gauge Data Table

ObservationHeightDischargeMaximum
Discharge
Minimum
Discharge
Mean
Discharge
P05P10P20P25P50
(Median)
P75P80P90P95
2021-02-27 15:00 3.08 692 6490 (2013) 175 (2006) 1110 182 247 317 395 583 1450 1550 2710 6130
2021-02-27 14:00 3.07 687 6490 (2013) 175 (2006) 1110 182 247 317 395 583 1450 1550 2710 6130
2021-02-27 13:00 3.08 692 6490 (2013) 175 (2006) 1110 182 247 317 395 583 1450 1550 2710 6130
2021-02-27 12:00 3.08 692 6490 (2013) 175 (2006) 1110 182 247 317 395 583 1450 1550 2710 6130
2021-02-27 11:00 3.10 702 6490 (2013) 175 (2006) 1110 182 247 317 395 583 1450 1550 2710 6130
2021-02-27 10:00 3.08 692 6490 (2013) 175 (2006) 1110 182 247 317 395 583 1450 1550 2710 6130
2021-02-27 09:00 3.07 687 6490 (2013) 175 (2006) 1110 182 247 317 395 583 1450 1550 2710 6130
2021-02-27 08:00 3.07 687 6490 (2013) 175 (2006) 1110 182 247 317 395 583 1450 1550 2710 6130
2021-02-27 07:00 3.06 682 6490 (2013) 175 (2006) 1110 182 247 317 395 583 1450 1550 2710 6130
2021-02-27 06:00 3.10 702 6490 (2013) 175 (2006) 1110 182 247 317 395 583 1450 1550 2710 6130
2021-02-27 05:00 3.11 708 6490 (2013) 175 (2006) 1110 182 247 317 395 583 1450 1550 2710 6130
2021-02-27 04:00 3.08 692 6490 (2013) 175 (2006) 1110 182 247 317 395 583 1450 1550 2710 6130
2021-02-27 03:00 3.13 718 6490 (2013) 175 (2006) 1110 182 247 317 395 583 1450 1550 2710 6130
2021-02-27 02:00 3.13 718 6490 (2013) 175 (2006) 1110 182 247 317 395 583 1450 1550 2710 6130
2021-02-27 01:00 3.11 708 6490 (2013) 175 (2006) 1110 182 247 317 395 583 1450 1550 2710 6130
2021-02-27 00:00 3.17 739 6490 (2013) 175 (2006) 1110 182 247 317 395 583 1450 1550 2710 6130
2021-02-26 23:00 3.15 728 14500 (2001) 176 (2006) 1700 183 251 272 350 599 1660 2010 5260 13700
2021-02-26 22:00 3.13 718 14500 (2001) 176 (2006) 1700 183 251 272 350 599 1660 2010 5260 13700
2021-02-26 21:00 3.16 734 14500 (2001) 176 (2006) 1700 183 251 272 350 599 1660 2010 5260 13700
2021-02-26 20:00 3.12 713 14500 (2001) 176 (2006) 1700 183 251 272 350 599 1660 2010 5260 13700
2021-02-26 19:00 3.21 761 14500 (2001) 176 (2006) 1700 183 251 272 350 599 1660 2010 5260 13700
2021-02-26 18:00 3.16 734 14500 (2001) 176 (2006) 1700 183 251 272 350 599 1660 2010 5260 13700
2021-02-26 17:00 3.17 739 14500 (2001) 176 (2006) 1700 183 251 272 350 599 1660 2010 5260 13700
2021-02-26 16:00 3.20 755 14500 (2001) 176 (2006) 1700 183 251 272 350 599 1660 2010 5260 13700
2021-02-26 15:00 3.21 761 14500 (2001) 176 (2006) 1700 183 251 272 350 599 1660 2010 5260 13700
2021-02-26 14:00 3.22 766 14500 (2001) 176 (2006) 1700 183 251 272 350 599 1660 2010 5260 13700
2021-02-26 13:00 3.20 755 14500 (2001) 176 (2006) 1700 183 251 272 350 599 1660 2010 5260 13700
2021-02-26 12:00 3.22 766 14500 (2001) 176 (2006) 1700 183 251 272 350 599 1660 2010 5260 13700
2021-02-26 11:00 3.19 750 14500 (2001) 176 (2006) 1700 183 251 272 350 599 1660 2010 5260 13700
2021-02-26 10:00 3.22 766 14500 (2001) 176 (2006) 1700 183 251 272 350 599 1660 2010 5260 13700
2021-02-26 09:00 3.23 772 14500 (2001) 176 (2006) 1700 183 251 272 350 599 1660 2010 5260 13700
2021-02-26 08:00 3.24 777 14500 (2001) 176 (2006) 1700 183 251 272 350 599 1660 2010 5260 13700
2021-02-26 07:00 3.21 761 14500 (2001) 176 (2006) 1700 183 251 272 350 599 1660 2010 5260 13700
2021-02-26 06:00 3.23 772 14500 (2001) 176 (2006) 1700 183 251 272 350 599 1660 2010 5260 13700
2021-02-26 05:00 3.24 777 14500 (2001) 176 (2006) 1700 183 251 272 350 599 1660 2010 5260 13700
2021-02-26 04:00 3.25 783 14500 (2001) 176 (2006) 1700 183 251 272 350 599 1660 2010 5260 13700
2021-02-26 03:00 3.23 772 14500 (2001) 176 (2006) 1700 183 251 272 350 599 1660 2010 5260 13700
2021-02-26 02:00 3.31 817 14500 (2001) 176 (2006) 1700 183 251 272 350 599 1660 2010 5260 13700
2021-02-26 01:00 3.29 805 14500 (2001) 176 (2006) 1700 183 251 272 350 599 1660 2010 5260 13700
2021-02-26 00:00 3.28 799 14500 (2001) 176 (2006) 1700 183 251 272 350 599 1660 2010 5260 13700
2021-02-25 23:00 3.30 811 18600 (2001) 179 (2006) 2350 185 241 279 363 498 1070 1520 15000 18600
2021-02-25 22:00 3.32 822 18600 (2001) 179 (2006) 2350 185 241 279 363 498 1070 1520 15000 18600
2021-02-25 21:00 3.31 817 18600 (2001) 179 (2006) 2350 185 241 279 363 498 1070 1520 15000 18600
2021-02-25 20:00 3.34 834 18600 (2001) 179 (2006) 2350 185 241 279 363 498 1070 1520 15000 18600
2021-02-25 19:00 3.34 834 18600 (2001) 179 (2006) 2350 185 241 279 363 498 1070 1520 15000 18600
2021-02-25 18:00 3.34 834 18600 (2001) 179 (2006) 2350 185 241 279 363 498 1070 1520 15000 18600
2021-02-25 17:00 3.37 851 18600 (2001) 179 (2006) 2350 185 241 279 363 498 1070 1520 15000 18600
2021-02-25 16:00 3.36 846 18600 (2001) 179 (2006) 2350 185 241 279 363 498 1070 1520 15000 18600
2021-02-25 15:00 3.39 863 18600 (2001) 179 (2006) 2350 185 241 279 363 498 1070 1520 15000 18600
2021-02-25 14:00 3.38 857 18600 (2001) 179 (2006) 2350 185 241 279 363 498 1070 1520 15000 18600
2021-02-25 13:00 3.34 834 18600 (2001) 179 (2006) 2350 185 241 279 363 498 1070 1520 15000 18600
2021-02-25 12:00 3.36 846 18600 (2001) 179 (2006) 2350 185 241 279 363 498 1070 1520 15000 18600
2021-02-25 11:00 3.38 857 18600 (2001) 179 (2006) 2350 185 241 279 363 498 1070 1520 15000 18600
2021-02-25 10:00 3.38 857 18600 (2001) 179 (2006) 2350 185 241 279 363 498 1070 1520 15000 18600
2021-02-25 09:00 3.39 863 18600 (2001) 179 (2006) 2350 185 241 279 363 498 1070 1520 15000 18600
2021-02-25 08:00 3.39 863 18600 (2001) 179 (2006) 2350 185 241 279 363 498 1070 1520 15000 18600
2021-02-25 07:00 3.37 851 18600 (2001) 179 (2006) 2350 185 241 279 363 498 1070 1520 15000 18600
2021-02-25 06:00 3.36 846 18600 (2001) 179 (2006) 2350 185 241 279 363 498 1070 1520 15000 18600
2021-02-25 05:00 3.37 851 18600 (2001) 179 (2006) 2350 185 241 279 363 498 1070 1520 15000 18600
2021-02-25 04:00 3.34 834 18600 (2001) 179 (2006) 2350 185 241 279 363 498 1070 1520 15000 18600
2021-02-25 03:00 3.36 846 18600 (2001) 179 (2006) 2350 185 241 279 363 498 1070 1520 15000 18600
2021-02-25 02:00 3.32 822 18600 (2001) 179 (2006) 2350 185 241 279 363 498 1070 1520 15000 18600
2021-02-25 01:00 3.29 805 18600 (2001) 179 (2006) 2350 185 241 279 363 498 1070 1520 15000 18600
2021-02-25 00:00 3.30 811 18600 (2001) 179 (2006) 2350 185 241 279 363 498 1070 1520 15000 18600
2021-02-24 23:00 3.28 799 6440 (2018) 180 (2006) 925 185 232 289 353 471 898 966 2060 6010
2021-02-24 22:00 3.26 788 6440 (2018) 180 (2006) 925 185 232 289 353 471 898 966 2060 6010
2021-02-24 21:00 3.28 799 6440 (2018) 180 (2006) 925 185 232 289 353 471 898 966 2060 6010
2021-02-24 20:00 3.30 811 6440 (2018) 180 (2006) 925 185 232 289 353 471 898 966 2060 6010
2021-02-24 19:00 3.27 794 6440 (2018) 180 (2006) 925 185 232 289 353 471 898 966 2060 6010
2021-02-24 18:00 3.28 799 6440 (2018) 180 (2006) 925 185 232 289 353 471 898 966 2060 6010
2021-02-24 17:00 3.26 788 6440 (2018) 180 (2006) 925 185 232 289 353 471 898 966 2060 6010
2021-02-24 16:00 3.29 805 6440 (2018) 180 (2006) 925 185 232 289 353 471 898 966 2060 6010
2021-02-24 15:00 3.29 805 6440 (2018) 180 (2006) 925 185 232 289 353 471 898 966 2060 6010
2021-02-24 14:00 3.31 817 6440 (2018) 180 (2006) 925 185 232 289 353 471 898 966 2060 6010
2021-02-24 13:00 3.30 811 6440 (2018) 180 (2006) 925 185 232 289 353 471 898 966 2060 6010
2021-02-24 12:00 3.36 846 6440 (2018) 180 (2006) 925 185 232 289 353 471 898 966 2060 6010
2021-02-24 11:00 3.32 822 6440 (2018) 180 (2006) 925 185 232 289 353 471 898 966 2060 6010
2021-02-24 10:00 3.32 822 6440 (2018) 180 (2006) 925 185 232 289 353 471 898 966 2060 6010
2021-02-24 09:00 3.34 834 6440 (2018) 180 (2006) 925 185 232 289 353 471 898 966 2060 6010
2021-02-24 08:00 3.34 834 6440 (2018) 180 (2006) 925 185 232 289 353 471 898 966 2060 6010
2021-02-24 07:00 3.32 822 6440 (2018) 180 (2006) 925 185 232 289 353 471 898 966 2060 6010
2021-02-24 06:00 3.31 817 6440 (2018) 180 (2006) 925 185 232 289 353 471 898 966 2060 6010
2021-02-24 05:00 3.25 783 6440 (2018) 180 (2006) 925 185 232 289 353 471 898 966 2060 6010
2021-02-24 04:00 3.18 744 6440 (2018) 180 (2006) 925 185 232 289 353 471 898 966 2060 6010
2021-02-24 03:00 3.13 718 6440 (2018) 180 (2006) 925 185 232 289 353 471 898 966 2060 6010
2021-02-24 02:00 3.06 682 6440 (2018) 180 (2006) 925 185 232 289 353 471 898 966 2060 6010
2021-02-24 01:00 2.96 633 6440 (2018) 180 (2006) 925 185 232 289 353 471 898 966 2060 6010
2021-02-24 00:00 2.84 578 6440 (2018) 180 (2006) 925 185 232 289 353 471 898 966 2060 6010
2021-02-23 23:00 2.78 552 2050 (2018) 182 (2006) 676 186 225 305 374 493 845 967 1740 2040
2021-02-23 22:00 2.73 530 2050 (2018) 182 (2006) 676 186 225 305 374 493 845 967 1740 2040
2021-02-23 21:00 2.71 522 2050 (2018) 182 (2006) 676 186 225 305 374 493 845 967 1740 2040
2021-02-23 20:00 2.70 518 2050 (2018) 182 (2006) 676 186 225 305 374 493 845 967 1740 2040
2021-02-23 19:00 2.67 506 2050 (2018) 182 (2006) 676 186 225 305 374 493 845 967 1740 2040
2021-02-23 18:00 2.65 498 2050 (2018) 182 (2006) 676 186 225 305 374 493 845 967 1740 2040
2021-02-23 17:00 2.68 510 2050 (2018) 182 (2006) 676 186 225 305 374 493 845 967 1740 2040
2021-02-23 16:00 2.64 494 2050 (2018) 182 (2006) 676 186 225 305 374 493 845 967 1740 2040
2021-02-23 15:00 2.63 490 2050 (2018) 182 (2006) 676 186 225 305 374 493 845 967 1740 2040
2021-02-23 14:00 2.64 494 2050 (2018) 182 (2006) 676 186 225 305 374 493 845 967 1740 2040
2021-02-23 13:00 2.62 486 2050 (2018) 182 (2006) 676 186 225 305 374 493 845 967 1740 2040
2021-02-23 12:00 2.61 482 2050 (2018) 182 (2006) 676 186 225 305 374 493 845 967 1740 2040
2021-02-23 11:00 2.61 482 2050 (2018) 182 (2006) 676 186 225 305 374 493 845 967 1740 2040
2021-02-23 10:00 2.60 478 2050 (2018) 182 (2006) 676 186 225 305 374 493 845 967 1740 2040
2021-02-23 09:00 2.60 478 2050 (2018) 182 (2006) 676 186 225 305 374 493 845 967 1740 2040
2021-02-23 08:00 2.61 482 2050 (2018) 182 (2006) 676 186 225 305 374 493 845 967 1740 2040
2021-02-23 07:00 2.58 470 2050 (2018) 182 (2006) 676 186 225 305 374 493 845 967 1740 2040
2021-02-23 06:00 2.60 478 2050 (2018) 182 (2006) 676 186 225 305 374 493 845 967 1740 2040
2021-02-23 05:00 2.60 478 2050 (2018) 182 (2006) 676 186 225 305 374 493 845 967 1740 2040
2021-02-23 04:00 2.59 474 2050 (2018) 182 (2006) 676 186 225 305 374 493 845 967 1740 2040
2021-02-23 03:00 2.60 478 2050 (2018) 182 (2006) 676 186 225 305 374 493 845 967 1740 2040
2021-02-23 02:00 2.59 474 2050 (2018) 182 (2006) 676 186 225 305 374 493 845 967 1740 2040
2021-02-23 01:00 2.58 470 2050 (2018) 182 (2006) 676 186 225 305 374 493 845 967 1740 2040
2021-02-23 00:00 2.57 467 2050 (2018) 182 (2006) 676 186 225 305 374 493 845 967 1740 2040
2021-02-22 23:00 2.57 467 4340 (2018) 184 (2006) 792 188 220 312 390 523 776 837 2000 4130
2021-02-22 22:00 2.57 467 4340 (2018) 184 (2006) 792 188 220 312 390 523 776 837 2000 4130
2021-02-22 21:00 2.57 467 4340 (2018) 184 (2006) 792 188 220 312 390 523 776 837 2000 4130
2021-02-22 20:00 2.58 470 4340 (2018) 184 (2006) 792 188 220 312 390 523 776 837 2000 4130
2021-02-22 19:00 2.59 474 4340 (2018) 184 (2006) 792 188 220 312 390 523 776 837 2000 4130
2021-02-22 18:00 2.55 459 4340 (2018) 184 (2006) 792 188 220 312 390 523 776 837 2000 4130
2021-02-22 17:00 2.58 470 4340 (2018) 184 (2006) 792 188 220 312 390 523 776 837 2000 4130
2021-02-22 16:00 2.57 467 4340 (2018) 184 (2006) 792 188 220 312 390 523 776 837 2000 4130
2021-02-22 15:00 2.57 467 4340 (2018) 184 (2006) 792 188 220 312 390 523 776 837 2000 4130
2021-02-22 14:00 2.56 463 4340 (2018) 184 (2006) 792 188 220 312 390 523 776 837 2000 4130
2021-02-22 13:00 2.55 459 4340 (2018) 184 (2006) 792 188 220 312 390 523 776 837 2000 4130
2021-02-22 12:00 2.57 467 4340 (2018) 184 (2006) 792 188 220 312 390 523 776 837 2000 4130
2021-02-22 11:00 2.58 470 4340 (2018) 184 (2006) 792 188 220 312 390 523 776 837 2000 4130
2021-02-22 10:00 2.55 459 4340 (2018) 184 (2006) 792 188 220 312 390 523 776 837 2000 4130
2021-02-22 09:00 2.56 463 4340 (2018) 184 (2006) 792 188 220 312 390 523 776 837 2000 4130
2021-02-22 08:00 2.56 463 4340 (2018) 184 (2006) 792 188 220 312 390 523 776 837 2000 4130
2021-02-22 07:00 2.56 463 4340 (2018) 184 (2006) 792 188 220 312 390 523 776 837 2000 4130
2021-02-22 06:00 2.54 455 4340 (2018) 184 (2006) 792 188 220 312 390 523 776 837 2000 4130
2021-02-22 05:00 2.54 455 4340 (2018) 184 (2006) 792 188 220 312 390 523 776 837 2000 4130
2021-02-22 04:00 2.55 459 4340 (2018) 184 (2006) 792 188 220 312 390 523 776 837 2000 4130
2021-02-22 03:00 2.58 470 4340 (2018) 184 (2006) 792 188 220 312 390 523 776 837 2000 4130
2021-02-22 02:00 2.57 467 4340 (2018) 184 (2006) 792 188 220 312 390 523 776 837 2000 4130
2021-02-22 01:00 2.57 467 4340 (2018) 184 (2006) 792 188 220 312 390 523 776 837 2000 4130
2021-02-22 00:00 2.54 455 4340 (2018) 184 (2006) 792 188 220 312 390 523 776 837 2000 4130
2021-02-21 23:00 2.57 467 2310 (2019) 186 (2006) 672 189 220 316 401 559 836 951 1290 2210
2021-02-21 22:00 2.54 455 2310 (2019) 186 (2006) 672 189 220 316 401 559 836 951 1290 2210
2021-02-21 21:00 2.56 463 2310 (2019) 186 (2006) 672 189 220 316 401 559 836 951 1290 2210
2021-02-21 20:00 2.54 455 2310 (2019) 186 (2006) 672 189 220 316 401 559 836 951 1290 2210
2021-02-21 19:00 2.56 463 2310 (2019) 186 (2006) 672 189 220 316 401 559 836 951 1290 2210
2021-02-21 18:00 2.55 459 2310 (2019) 186 (2006) 672 189 220 316 401 559 836 951 1290 2210
2021-02-21 17:00 2.56 463 2310 (2019) 186 (2006) 672 189 220 316 401 559 836 951 1290 2210
2021-02-21 16:00 2.56 463 2310 (2019) 186 (2006) 672 189 220 316 401 559 836 951 1290 2210
2021-02-21 15:00 2.53 452 2310 (2019) 186 (2006) 672 189 220 316 401 559 836 951 1290 2210
2021-02-21 14:00 2.57 467 2310 (2019) 186 (2006) 672 189 220 316 401 559 836 951 1290 2210
2021-02-21 13:00 2.56 463 2310 (2019) 186 (2006) 672 189 220 316 401 559 836 951 1290 2210
2021-02-21 12:00 2.56 463 2310 (2019) 186 (2006) 672 189 220 316 401 559 836 951 1290 2210
2021-02-21 11:00 2.54 455 2310 (2019) 186 (2006) 672 189 220 316 401 559 836 951 1290 2210
2021-02-21 10:00 2.55 459 2310 (2019) 186 (2006) 672 189 220 316 401 559 836 951 1290 2210
2021-02-21 09:00 2.54 455 2310 (2019) 186 (2006) 672 189 220 316 401 559 836 951 1290 2210
2021-02-21 08:00 2.56 463 2310 (2019) 186 (2006) 672 189 220 316 401 559 836 951 1290 2210
2021-02-21 07:00 2.56 463 2310 (2019) 186 (2006) 672 189 220 316 401 559 836 951 1290 2210
2021-02-21 06:00 2.56 463 2310 (2019) 186 (2006) 672 189 220 316 401 559 836 951 1290 2210
2021-02-21 05:00 2.57 467 2310 (2019) 186 (2006) 672 189 220 316 401 559 836 951 1290 2210
2021-02-21 04:00 2.58 470 2310 (2019) 186 (2006) 672 189 220 316 401 559 836 951 1290 2210
2021-02-21 03:00 2.56 463 2310 (2019) 186 (2006) 672 189 220 316 401 559 836 951 1290 2210
2021-02-21 02:00 2.59 474 2310 (2019) 186 (2006) 672 189 220 316 401 559 836 951 1290 2210
2021-02-21 01:00 2.55 459 2310 (2019) 186 (2006) 672 189 220 316 401 559 836 951 1290 2210
2021-02-21 00:00 2.56 463 2310 (2019) 186 (2006) 672 189 220 316 401 559 836 951 1290 2210
2021-02-20 23:00 2.58 470 1900 (2008) 187 (2006) 615 189 205 240 312 614 741 874 1110 1820
2021-02-20 22:00 2.56 463 1900 (2008) 187 (2006) 615 189 205 240 312 614 741 874 1110 1820
2021-02-20 21:00 2.57 467 1900 (2008) 187 (2006) 615 189 205 240 312 614 741 874 1110 1820
2021-02-20 20:00 2.57 467 1900 (2008) 187 (2006) 615 189 205 240 312 614 741 874 1110 1820
2021-02-20 19:00 2.55 459 1900 (2008) 187 (2006) 615 189 205 240 312 614 741 874 1110 1820
2021-02-20 18:00 2.55 459 1900 (2008) 187 (2006) 615 189 205 240 312 614 741 874 1110 1820
2021-02-20 17:00 2.56 463 1900 (2008) 187 (2006) 615 189 205 240 312 614 741 874 1110 1820
2021-02-20 16:00 2.58 470 1900 (2008) 187 (2006) 615 189 205 240 312 614 741 874 1110 1820
2021-02-20 15:00 2.55 459 1900 (2008) 187 (2006) 615 189 205 240 312 614 741 874 1110 1820
2021-02-20 14:00 2.54 455 1900 (2008) 187 (2006) 615 189 205 240 312 614 741 874 1110 1820
2021-02-20 13:00 2.56 463 1900 (2008) 187 (2006) 615 189 205 240 312 614 741 874 1110 1820
2021-02-20 12:00 2.56 463 1900 (2008) 187 (2006) 615 189 205 240 312 614 741 874 1110 1820
2021-02-20 11:00 2.56 463 1900 (2008) 187 (2006) 615 189 205 240 312 614 741 874 1110 1820
2021-02-20 10:00 2.56 463 1900 (2008) 187 (2006) 615 189 205 240 312 614 741 874 1110 1820
2021-02-20 09:00 2.54 455 1900 (2008) 187 (2006) 615 189 205 240 312 614 741 874 1110 1820
2021-02-20 08:00 2.55 459 1900 (2008) 187 (2006) 615 189 205 240 312 614 741 874 1110 1820
2021-02-20 07:00 2.56 463 1900 (2008) 187 (2006) 615 189 205 240 312 614 741 874 1110 1820
2021-02-20 06:00 2.55 459 1900 (2008) 187 (2006) 615 189 205 240 312 614 741 874 1110 1820
2021-02-20 05:00 2.57 467 1900 (2008) 187 (2006) 615 189 205 240 312 614 741 874 1110 1820
2021-02-20 04:00 2.56 463 1900 (2008) 187 (2006) 615 189 205 240 312 614 741 874 1110 1820
2021-02-20 03:00 2.56 463 1900 (2008) 187 (2006) 615 189 205 240 312 614 741 874 1110 1820
2021-02-20 02:00 2.56 463 1900 (2008) 187 (2006) 615 189 205 240 312 614 741 874 1110 1820
2021-02-20 01:00 2.57 467 1900 (2008) 187 (2006) 615 189 205 240 312 614 741 874 1110 1820
2021-02-20 00:00 2.58 470 1900 (2008) 187 (2006) 615 189 205 240 312 614 741 874 1110 1820
2021-02-19 23:00 2.61 482 3140 (2008) 190 (2006) 690 191 199 230 305 533 817 977 1160 2940
2021-02-19 22:00 2.62 486 3140 (2008) 190 (2006) 690 191 199 230 305 533 817 977 1160 2940
2021-02-19 21:00 2.61 482 3140 (2008) 190 (2006) 690 191 199 230 305 533 817 977 1160 2940
2021-02-19 20:00 2.60 478 3140 (2008) 190 (2006) 690 191 199 230 305 533 817 977 1160 2940
2021-02-19 19:00 2.62 486 3140 (2008) 190 (2006) 690 191 199 230 305 533 817 977 1160 2940
2021-02-19 18:00 2.62 486 3140 (2008) 190 (2006) 690 191 199 230 305 533 817 977 1160 2940
2021-02-19 17:00 2.61 482 3140 (2008) 190 (2006) 690 191 199 230 305 533 817 977 1160 2940
2021-02-19 16:00 2.61 482 3140 (2008) 190 (2006) 690 191 199 230 305 533 817 977 1160 2940
2021-02-19 15:00 2.59 474 3140 (2008) 190 (2006) 690 191 199 230 305 533 817 977 1160 2940
2021-02-19 14:00 2.64 494 3140 (2008) 190 (2006) 690 191 199 230 305 533 817 977 1160 2940
2021-02-19 13:00 2.64 494 3140 (2008) 190 (2006) 690 191 199 230 305 533 817 977 1160 2940
2021-02-19 12:00 2.62 486 3140 (2008) 190 (2006) 690 191 199 230 305 533 817 977 1160 2940
2021-02-19 11:00 2.63 490 3140 (2008) 190 (2006) 690 191 199 230 305 533 817 977 1160 2940
2021-02-19 10:00 2.62 486 3140 (2008) 190 (2006) 690 191 199 230 305 533 817 977 1160 2940
2021-02-19 09:00 2.63 490 3140 (2008) 190 (2006) 690 191 199 230 305 533 817 977 1160 2940
2021-02-19 08:00 2.64 494 3140 (2008) 190 (2006) 690 191 199 230 305 533 817 977 1160 2940
2021-02-19 07:00 2.65 498 3140 (2008) 190 (2006) 690 191 199 230 305 533 817 977 1160 2940
2021-02-19 06:00 2.63 490 3140 (2008) 190 (2006) 690 191 199 230 305 533 817 977 1160 2940
2021-02-19 05:00 2.64 494 3140 (2008) 190 (2006) 690 191 199 230 305 533 817 977 1160 2940
2021-02-19 04:00 2.62 486 3140 (2008) 190 (2006) 690 191 199 230 305 533 817 977 1160 2940
2021-02-19 03:00 2.64 494 3140 (2008) 190 (2006) 690 191 199 230 305 533 817 977 1160 2940
2021-02-19 02:00 2.65 498 3140 (2008) 190 (2006) 690 191 199 230 305 533 817 977 1160 2940
2021-02-19 01:00 2.65 498 3140 (2008) 190 (2006) 690 191 199 230 305 533 817 977 1160 2940
2021-02-19 00:00 2.66 502 3140 (2008) 190 (2006) 690 191 199 230 305 533 817 977 1160 2940
2021-02-18 23:00 2.65 498 10300 (2008) 183 (2018) 1080 184 193 211 237 590 919 1110 1450 9420
2021-02-18 22:00 2.67 506 10300 (2008) 183 (2018) 1080 184 193 211 237 590 919 1110 1450 9420
2021-02-18 21:00 2.68 510 10300 (2008) 183 (2018) 1080 184 193 211 237 590 919 1110 1450 9420
2021-02-18 20:00 2.65 498 10300 (2008) 183 (2018) 1080 184 193 211 237 590 919 1110 1450 9420
2021-02-18 19:00 2.70 518 10300 (2008) 183 (2018) 1080 184 193 211 237 590 919 1110 1450 9420
2021-02-18 18:00 2.67 506 10300 (2008) 183 (2018) 1080 184 193 211 237 590 919 1110 1450 9420
2021-02-18 17:00 2.68 510 10300 (2008) 183 (2018) 1080 184 193 211 237 590 919 1110 1450 9420
2021-02-18 16:00 2.67 506 10300 (2008) 183 (2018) 1080 184 193 211 237 590 919 1110 1450 9420
2021-02-18 15:00 2.67 506 10300 (2008) 183 (2018) 1080 184 193 211 237 590 919 1110 1450 9420
2021-02-18 14:00 2.66 502 10300 (2008) 183 (2018) 1080 184 193 211 237 590 919 1110 1450 9420
2021-02-18 13:00 2.70 518 10300 (2008) 183 (2018) 1080 184 193 211 237 590 919 1110 1450 9420
2021-02-18 12:00 2.69 514 10300 (2008) 183 (2018) 1080 184 193 211 237 590 919 1110 1450 9420
2021-02-18 11:00 2.71 522 10300 (2008) 183 (2018) 1080 184 193 211 237 590 919 1110 1450 9420
2021-02-18 10:00 2.70 518 10300 (2008) 183 (2018) 1080 184 193 211 237 590 919 1110 1450 9420
2021-02-18 09:00 2.69 514 10300 (2008) 183 (2018) 1080 184 193 211 237 590 919 1110 1450 9420
2021-02-18 08:00 2.71 522 10300 (2008) 183 (2018) 1080 184 193 211 237 590 919 1110 1450 9420
2021-02-18 07:00 2.71 522 10300 (2008) 183 (2018) 1080 184 193 211 237 590 919 1110 1450 9420
2021-02-18 06:00 2.71 522 10300 (2008) 183 (2018) 1080 184 193 211 237 590 919 1110 1450 9420
2021-02-18 05:00 2.73 530 10300 (2008) 183 (2018) 1080 184 193 211 237 590 919 1110 1450 9420
2021-02-18 04:00 2.75 539 10300 (2008) 183 (2018) 1080 184 193 211 237 590 919 1110 1450 9420
2021-02-18 03:00 2.71 522 10300 (2008) 183 (2018) 1080 184 193 211 237 590 919 1110 1450 9420
2021-02-18 02:00 2.75 539 10300 (2008) 183 (2018) 1080 184 193 211 237 590 919 1110 1450 9420
2021-02-18 01:00 2.73 530 10300 (2008) 183 (2018) 1080 184 193 211 237 590 919 1110 1450 9420
2021-02-18 00:00 2.75 539 10300 (2008) 183 (2018) 1080 184 193 211 237 590 919 1110 1450 9420
2021-02-17 23:00 2.77 547 4060 (2008) 166 (2000) 876 167 184 213 239 637 1150 1310 1960 3860
2021-02-17 22:00 2.74 535 4060 (2008) 166 (2000) 876 167 184 213 239 637 1150 1310 1960 3860
2021-02-17 21:00 2.76 543 4060 (2008) 166 (2000) 876 167 184 213 239 637 1150 1310 1960 3860
2021-02-17 20:00 2.74 535 4060 (2008) 166 (2000) 876 167 184 213 239 637 1150 1310 1960 3860
2021-02-17 19:00 2.78 552 4060 (2008) 166 (2000) 876 167 184 213 239 637 1150 1310 1960 3860
2021-02-17 18:00 2.75 539 4060 (2008) 166 (2000) 876 167 184 213 239 637 1150 1310 1960 3860
2021-02-17 17:00 2.79 556 4060 (2008) 166 (2000) 876 167 184 213 239 637 1150 1310 1960 3860
2021-02-17 16:00 2.78 552 4060 (2008) 166 (2000) 876 167 184 213 239 637 1150 1310 1960 3860
2021-02-17 15:00 2.78 552 4060 (2008) 166 (2000) 876 167 184 213 239 637 1150 1310 1960 3860
2021-02-17 14:00 2.77 547 4060 (2008) 166 (2000) 876 167 184 213 239 637 1150 1310 1960 3860
2021-02-17 13:00 2.76 543 4060 (2008) 166 (2000) 876 167 184 213 239 637 1150 1310 1960 3860
2021-02-17 12:00 2.80 560 4060 (2008) 166 (2000) 876 167 184 213 239 637 1150 1310 1960 3860
2021-02-17 11:00 2.74 535 4060 (2008) 166 (2000) 876 167 184 213 239 637 1150 1310 1960 3860
2021-02-17 10:00 2.67 506 4060 (2008) 166 (2000) 876 167 184 213 239 637 1150 1310 1960 3860
2021-02-17 09:00 2.64 494 4060 (2008) 166 (2000) 876 167 184 213 239 637 1150 1310 1960 3860
2021-02-17 08:00 2.60 478 4060 (2008) 166 (2000) 876 167 184 213 239 637 1150 1310 1960 3860
2021-02-17 07:00 2.59 474 4060 (2008) 166 (2000) 876 167 184 213 239 637 1150 1310 1960 3860
2021-02-17 06:00 2.59 474 4060 (2008) 166 (2000) 876 167 184 213 239 637 1150 1310 1960 3860
2021-02-17 05:00 2.63 490 4060 (2008) 166 (2000) 876 167 184 213 239 637 1150 1310 1960 3860
2021-02-17 04:00 2.65 498 4060 (2008) 166 (2000) 876 167 184 213 239 637 1150 1310 1960 3860
2021-02-17 03:00 2.65 498 4060 (2008) 166 (2000) 876 167 184 213 239 637 1150 1310 1960 3860
2021-02-17 02:00 2.66 502 4060 (2008) 166 (2000) 876 167 184 213 239 637 1150 1310 1960 3860
2021-02-17 01:00 2.67 506 4060 (2008) 166 (2000) 876 167 184 213 239 637 1150 1310 1960 3860
2021-02-17 00:00 2.69 514 4060 (2008) 166 (2000) 876 167 184 213 239 637 1150 1310 1960 3860
2021-02-16 23:00 2.70 518 1690 (2019) 160 (2000) 734 162 186 213 238 598 1120 1180 1570 1680
2021-02-16 22:00 2.72 526 1690 (2019) 160 (2000) 734 162 186 213 238 598 1120 1180 1570 1680
2021-02-16 21:00 2.76 543 1690 (2019) 160 (2000) 734 162 186 213 238 598 1120 1180 1570 1680
2021-02-16 20:00 2.83 573 1690 (2019) 160 (2000) 734 162 186 213 238 598 1120 1180 1570 1680
2021-02-16 19:00 2.84 578 1690 (2019) 160 (2000) 734 162 186 213 238 598 1120 1180 1570 1680
2021-02-16 18:00 2.84 578 1690 (2019) 160 (2000) 734 162 186 213 238 598 1120 1180 1570 1680
2021-02-16 17:00 2.85 582 1690 (2019) 160 (2000) 734 162 186 213 238 598 1120 1180 1570 1680
2021-02-16 16:00 2.77 547 1690 (2019) 160 (2000) 734 162 186 213 238 598 1120 1180 1570 1680
2021-02-16 15:00 2.71 522 1690 (2019) 160 (2000) 734 162 186 213 238 598 1120 1180 1570 1680
2021-02-16 14:00 2.66 502 1690 (2019) 160 (2000) 734 162 186 213 238 598 1120 1180 1570 1680
2021-02-16 13:00 2.65 498 1690 (2019) 160 (2000) 734 162 186 213 238 598 1120 1180 1570 1680
2021-02-16 12:00 2.59 474 1690 (2019) 160 (2000) 734 162 186 213 238 598 1120 1180 1570 1680
2021-02-16 11:00 2.55 459 1690 (2019) 160 (2000) 734 162 186 213 238 598 1120 1180 1570 1680
2021-02-16 10:00 2.49 437 1690 (2019) 160 (2000) 734 162 186 213 238 598 1120 1180 1570 1680
2021-02-16 09:00 2.45 421 1690 (2019) 160 (2000) 734 162 186 213 238 598 1120 1180 1570 1680
2021-02-16 08:00 2.46 425 1690 (2019) 160 (2000) 734 162 186 213 238 598 1120 1180 1570 1680
2021-02-16 07:00 2.48 433 1690 (2019) 160 (2000) 734 162 186 213 238 598 1120 1180 1570 1680
2021-02-16 06:00 2.52 448 1690 (2019) 160 (2000) 734 162 186 213 238 598 1120 1180 1570 1680
2021-02-16 05:00 2.54 455 1690 (2019) 160 (2000) 734 162 186 213 238 598 1120 1180 1570 1680
2021-02-16 04:00 2.57 467 1690 (2019) 160 (2000) 734 162 186 213 238 598 1120 1180 1570 1680
2021-02-16 03:00 2.60 478 1690 (2019) 160 (2000) 734 162 186 213 238 598 1120 1180 1570 1680
2021-02-16 02:00 2.64 494 1690 (2019) 160 (2000) 734 162 186 213 238 598 1120 1180 1570 1680
2021-02-16 01:00 2.67 506 1690 (2019) 160 (2000) 734 162 186 213 238 598 1120 1180 1570 1680
2021-02-16 00:00 2.68 510 1690 (2019) 160 (2000) 734 162 186 213 238 598 1120 1180 1570 1680
2021-02-15 23:00 2.68 510 2100 (2019) 161 (2000) 738 162 178 211 236 485 1220 1630 1980 2090
2021-02-15 22:00 2.63 490 2100 (2019) 161 (2000) 738 162 178 211 236 485 1220 1630 1980 2090
2021-02-15 21:00 2.62 486 2100 (2019) 161 (2000) 738 162 178 211 236 485 1220 1630 1980 2090
2021-02-15 20:00 2.65 498 2100 (2019) 161 (2000) 738 162 178 211 236 485 1220 1630 1980 2090
2021-02-15 19:00 2.64 494 2100 (2019) 161 (2000) 738 162 178 211 236 485 1220 1630 1980 2090
2021-02-15 18:00 2.63 490 2100 (2019) 161 (2000) 738 162 178 211 236 485 1220 1630 1980 2090
2021-02-15 17:00 2.61 482 2100 (2019) 161 (2000) 738 162 178 211 236 485 1220 1630 1980 2090
2021-02-15 16:00 2.59 474 2100 (2019) 161 (2000) 738 162 178 211 236 485 1220 1630 1980 2090
2021-02-15 15:00 2.62 486 2100 (2019) 161 (2000) 738 162 178 211 236 485 1220 1630 1980 2090
2021-02-15 14:00 2.60 478 2100 (2019) 161 (2000) 738 162 178 211 236 485 1220 1630 1980 2090
2021-02-15 13:00 2.63 490 2100 (2019) 161 (2000) 738 162 178 211 236 485 1220 1630 1980 2090
2021-02-15 12:00 2.59 474 2100 (2019) 161 (2000) 738 162 178 211 236 485 1220 1630 1980 2090
2021-02-15 11:00 2.59 474 2100 (2019) 161 (2000) 738 162 178 211 236 485 1220 1630 1980 2090
2021-02-15 10:00 2.58 470 2100 (2019) 161 (2000) 738 162 178 211 236 485 1220 1630 1980 2090
2021-02-15 09:00 2.59 474 2100 (2019) 161 (2000) 738 162 178 211 236 485 1220 1630 1980 2090
2021-02-15 08:00 2.61 482 2100 (2019) 161 (2000) 738 162 178 211 236 485 1220 1630 1980 2090
2021-02-15 07:00 2.63 490 2100 (2019) 161 (2000) 738 162 178 211 236 485 1220 1630 1980 2090
2021-02-15 06:00 2.66 502 2100 (2019) 161 (2000) 738 162 178 211 236 485 1220 1630 1980 2090
2021-02-15 05:00 2.67 506 2100 (2019) 161 (2000) 738 162 178 211 236 485 1220 1630 1980 2090
2021-02-15 04:00 2.69 514 2100 (2019) 161 (2000) 738 162 178 211 236 485 1220 1630 1980 2090
2021-02-15 03:00 2.73 530 2100 (2019) 161 (2000) 738 162 178 211 236 485 1220 1630 1980 2090
2021-02-15 02:00 2.73 530 2100 (2019) 161 (2000) 738 162 178 211 236 485 1220 1630 1980 2090
2021-02-15 01:00 2.73 530 2100 (2019) 161 (2000) 738 162 178 211 236 485 1220 1630 1980 2090
2021-02-15 00:00 2.75 539 2100 (2019) 161 (2000) 738 162 178 211 236 485 1220 1630 1980 2090
2021-02-14 23:00 2.73 530 2900 (2020) 161 (2000) 850 162 178 211 214 434 1400 2040 2550 2870
2021-02-14 22:00 2.76 543 2900 (2020) 161 (2000) 850 162 178 211 214 434 1400 2040 2550 2870
2021-02-14 21:00 2.75 539 2900 (2020) 161 (2000) 850 162 178 211 214 434 1400 2040 2550 2870
2021-02-14 20:00 2.77 547 2900 (2020) 161 (2000) 850 162 178 211 214 434 1400 2040 2550 2870
2021-02-14 19:00 2.75 539 2900 (2020) 161 (2000) 850 162 178 211 214 434 1400 2040 2550 2870
2021-02-14 18:00 2.75 539 2900 (2020) 161 (2000) 850 162 178 211 214 434 1400 2040 2550 2870
2021-02-14 17:00 2.76 543 2900 (2020) 161 (2000) 850 162 178 211 214 434 1400 2040 2550 2870
2021-02-14 16:00 2.76 543 2900 (2020) 161 (2000) 850 162 178 211 214 434 1400 2040 2550 2870
2021-02-14 15:00 2.76 543 2900 (2020) 161 (2000) 850 162 178 211 214 434 1400 2040 2550 2870
2021-02-14 14:00 2.75 539 2900 (2020) 161 (2000) 850 162 178 211 214 434 1400 2040 2550 2870
2021-02-14 13:00 2.77 547 2900 (2020) 161 (2000) 850 162 178 211 214 434 1400 2040 2550 2870
2021-02-14 12:00 2.76 543 2900 (2020) 161 (2000) 850 162 178 211 214 434 1400 2040 2550 2870
2021-02-14 11:00 2.78 552 2900 (2020) 161 (2000) 850 162 178 211 214 434 1400 2040 2550 2870
2021-02-14 10:00 2.77 547 2900 (2020) 161 (2000) 850 162 178 211 214 434 1400 2040 2550 2870
2021-02-14 09:00 2.81 565 2900 (2020) 161 (2000) 850 162 178 211 214 434 1400 2040 2550 2870
2021-02-14 08:00 2.77 547 2900 (2020) 161 (2000) 850 162 178 211 214 434 1400 2040 2550 2870
2021-02-14 07:00 2.79 556 2900 (2020) 161 (2000) 850 162 178 211 214 434 1400 2040 2550 2870
2021-02-14 06:00 2.77 547 2900 (2020) 161 (2000) 850 162 178 211 214 434 1400 2040 2550 2870
2021-02-14 05:00 2.79 556 2900 (2020) 161 (2000) 850 162 178 211 214 434 1400 2040 2550 2870
2021-02-14 04:00 2.78 552 2900 (2020) 161 (2000) 850 162 178 211 214 434 1400 2040 2550 2870
2021-02-14 03:00 2.77 547 2900 (2020) 161 (2000) 850 162 178 211 214 434 1400 2040 2550 2870
2021-02-14 02:00 2.79 556 2900 (2020) 161 (2000) 850 162 178 211 214 434 1400 2040 2550 2870
2021-02-14 01:00 2.79 556 2900 (2020) 161 (2000) 850 162 178 211 214 434 1400 2040 2550 2870
2021-02-14 00:00 2.79 556 2900 (2020) 161 (2000) 850 162 178 211 214 434 1400 2040 2550 2870
2021-02-13 23:00 2.81 565 3770 (2019) 161 (2000) 833 162 172 214 216 369 814 924 3280 3730
2021-02-13 22:00 2.80 560 3770 (2019) 161 (2000) 833 162 172 214 216 369 814 924 3280 3730
2021-02-13 21:00 2.77 547 3770 (2019) 161 (2000) 833 162 172 214 216 369 814 924 3280 3730
2021-02-13 20:00 2.81 565 3770 (2019) 161 (2000) 833 162 172 214 216 369 814 924 3280 3730
2021-02-13 19:00 2.83 573 3770 (2019) 161 (2000) 833 162 172 214 216 369 814 924 3280 3730
2021-02-13 18:00 2.82 569 3770 (2019) 161 (2000) 833 162 172 214 216 369 814 924 3280 3730
2021-02-13 17:00 2.83 573 3770 (2019) 161 (2000) 833 162 172 214 216 369 814 924 3280 3730
2021-02-13 16:00 2.83 573 3770 (2019) 161 (2000) 833 162 172 214 216 369 814 924 3280 3730
2021-02-13 15:00 2.80 560 3770 (2019) 161 (2000) 833 162 172 214 216 369 814 924 3280 3730
2021-02-13 14:00 2.83 573 3770 (2019) 161 (2000) 833 162 172 214 216 369 814 924 3280 3730
2021-02-13 13:00 2.86 587 3770 (2019) 161 (2000) 833 162 172 214 216 369 814 924 3280 3730
2021-02-13 12:00 2.83 573 3770 (2019) 161 (2000) 833 162 172 214 216 369 814 924 3280 3730
2021-02-13 11:00 2.87 591 3770 (2019) 161 (2000) 833 162 172 214 216 369 814 924 3280 3730
2021-02-13 10:00 2.85 582 3770 (2019) 161 (2000) 833 162 172 214 216 369 814 924 3280 3730
2021-02-13 09:00 2.85 582 3770 (2019) 161 (2000) 833 162 172 214 216 369 814 924 3280 3730
2021-02-13 08:00 2.85 582 3770 (2019) 161 (2000) 833 162 172 214 216 369 814 924 3280 3730
2021-02-13 07:00 2.84 578 3770 (2019) 161 (2000) 833 162 172 214 216 369 814 924 3280 3730
2021-02-13 06:00 2.84 578 3770 (2019) 161 (2000) 833 162 172 214 216 369 814 924 3280 3730
2021-02-13 05:00 2.88 596 3770 (2019) 161 (2000) 833 162 172 214 216 369 814 924 3280 3730
2021-02-13 04:00 2.87 591 3770 (2019) 161 (2000) 833 162 172 214 216 369 814 924 3280 3730
2021-02-13 03:00 2.84 578 3770 (2019) 161 (2000) 833 162 172 214 216 369 814 924 3280 3730
2021-02-13 02:00 2.86 587 3770 (2019) 161 (2000) 833 162 172 214 216 369 814 924 3280 3730
2021-02-13 01:00 2.87 591 3770 (2019) 161 (2000) 833 162 172 214 216 369 814 924 3280 3730
2021-02-13 00:00 2.87 591 3770 (2019) 161 (2000) 833 162 172 214 216 369 814 924 3280 3730
2021-02-12 23:00 2.86 587 10300 (2009) 160 (2000) 1110 161 174 214 221 367 704 924 3560 9670
2021-02-12 22:00 2.86 587 10300 (2009) 160 (2000) 1110 161 174 214 221 367 704 924 3560 9670
2021-02-12 21:00 2.85 582 10300 (2009) 160 (2000) 1110 161 174 214 221 367 704 924 3560 9670
2021-02-12 20:00 2.87 591 10300 (2009) 160 (2000) 1110 161 174 214 221 367 704 924 3560 9670
2021-02-12 19:00 2.89 600 10300 (2009) 160 (2000) 1110 161 174 214 221 367 704 924 3560 9670
2021-02-12 18:00 2.89 600 10300 (2009) 160 (2000) 1110 161 174 214 221 367 704 924 3560 9670
2021-02-12 17:00 2.88 596 10300 (2009) 160 (2000) 1110 161 174 214 221 367 704 924 3560 9670
2021-02-12 16:00 2.89 600 10300 (2009) 160 (2000) 1110 161 174 214 221 367 704 924 3560 9670
2021-02-12 15:00 2.90 605 10300 (2009) 160 (2000) 1110 161 174 214 221 367 704 924 3560 9670
2021-02-12 14:00 2.90 605 10300 (2009) 160 (2000) 1110 161 174 214 221 367 704 924 3560 9670
2021-02-12 13:00 2.89 600 10300 (2009) 160 (2000) 1110 161 174 214 221 367 704 924 3560 9670
2021-02-12 12:00 2.92 614 10300 (2009) 160 (2000) 1110 161 174 214 221 367 704 924 3560 9670
2021-02-12 11:00 2.91 610 10300 (2009) 160 (2000) 1110 161 174 214 221 367 704 924 3560 9670
2021-02-12 10:00 2.94 624 10300 (2009) 160 (2000) 1110 161 174 214 221 367 704 924 3560 9670
2021-02-12 09:00 2.89 600 10300 (2009) 160 (2000) 1110 161 174 214 221 367 704 924 3560 9670
2021-02-12 08:00 2.91 610 10300 (2009) 160 (2000) 1110 161 174 214 221 367 704 924 3560 9670
2021-02-12 07:00 2.91 610 10300 (2009) 160 (2000) 1110 161 174 214 221 367 704 924 3560 9670
2021-02-12 06:00 2.92 614 10300 (2009) 160 (2000) 1110 161 174 214 221 367 704 924 3560 9670
2021-02-12 05:00 2.91 560 10300 (2009) 160 (2000) 1110 161 174 214 221 367 704 924 3560 9670
2021-02-12 04:00 2.92 565 10300 (2009) 160 (2000) 1110 161 174 214 221 367 704 924 3560 9670
2021-02-12 03:00 2.94 574 10300 (2009) 160 (2000) 1110 161 174 214 221 367 704 924 3560 9670
2021-02-12 02:00 2.95 578 10300 (2009) 160 (2000) 1110 161 174 214 221 367 704 924 3560 9670
2021-02-12 01:00 2.92 565 10300 (2009) 160 (2000) 1110 161 174 214 221 367 704 924 3560 9670
2021-02-12 00:00 2.93 569 10300 (2009) 160 (2000) 1110 161 174 214 221 367 704 924 3560 9670
2021-02-11 23:00 2.94 574 3490 (2009) 160 (2000) 684 161 175 215 227 373 631 950 1920 3330
2021-02-11 22:00 2.95 578 3490 (2009) 160 (2000) 684 161 175 215 227 373 631 950 1920 3330
2021-02-11 21:00 2.95 578 3490 (2009) 160 (2000) 684 161 175 215 227 373 631 950 1920 3330
2021-02-11 20:00 2.98 592 3490 (2009) 160 (2000) 684 161 175 215 227 373 631 950 1920 3330
2021-02-11 19:00 2.97 588 3490 (2009) 160 (2000) 684 161 175 215 227 373 631 950 1920 3330
2021-02-11 18:00 2.95 578 3490 (2009) 160 (2000) 684 161 175 215 227 373 631 950 1920 3330
2021-02-11 17:00 2.98 592 3490 (2009) 160 (2000) 684 161 175 215 227 373 631 950 1920 3330
2021-02-11 16:00 3.00 601 3490 (2009) 160 (2000) 684 161 175 215 227 373 631 950 1920 3330
2021-02-11 15:00 2.94 574 3490 (2009) 160 (2000) 684 161 175 215 227 373 631 950 1920 3330
2021-02-11 14:00 2.96 583 3490 (2009) 160 (2000) 684 161 175 215 227 373 631 950 1920 3330
2021-02-11 13:00 2.96 583 3490 (2009) 160 (2000) 684 161 175 215 227 373 631 950 1920 3330
2021-02-11 12:00 2.99 597 3490 (2009) 160 (2000) 684 161 175 215 227 373 631 950 1920 3330
2021-02-11 11:00 2.99 597 3490 (2009) 160 (2000) 684 161 175 215 227 373 631 950 1920 3330
2021-02-11 10:00 2.97 588 3490 (2009) 160 (2000) 684 161 175 215 227 373 631 950 1920 3330
2021-02-11 09:00 3.04 620 3490 (2009) 160 (2000) 684 161 175 215 227 373 631 950 1920 3330
2021-02-11 08:00 2.96 583 3490 (2009) 160 (2000) 684 161 175 215 227 373 631 950 1920 3330
2021-02-11 07:00 2.97 588 3490 (2009) 160 (2000) 684 161 175 215 227 373 631 950 1920 3330
2021-02-11 06:00 2.98 592 3490 (2009) 160 (2000) 684 161 175 215 227 373 631 950 1920 3330
2021-02-11 05:00 3.02 611 3490 (2009) 160 (2000) 684 161 175 215 227 373 631 950 1920 3330
2021-02-11 04:00 3.01 606 3490 (2009) 160 (2000) 684 161 175 215 227 373 631 950 1920 3330
2021-02-11 03:00 3.03 616 3490 (2009) 160 (2000) 684 161 175 215 227 373 631 950 1920 3330
2021-02-11 02:00 3.06 630 3490 (2009) 160 (2000) 684 161 175 215 227 373 631 950 1920 3330
2021-02-11 01:00 3.03 616 3490 (2009) 160 (2000) 684 161 175 215 227 373 631 950 1920 3330
2021-02-11 00:00 3.03 616 3490 (2009) 160 (2000) 684 161 175 215 227 373 631 950 1920 3330
2021-02-10 23:00 3.03 616 2110 (2019) 162 (2000) 551 163 175 217 230 380 659 835 1270 2030
2021-02-10 22:00 3.01 606 2110 (2019) 162 (2000) 551 163 175 217 230 380 659 835 1270 2030
2021-02-10 21:00 3.06 630 2110 (2019) 162 (2000) 551 163 175 217 230 380 659 835 1270 2030
2021-02-10 20:00 3.04 620 2110 (2019) 162 (2000) 551 163 175 217 230 380 659 835 1270 2030
2021-02-10 19:00 3.05 625 2110 (2019) 162 (2000) 551 163 175 217 230 380 659 835 1270 2030
2021-02-10 18:00 3.07 635 2110 (2019) 162 (2000) 551 163 175 217 230 380 659 835 1270 2030
2021-02-10 17:00 3.07 635 2110 (2019) 162 (2000) 551 163 175 217 230 380 659 835 1270 2030
2021-02-10 16:00 3.02 611 2110 (2019) 162 (2000) 551 163 175 217 230 380 659 835 1270 2030
2021-02-10 15:00 3.10 650 2110 (2019) 162 (2000) 551 163 175 217 230 380 659 835 1270 2030
2021-02-10 14:00 3.11 655 2110 (2019) 162 (2000) 551 163 175 217 230 380 659 835 1270 2030
2021-02-10 13:00 3.13 665 2110 (2019) 162 (2000) 551 163 175 217 230 380 659 835 1270 2030
2021-02-10 12:00 3.13 665 2110 (2019) 162 (2000) 551 163 175 217 230 380 659 835 1270 2030
2021-02-10 11:00 3.09 645 2110 (2019) 162 (2000) 551 163 175 217 230 380 659 835 1270 2030
2021-02-10 10:00 3.15 675 2110 (2019) 162 (2000) 551 163 175 217 230 380 659 835 1270 2030
2021-02-10 09:00 3.11 655 2110 (2019) 162 (2000) 551 163 175 217 230 380 659 835 1270 2030
2021-02-10 08:00 3.12 660 2110 (2019) 162 (2000) 551 163 175 217 230 380 659 835 1270 2030
2021-02-10 07:00 3.11 655 2110 (2019) 162 (2000) 551 163 175 217 230 380 659 835 1270 2030
2021-02-10 06:00 3.13 665 2110 (2019) 162 (2000) 551 163 175 217 230 380 659 835 1270 2030
2021-02-10 05:00 3.14 670 2110 (2019) 162 (2000) 551 163 175 217 230 380 659 835 1270 2030
2021-02-10 04:00 3.13 665 2110 (2019) 162 (2000) 551 163 175 217 230 380 659 835 1270 2030
2021-02-10 03:00 3.16 680 2110 (2019) 162 (2000) 551 163 175 217 230 380 659 835 1270 2030
2021-02-10 02:00 3.15 675 2110 (2019) 162 (2000) 551 163 175 217 230 380 659 835 1270 2030
2021-02-10 01:00 3.16 680 2110 (2019) 162 (2000) 551 163 175 217 230 380 659 835 1270 2030
2021-02-10 00:00 3.15 675 2110 (2019) 162 (2000) 551 163 175 217 230 380 659 835 1270 2030
2021-02-09 23:00 3.17 685 2980 (2019) 161 (2000) 618 162 177 218 234 388 745 873 1450 2830
2021-02-09 22:00 3.17 685 2980 (2019) 161 (2000) 618 162 177 218 234 388 745 873 1450 2830
2021-02-09 21:00 3.18 690 2980 (2019) 161 (2000) 618 162 177 218 234 388 745 873 1450 2830
2021-02-09 20:00 3.18 690 2980 (2019) 161 (2000) 618 162 177 218 234 388 745 873 1450 2830
2021-02-09 19:00 3.19 695 2980 (2019) 161 (2000) 618 162 177 218 234 388 745 873 1450 2830
2021-02-09 18:00 3.17 685 2980 (2019) 161 (2000) 618 162 177 218 234 388 745 873 1450 2830
2021-02-09 17:00 3.18 690 2980 (2019) 161 (2000) 618 162 177 218 234 388 745 873 1450 2830
2021-02-09 16:00 3.19 695 2980 (2019) 161 (2000) 618 162 177 218 234 388 745 873 1450 2830
2021-02-09 15:00 3.21 706 2980 (2019) 161 (2000) 618 162 177 218 234 388 745 873 1450 2830
2021-02-09 14:00 3.19 695 2980 (2019) 161 (2000) 618 162 177 218 234 388 745 873 1450 2830
2021-02-09 13:00 3.18 690 2980 (2019) 161 (2000) 618 162 177 218 234 388 745 873 1450 2830
2021-02-09 12:00 3.19 695 2980 (2019) 161 (2000) 618 162 177 218 234 388 745 873 1450 2830
2021-02-09 11:00 3.19 695 2980 (2019) 161 (2000) 618 162 177 218 234 388 745 873 1450 2830
2021-02-09 10:00 3.20 701 2980 (2019) 161 (2000) 618 162 177 218 234 388 745 873 1450 2830
2021-02-09 09:00 3.24 722 2980 (2019) 161 (2000) 618 162 177 218 234 388 745 873 1450 2830
2021-02-09 08:00 3.19 695 2980 (2019) 161 (2000) 618 162 177 218 234 388 745 873 1450 2830
2021-02-09 07:00 3.21 706 2980 (2019) 161 (2000) 618 162 177 218 234 388 745 873 1450 2830
2021-02-09 06:00 3.20 701 2980 (2019) 161 (2000) 618 162 177 218 234 388 745 873 1450 2830
2021-02-09 05:00 3.24 722 2980 (2019) 161 (2000) 618 162 177 218 234 388 745 873 1450 2830
2021-02-09 04:00 3.21 706 2980 (2019) 161 (2000) 618 162 177 218 234 388 745 873 1450 2830
2021-02-09 03:00 3.27 738 2980 (2019) 161 (2000) 618 162 177 218 234 388 745 873 1450 2830
2021-02-09 02:00 3.26 733 2980 (2019) 161 (2000) 618 162 177 218 234 388 745 873 1450 2830
2021-02-09 01:00 3.25 727 2980 (2019) 161 (2000) 618 162 177 218 234 388 745 873 1450 2830
2021-02-09 00:00 3.27 738 2980 (2019) 161 (2000) 618 162 177 218 234 388 745 873 1450 2830
2021-02-08 23:00 3.27 738 6360 (2019) 162 (2000) 808 163 177 217 240 394 791 974 1680 5900
2021-02-08 22:00 3.28 743 6360 (2019) 162 (2000) 808 163 177 217 240 394 791 974 1680 5900
2021-02-08 21:00 3.24 722 6360 (2019) 162 (2000) 808 163 177 217 240 394 791 974 1680 5900
2021-02-08 20:00 3.29 749 6360 (2019) 162 (2000) 808 163 177 217 240 394 791 974 1680 5900
2021-02-08 19:00 3.29 749 6360 (2019) 162 (2000) 808 163 177 217 240 394 791 974 1680 5900
2021-02-08 18:00 3.27 738 6360 (2019) 162 (2000) 808 163 177 217 240 394 791 974 1680 5900
2021-02-08 17:00 3.28 743 6360 (2019) 162 (2000) 808 163 177 217 240 394 791 974 1680 5900
2021-02-08 16:00 3.29 749 6360 (2019) 162 (2000) 808 163 177 217 240 394 791 974 1680 5900
2021-02-08 15:00 3.29 749 6360 (2019) 162 (2000) 808 163 177 217 240 394 791 974 1680 5900
2021-02-08 14:00 3.33 771 6360 (2019) 162 (2000) 808 163 177 217 240 394 791 974 1680 5900
2021-02-08 13:00 3.36 788 6360 (2019) 162 (2000) 808 163 177 217 240 394 791 974 1680 5900
2021-02-08 12:00 3.34 777 6360 (2019) 162 (2000) 808 163 177 217 240 394 791 974 1680 5900
2021-02-08 11:00 3.31 760 6360 (2019) 162 (2000) 808 163 177 217 240 394 791 974 1680 5900
2021-02-08 10:00 3.37 794 6360 (2019) 162 (2000) 808 163 177 217 240 394 791 974 1680 5900
2021-02-08 09:00 3.32 766 6360 (2019) 162 (2000) 808 163 177 217 240 394 791 974 1680 5900
2021-02-08 08:00 3.36 788 6360 (2019) 162 (2000) 808 163 177 217 240 394 791 974 1680 5900
2021-02-08 07:00 3.36 788 6360 (2019) 162 (2000) 808 163 177 217 240 394 791 974 1680 5900
2021-02-08 06:00 3.32 766 6360 (2019) 162 (2000) 808 163 177 217 240 394 791 974 1680 5900
2021-02-08 05:00 3.34 777 6360 (2019) 162 (2000) 808 163 177 217 240 394 791 974 1680 5900
2021-02-08 04:00 3.36 788 6360 (2019) 162 (2000) 808 163 177 217 240 394 791 974 1680 5900
2021-02-08 03:00 3.35 782 6360 (2019) 162 (2000) 808 163 177 217 240 394 791 974 1680 5900
2021-02-08 02:00 3.36 788 6360 (2019) 162 (2000) 808 163 177 217 240 394 791 974 1680 5900
2021-02-08 01:00 3.35 782 6360 (2019) 162 (2000) 808 163 177 217 240 394 791 974 1680 5900
2021-02-08 00:00 3.39 805 6360 (2019) 162 (2000) 808 163 177 217 240 394 791 974 1680 5900
2021-02-07 23:00 3.34 777 2380 (2019) 161 (2000) 677 162 178 220 245 370 929 1290 2070 2360
2021-02-07 22:00 3.38 800 2380 (2019) 161 (2000) 677 162 178 220 245 370 929 1290 2070 2360
2021-02-07 21:00 3.39 805 2380 (2019) 161 (2000) 677 162 178 220 245 370 929 1290 2070 2360
2021-02-07 20:00 3.40 811 2380 (2019) 161 (2000) 677 162 178 220 245 370 929 1290 2070 2360
2021-02-07 19:00 3.41 817 2380 (2019) 161 (2000) 677 162 178 220 245 370 929 1290 2070 2360
2021-02-07 18:00 3.39 805 2380 (2019) 161 (2000) 677 162 178 220 245 370 929 1290 2070 2360
2021-02-07 17:00 3.45 841 2380 (2019) 161 (2000) 677 162 178 220 245 370 929 1290 2070 2360
2021-02-07 16:00 3.41 817 2380 (2019) 161 (2000) 677 162 178 220 245 370 929 1290 2070 2360
2021-02-07 15:00 3.43 829 2380 (2019) 161 (2000) 677 162 178 220 245 370 929 1290 2070 2360
2021-02-07 14:00 3.47 853 2380 (2019) 161 (2000) 677 162 178 220 245 370 929 1290 2070 2360
2021-02-07 13:00 3.43 829 2380 (2019) 161 (2000) 677 162 178 220 245 370 929 1290 2070 2360
2021-02-07 12:00 3.45 841 2380 (2019) 161 (2000) 677 162 178 220 245 370 929 1290 2070 2360
2021-02-07 10:00 3.49 865 2380 (2019) 161 (2000) 677 162 178 220 245 370 929 1290 2070 2360
2021-02-07 09:00 3.45 841 2380 (2019) 161 (2000) 677 162 178 220 245 370 929 1290 2070 2360
2021-02-07 08:00 3.47 853 2380 (2019) 161 (2000) 677 162 178 220 245 370 929 1290 2070 2360
2021-02-07 07:00 3.47 853 2380 (2019) 161 (2000) 677 162 178 220 245 370 929 1290 2070 2360
2021-02-07 06:00 3.49 865 2380 (2019) 161 (2000) 677 162 178 220 245 370 929 1290 2070 2360
2021-02-07 05:00 3.53 890 2380 (2019) 161 (2000) 677 162 178 220 245 370 929 1290 2070 2360
2021-02-07 04:00 3.51 877 2380 (2019) 161 (2000) 677 162 178 220 245 370 929 1290 2070 2360
2021-02-07 03:00 3.52 883 2380 (2019) 161 (2000) 677 162 178 220 245 370 929 1290 2070 2360
2021-02-07 02:00 3.54 896 2380 (2019) 161 (2000) 677 162 178 220 245 370 929 1290 2070 2360
2021-02-07 01:00 3.53 890 2380 (2019) 161 (2000) 677 162 178 220 245 370 929 1290 2070 2360
2021-02-07 00:00 3.55 902 2380 (2019) 161 (2000) 677 162 178 220 245 370 929 1290 2070 2360
2021-02-06 23:00 3.54 896 1670 (2020) 162 (2000) 571 164 180 220 247 386 754 896 1600 1670
2021-02-06 22:00 3.58 921 1670 (2020) 162 (2000) 571 164 180 220 247 386 754 896 1600 1670
2021-02-06 21:00 3.55 902 1670 (2020) 162 (2000) 571 164 180 220 247 386 754 896 1600 1670
2021-02-06 20:00 3.59 928 1670 (2020) 162 (2000) 571 164 180 220 247 386 754 896 1600 1670
2021-02-06 19:00 3.59 928 1670 (2020) 162 (2000) 571 164 180 220 247 386 754 896 1600 1670
2021-02-06 18:00 3.58 921 1670 (2020) 162 (2000) 571 164 180 220 247 386 754 896 1600 1670
2021-02-06 17:00 3.57 915 1670 (2020) 162 (2000) 571 164 180 220 247 386 754 896 1600 1670
2021-02-06 16:00 3.58 921 1670 (2020) 162 (2000) 571 164 180 220 247 386 754 896 1600 1670
2021-02-06 15:00 3.63 954 1670 (2020) 162 (2000) 571 164 180 220 247 386 754 896 1600 1670
2021-02-06 14:00 3.64 960 1670 (2020) 162 (2000) 571 164 180 220 247 386 754 896 1600 1670
2021-02-06 13:00 3.61 941 1670 (2020) 162 (2000) 571 164 180 220 247 386 754 896 1600 1670
2021-02-06 12:00 3.62 947 1670 (2020) 162 (2000) 571 164 180 220 247 386 754 896 1600 1670
2021-02-06 11:00 3.66 974 1670 (2020) 162 (2000) 571 164 180 220 247 386 754 896 1600 1670
2021-02-06 10:00 3.62 947 1670 (2020) 162 (2000) 571 164 180 220 247 386 754 896 1600 1670
2021-02-06 09:00 3.64 960 1670 (2020) 162 (2000) 571 164 180 220 247 386 754 896 1600 1670
2021-02-06 08:00 3.67 980 1670 (2020) 162 (2000) 571 164 180 220 247 386 754 896 1600 1670
2021-02-06 07:00 3.69 994 1670 (2020) 162 (2000) 571 164 180 220 247 386 754 896 1600 1670
2021-02-06 06:00 3.69 994 1670 (2020) 162 (2000) 571 164 180 220 247 386 754 896 1600 1670
2021-02-06 05:00 3.68 987 1670 (2020) 162 (2000) 571 164 180 220 247 386 754 896 1600 1670
2021-02-06 04:00 3.71 1010 1670 (2020) 162 (2000) 571 164 180 220 247 386 754 896 1600 1670
2021-02-06 03:00 3.70 1000 1670 (2020) 162 (2000) 571 164 180 220 247 386 754 896 1600 1670
2021-02-06 02:00 3.74 1030 1670 (2020) 162 (2000) 571 164 180 220 247 386 754 896 1600 1670
2021-02-06 01:00 3.75 1040 1670 (2020) 162 (2000) 571 164 180 220 247 386 754 896 1600 1670
2021-02-06 00:00 3.76 1040 1670 (2020) 162 (2000) 571 164 180 220 247 386 754 896 1600 1670
2021-02-05 23:00 3.76 1040 1550 (2012) 162 (2000) 487 164 181 224 253 327 669 787 1040 1500
2021-02-05 22:00 3.78 1060 1550 (2012) 162 (2000) 487 164 181 224 253 327 669 787 1040 1500
2021-02-05 21:00 3.79 1060 1550 (2012) 162 (2000) 487 164 181 224 253 327 669 787 1040 1500
2021-02-05 20:00 3.80 1070 1550 (2012) 162 (2000) 487 164 181 224 253 327 669 787 1040 1500
2021-02-05 19:00 3.76 1040 1550 (2012) 162 (2000) 487 164 181 224 253 327 669 787 1040 1500
2021-02-05 18:00 3.80 1070 1550 (2012) 162 (2000) 487 164 181 224 253 327 669 787 1040 1500
2021-02-05 17:00 3.80 1070 1550 (2012) 162 (2000) 487 164 181 224 253 327 669 787 1040 1500
2021-02-05 16:00 3.85 1110 1550 (2012) 162 (2000) 487 164 181 224 253 327 669 787 1040 1500
2021-02-05 15:00 3.84 1100 1550 (2012) 162 (2000) 487 164 181 224 253 327 669 787 1040 1500
2021-02-05 14:00 3.81 1080 1550 (2012) 162 (2000) 487 164 181 224 253 327 669 787 1040 1500
2021-02-05 13:00 3.81 1080 1550 (2012) 162 (2000) 487 164 181 224 253 327 669 787 1040 1500
2021-02-05 12:00 3.84 1100 1550 (2012) 162 (2000) 487 164 181 224 253 327 669 787 1040 1500
2021-02-05 11:00 3.84 1100 1550 (2012) 162 (2000) 487 164 181 224 253 327 669 787 1040 1500
2021-02-05 10:00 3.86 1110 1550 (2012) 162 (2000) 487 164 181 224 253 327 669 787 1040 1500
2021-02-05 09:00 3.83 1090 1550 (2012) 162 (2000) 487 164 181 224 253 327 669 787 1040 1500
2021-02-05 08:00 3.89 1140 1550 (2012) 162 (2000) 487 164 181 224 253 327 669 787 1040 1500
2021-02-05 07:00 3.88 1130 1550 (2012) 162 (2000) 487 164 181 224 253 327 669 787 1040 1500
2021-02-05 06:00 3.89 1140 1550 (2012) 162 (2000) 487 164 181 224 253 327 669 787 1040 1500
2021-02-05 05:00 3.92 1160 1550 (2012) 162 (2000) 487 164 181 224 253 327 669 787 1040 1500
2021-02-05 04:00 3.91 1150 1550 (2012) 162 (2000) 487 164 181 224 253 327 669 787 1040 1500
2021-02-05 03:00 3.92 1160 1550 (2012) 162 (2000) 487 164 181 224 253 327 669 787 1040 1500
2021-02-05 02:00 3.91 1150 1550 (2012) 162 (2000) 487 164 181 224 253 327 669 787 1040 1500
2021-02-05 01:00 3.94 1170 1550 (2012) 162 (2000) 487 164 181 224 253 327 669 787 1040 1500
2021-02-05 00:00 3.95 1180 1550 (2012) 162 (2000) 487 164 181 224 253 327 669 787 1040 1500
2021-02-04 23:00 3.97 1200 1150 (2002) 154 (2008) 445 155 166 197 225 370 660 733 803 1120
2021-02-04 22:00 3.96 1190 1150 (2002) 154 (2008) 445 155 166 197 225 370 660 733 803 1120
2021-02-04 21:00 4.00 1220 1150 (2002) 154 (2008) 445 155 166 197 225 370 660 733 803 1120
2021-02-04 20:00 3.98 1200 1150 (2002) 154 (2008) 445 155 166 197 225 370 660 733 803 1120
2021-02-04 19:00 3.99 1210 1150 (2002) 154 (2008) 445 155 166 197 225 370 660 733 803 1120
2021-02-04 18:00 4.00 1220 1150 (2002) 154 (2008) 445 155 166 197 225 370 660 733 803 1120
2021-02-04 17:00 4.00 1220 1150 (2002) 154 (2008) 445 155 166 197 225 370 660 733 803 1120
2021-02-04 16:00 4.05 1260 1150 (2002) 154 (2008) 445 155 166 197 225 370 660 733 803 1120
2021-02-04 15:00 4.03 1250 1150 (2002) 154 (2008) 445 155 166 197 225 370 660 733 803 1120
2021-02-04 14:00 4.05 1260 1150 (2002) 154 (2008) 445 155 166 197 225 370 660 733 803 1120
2021-02-04 13:00 4.07 1280 1150 (2002) 154 (2008) 445 155 166 197 225 370 660 733 803 1120
2021-02-04 12:00 4.05 1260 1150 (2002) 154 (2008) 445 155 166 197 225 370 660 733 803 1120
2021-02-04 11:00 4.09 1300 1150 (2002) 154 (2008) 445 155 166 197 225 370 660 733 803 1120
2021-02-04 10:00 4.06 1270 1150 (2002) 154 (2008) 445 155 166 197 225 370 660 733 803 1120
2021-02-04 09:00 4.07 1280 1150 (2002) 154 (2008) 445 155 166 197 225 370 660 733 803 1120
2021-02-04 08:00 4.08 1290 1150 (2002) 154 (2008) 445 155 166 197 225 370 660 733 803 1120
2021-02-04 07:00 4.09 1300 1150 (2002) 154 (2008) 445 155 166 197 225 370 660 733 803 1120
2021-02-04 06:00 4.12 1310 1150 (2002) 154 (2008) 445 155 166 197 225 370 660 733 803 1120
2021-02-04 05:00 4.10 1300 1150 (2002) 154 (2008) 445 155 166 197 225 370 660 733 803 1120
2021-02-04 04:00 4.13 1320 1150 (2002) 154 (2008) 445 155 166 197 225 370 660 733 803 1120
2021-02-04 03:00 4.14 1330 1150 (2002) 154 (2008) 445 155 166 197 225 370 660 733 803 1120
2021-02-04 02:00 4.16 1350 1150 (2002) 154 (2008) 445 155 166 197 225 370 660 733 803 1120
2021-02-04 01:00 4.19 1380 1150 (2002) 154 (2008) 445 155 166 197 225 370 660 733 803 1120
2021-02-04 00:00 4.19 1380 1150 (2002) 154 (2008) 445 155 166 197 225 370 660 733 803 1120
2021-02-03 23:00 4.24 1420 1500 (2002) 154 (2008) 472 155 167 199 220 440 571 713 920 1440
2021-02-03 22:00 4.22 1400 1500 (2002) 154 (2008) 472 155 167 199 220 440 571 713 920 1440
2021-02-03 21:00 4.25 1430 1500 (2002) 154 (2008) 472 155 167 199 220 440 571 713 920 1440
2021-02-03 20:00 4.26 1440 1500 (2002) 154 (2008) 472 155 167 199 220 440 571 713 920 1440
2021-02-03 19:00 4.28 1460 1500 (2002) 154 (2008) 472 155 167 199 220 440 571 713 920 1440
2021-02-03 18:00 4.28 1460 1500 (2002) 154 (2008) 472 155 167 199 220 440 571 713 920 1440
2021-02-03 17:00 4.30 1480 1500 (2002) 154 (2008) 472 155 167 199 220 440 571 713 920 1440
2021-02-03 16:00 4.32 1500 1500 (2002) 154 (2008) 472 155 167 199 220 440 571 713 920 1440
2021-02-03 15:00 4.38 1540 1500 (2002) 154 (2008) 472 155 167 199 220 440 571 713 920 1440
2021-02-03 14:00 4.33 1510 1500 (2002) 154 (2008) 472 155 167 199 220 440 571 713 920 1440
2021-02-03 13:00 4.40 1560 1500 (2002) 154 (2008) 472 155 167 199 220 440 571 713 920 1440
2021-02-03 12:00 4.38 1540 1500 (2002) 154 (2008) 472 155 167 199 220 440 571 713 920 1440
2021-02-03 11:00 4.41 1570 1500 (2002) 154 (2008) 472 155 167 199 220 440 571 713 920 1440
2021-02-03 10:00 4.45 1610 1500 (2002) 154 (2008) 472 155 167 199 220 440 571 713 920 1440
2021-02-03 09:00 4.46 1620 1500 (2002) 154 (2008) 472 155 167 199 220 440 571 713 920 1440
2021-02-03 08:00 4.47 1630 1500 (2002) 154 (2008) 472 155 167 199 220 440 571 713 920 1440
2021-02-03 07:00 4.50 1660 1500 (2002) 154 (2008) 472 155 167 199 220 440 571 713 920 1440
2021-02-03 06:00 4.50 1660 1500 (2002) 154 (2008) 472 155 167 199 220 440 571 713 920 1440
2021-02-03 05:00 4.52 1690 1500 (2002) 154 (2008) 472 155 167 199 220 440 571 713 920 1440
2021-02-03 04:00 4.54 1710 1500 (2002) 154 (2008) 472 155 167 199 220 440 571 713 920 1440
2021-02-03 03:00 4.56 1730 1500 (2002) 154 (2008) 472 155 167 199 220 440 571 713 920 1440
2021-02-03 02:00 4.59 1750 1500 (2002) 154 (2008) 472 155 167 199 220 440 571 713 920 1440
2021-02-03 01:00 4.63 1790 1500 (2002) 154 (2008) 472 155 167 199 220 440 571 713 920 1440
2021-02-03 00:00 4.64 1800 1500 (2002) 154 (2008) 472 155 167 199 220 440 571 713 920 1440
2021-02-02 23:00 4.67 1840 3350 (2002) 155 (2008) 591 156 169 204 219 465 560 729 1190 3140
2021-02-02 22:00 4.69 1860 3350 (2002) 155 (2008) 591 156 169 204 219 465 560 729 1190 3140
2021-02-02 21:00 4.71 1880 3350 (2002) 155 (2008) 591 156 169 204 219 465 560 729 1190 3140
2021-02-02 20:00 4.74 1920 3350 (2002) 155 (2008) 591 156 169 204 219 465 560 729 1190 3140
2021-02-02 19:00 4.75 1930 3350 (2002) 155 (2008) 591 156 169 204 219 465 560 729 1190 3140
2021-02-02 18:00 4.77 1950 3350 (2002) 155 (2008) 591 156 169 204 219 465 560 729 1190 3140
2021-02-02 17:00 4.81 1980 3350 (2002) 155 (2008) 591 156 169 204 219 465 560 729 1190 3140
2021-02-02 16:00 4.84 2020 3350 (2002) 155 (2008) 591 156 169 204 219 465 560 729 1190 3140
2021-02-02 15:00 4.87 2050 3350 (2002) 155 (2008) 591 156 169 204 219 465 560 729 1190 3140
2021-02-02 14:00 4.88 2060 3350 (2002) 155 (2008) 591 156 169 204 219 465 560 729 1190 3140
2021-02-02 13:00 4.91 2090 3350 (2002) 155 (2008) 591 156 169 204 219 465 560 729 1190 3140
2021-02-02 12:00 4.93 2120 3350 (2002) 155 (2008) 591 156 169 204 219 465 560 729 1190 3140
2021-02-02 11:00 4.96 2150 3350 (2002) 155 (2008) 591 156 169 204 219 465 560 729 1190 3140
2021-02-02 10:00 4.99 2180 3350 (2002) 155 (2008) 591 156 169 204 219 465 560 729 1190 3140
2021-02-02 09:00 5.00 2200 3350 (2002) 155 (2008) 591 156 169 204 219 465 560 729 1190 3140
2021-02-02 08:00 5.05 2240 3350 (2002) 155 (2008) 591 156 169 204 219 465 560 729 1190 3140
2021-02-02 07:00 5.08 2280 3350 (2002) 155 (2008) 591 156 169 204 219 465 560 729 1190 3140
2021-02-02 06:00 5.14 2350 3350 (2002) 155 (2008) 591 156 169 204 219 465 560 729 1190 3140
2021-02-02 05:00 5.16 2370 3350 (2002) 155 (2008) 591 156 169 204 219 465 560 729 1190 3140
2021-02-02 04:00 5.18 2400 3350 (2002) 155 (2008) 591 156 169 204 219 465 560 729 1190 3140
2021-02-02 03:00 5.22 2440 3350 (2002) 155 (2008) 591 156 169 204 219 465 560 729 1190 3140
2021-02-02 02:00 5.29 2500 3350 (2002) 155 (2008) 591 156 169 204 219 465 560 729 1190 3140
2021-02-02 01:00 5.30 2510 3350 (2002) 155 (2008) 591 156 169 204 219 465 560 729 1190 3140
2021-02-02 00:00 5.36 2570 3350 (2002) 155 (2008) 591 156 169 204 219 465 560 729 1190 3140
2021-02-01 23:00 5.38 2580 6690 (2002) 159 (2008) 810 160 171 203 213 483 654 825 1790 6220
2021-02-01 22:00 5.44 2640 6690 (2002) 159 (2008) 810 160 171 203 213 483 654 825 1790 6220
2021-02-01 21:00 5.49 2680 6690 (2002) 159 (2008) 810 160 171 203 213 483 654 825 1790 6220
2021-02-01 20:00 5.52 2710 6690 (2002) 159 (2008) 810 160 171 203 213 483 654 825 1790 6220
2021-02-01 19:00 5.59 2780 6690 (2002) 159 (2008) 810 160 171 203 213 483 654 825 1790 6220
2021-02-01 18:00 5.62 2810 6690 (2002) 159 (2008) 810 160 171 203 213 483 654 825 1790 6220
2021-02-01 17:00 5.69 2880 6690 (2002) 159 (2008) 810 160 171 203 213 483 654 825 1790 6220
2021-02-01 16:00 5.74 2920 6690 (2002) 159 (2008) 810 160 171 203 213 483 654 825 1790 6220
2021-02-01 15:00 5.76 2940 6690 (2002) 159 (2008) 810 160 171 203 213 483 654 825 1790 6220
2021-02-01 14:00 5.85 3030 6690 (2002) 159 (2008) 810 160 171 203 213 483 654 825 1790 6220
2021-02-01 13:00 5.97 3130 6690 (2002) 159 (2008) 810 160 171 203 213 483 654 825 1790 6220
2021-02-01 12:00 6.02 3180 6690 (2002) 159 (2008) 810 160 171 203 213 483 654 825 1790 6220
2021-02-01 11:00 6.03 3190 6690 (2002) 159 (2008) 810 160 171 203 213 483 654 825 1790 6220
2021-02-01 10:00 6.13 3280 6690 (2002) 159 (2008) 810 160 171 203 213 483 654 825 1790 6220
2021-02-01 09:00 6.23 3370 6690 (2002) 159 (2008) 810 160 171 203 213 483 654 825 1790 6220
2021-02-01 08:00 6.33 3470 6690 (2002) 159 (2008) 810 160 171 203 213 483 654 825 1790 6220
2021-02-01 07:00 6.43 3560 6690 (2002) 159 (2008) 810 160 171 203 213 483 654 825 1790 6220
2021-02-01 06:00 6.52 3650 6690 (2002) 159 (2008) 810 160 171 203 213 483 654 825 1790 6220
2021-02-01 05:00 6.66 3780 6690 (2002) 159 (2008) 810 160 171 203 213 483 654 825 1790 6220
2021-02-01 04:00 6.76 3880 6690 (2002) 159 (2008) 810 160 171 203 213 483 654 825 1790 6220
2021-02-01 03:00 6.89 4020 6690 (2002) 159 (2008) 810 160 171 203 213 483 654 825 1790 6220
2021-02-01 02:00 7.04 4160 6690 (2002) 159 (2008) 810 160 171 203 213 483 654 825 1790 6220
2021-02-01 01:00 7.15 4280 6690 (2002) 159 (2008) 810 160 171 203 213 483 654 825 1790 6220
2021-02-01 00:00 7.27 4400 6690 (2002) 159 (2008) 810 160 171 203 213 483 654 825 1790 6220
2021-01-31 23:00 7.30 4440 5130 (2013) 157 (2008) 711 158 174 198 207 506 746 807 1040 4720
2021-01-31 22:00 7.38 4530 5130 (2013) 157 (2008) 711 158 174 198 207 506 746 807 1040 4720
2021-01-31 21:00 7.44 4590 5130 (2013) 157 (2008) 711 158 174 198 207 506 746 807 1040 4720
2021-01-31 20:00 7.39 4540 5130 (2013) 157 (2008) 711 158 174 198 207 506 746 807 1040 4720
2021-01-31 19:00 7.35 4490 5130 (2013) 157 (2008) 711 158 174 198 207 506 746 807 1040 4720
2021-01-31 18:00 7.28 4420 5130 (2013) 157 (2008) 711 158 174 198 207 506 746 807 1040 4720
2021-01-31 17:00 7.13 4260 5130 (2013) 157 (2008) 711 158 174 198 207 506 746 807 1040 4720
2021-01-31 16:00 7.00 4120 5130 (2013) 157 (2008) 711 158 174 198 207 506 746 807 1040 4720
2021-01-31 15:00 6.84 3960 5130 (2013) 157 (2008) 711 158 174 198 207 506 746 807 1040 4720
2021-01-31 14:00 6.58 3710 5130 (2013) 157 (2008) 711 158 174 198 207 506 746 807 1040 4720
2021-01-31 13:00 6.35 3490 5130 (2013) 157 (2008) 711 158 174 198 207 506 746 807 1040 4720
2021-01-31 12:00 6.11 3260 5130 (2013) 157 (2008) 711 158 174 198 207 506 746 807 1040 4720
2021-01-31 11:00 5.84 3020 5130 (2013) 157 (2008) 711 158 174 198 207 506 746 807 1040 4720
2021-01-31 10:00 5.61 2800 5130 (2013) 157 (2008) 711 158 174 198 207 506 746 807 1040 4720
2021-01-31 09:00 5.39 2590 5130 (2013) 157 (2008) 711 158 174 198 207 506 746 807 1040 4720
2021-01-31 08:00 5.20 2420 5130 (2013) 157 (2008) 711 158 174 198 207 506 746 807 1040 4720
2021-01-31 07:00 5.05 2240 5130 (2013) 157 (2008) 711 158 174 198 207 506 746 807 1040 4720
2021-01-31 06:00 4.92 2100 5130 (2013) 157 (2008) 711 158 174 198 207 506 746 807 1040 4720
2021-01-31 05:00 4.79 1970 5130 (2013) 157 (2008) 711 158 174 198 207 506 746 807 1040 4720
2021-01-31 04:00 4.70 1870 5130 (2013) 157 (2008) 711 158 174 198 207 506 746 807 1040 4720
2021-01-31 03:00 4.58 1740 5130 (2013) 157 (2008) 711 158 174 198 207 506 746 807 1040 4720
2021-01-31 02:00 4.51 1680 5130 (2013) 157 (2008) 711 158 174 198 207 506 746 807 1040 4720
2021-01-31 01:00 4.44 1600 5130 (2013) 157 (2008) 711 158 174 198 207 506 746 807 1040 4720
2021-01-31 00:00 4.40 1560 5130 (2013) 157 (2008) 711 158 174 198 207 506 746 807 1040 4720
2021-01-30 23:00 4.32 1500 3090 (2013) 158 (2008) 584 159 176 198 209 441 666 798 1160 2900
2021-01-30 22:00 4.25 1430 3090 (2013) 158 (2008) 584 159 176 198 209 441 666 798 1160 2900
2021-01-30 21:00 4.23 1410 3090 (2013) 158 (2008) 584 159 176 198 209 441 666 798 1160 2900
2021-01-30 20:00 4.19 1380 3090 (2013) 158 (2008) 584 159 176 198 209 441 666 798 1160 2900
2021-01-30 19:00 4.13 1320 3090 (2013) 158 (2008) 584 159 176 198 209 441 666 798 1160 2900
2021-01-30 18:00 4.08 1290 3090 (2013) 158 (2008) 584 159 176 198 209 441 666 798 1160 2900
2021-01-30 17:00 4.07 1280 3090 (2013) 158 (2008) 584 159 176 198 209 441 666 798 1160 2900
2021-01-30 16:00 4.06 1270 3090 (2013) 158 (2008) 584 159 176 198 209 441 666 798 1160 2900
2021-01-30 15:00 4.01 1230 3090 (2013) 158 (2008) 584 159 176 198 209 441 666 798 1160 2900
2021-01-30 14:00 4.01 1230 3090 (2013) 158 (2008) 584 159 176 198 209 441 666 798 1160 2900
2021-01-30 13:00 4.03 1250 3090 (2013) 158 (2008) 584 159 176 198 209 441 666 798 1160 2900
2021-01-30 12:00 4.00 1220 3090 (2013) 158 (2008) 584 159 176 198 209 441 666 798 1160 2900
2021-01-30 11:00 4.00 1220 3090 (2013) 158 (2008) 584 159 176 198 209 441 666 798 1160 2900
2021-01-30 10:00 3.99 1210 3090 (2013) 158 (2008) 584 159 176 198 209 441 666 798 1160 2900
2021-01-30 09:00 4.01 1230 3090 (2013) 158 (2008) 584 159 176 198 209 441 666 798 1160 2900
2021-01-30 08:00 3.98 1200 3090 (2013) 158 (2008) 584 159 176 198 209 441 666 798 1160 2900
2021-01-30 07:00 3.97 1200 3090 (2013) 158 (2008) 584 159 176 198 209 441 666 798 1160 2900
2021-01-30 06:00 3.95 1180 3090 (2013) 158 (2008) 584 159 176 198 209 441 666 798 1160 2900
2021-01-30 05:00 3.99 1210 3090 (2013) 158 (2008) 584 159 176 198 209 441 666 798 1160 2900
2021-01-30 04:00 3.98 1200 3090 (2013) 158 (2008) 584 159 176 198 209 441 666 798 1160 2900
2021-01-30 03:00 3.99 1210 3090 (2013) 158 (2008) 584 159 176 198 209 441 666 798 1160 2900
2021-01-30 02:00 4.01 1230 3090 (2013) 158 (2008) 584 159 176 198 209 441 666 798 1160 2900
2021-01-30 01:00 4.02 1240 3090 (2013) 158 (2008) 584 159 176 198 209 441 666 798 1160 2900
2021-01-30 00:00 4.04 1250 3090 (2013) 158 (2008) 584 159 176 198 209 441 666 798 1160 2900
2021-01-29 23:00 4.03 1250 1370 (2010) 162 (2008) 472 163 175 200 206 338 666 758 1110 1340
2021-01-29 22:00 4.07 1280 1370 (2010) 162 (2008) 472 163 175 200 206 338 666 758 1110 1340
2021-01-29 21:00 4.07 1280 1370 (2010) 162 (2008) 472 163 175 200 206 338 666 758 1110 1340
2021-01-29 20:00 4.06 1270 1370 (2010) 162 (2008) 472 163 175 200 206 338 666 758 1110 1340
2021-01-29 19:00 4.06 1270 1370 (2010) 162 (2008) 472 163 175 200 206 338 666 758 1110 1340
2021-01-29 18:00 4.12 1310 1370 (2010) 162 (2008) 472 163 175 200 206 338 666 758 1110 1340
2021-01-29 17:00 4.09 1300 1370 (2010) 162 (2008) 472 163 175 200 206 338 666 758 1110 1340
2021-01-29 16:00 4.12 1310 1370 (2010) 162 (2008) 472 163 175 200 206 338 666 758 1110 1340
2021-01-29 15:00 4.15 1340 1370 (2010) 162 (2008) 472 163 175 200 206 338 666 758 1110 1340
2021-01-29 14:00 4.17 1360 1370 (2010) 162 (2008) 472 163 175 200 206 338 666 758 1110 1340
2021-01-29 13:00 4.15 1340 1370 (2010) 162 (2008) 472 163 175 200 206 338 666 758 1110 1340
2021-01-29 12:00 4.18 1370 1370 (2010) 162 (2008) 472 163 175 200 206 338 666 758 1110 1340
2021-01-29 11:00 4.21 1390 1370 (2010) 162 (2008) 472 163 175 200 206 338 666 758 1110 1340
2021-01-29 10:00 4.24 1420 1370 (2010) 162 (2008) 472 163 175 200 206 338 666 758 1110 1340
2021-01-29 09:00 4.23 1410 1370 (2010) 162 (2008) 472 163 175 200 206 338 666 758 1110 1340
2021-01-29 08:00 4.28 1460 1370 (2010) 162 (2008) 472 163 175 200 206 338 666 758 1110 1340
2021-01-29 07:00 4.30 1480 1370 (2010) 162 (2008) 472 163 175 200 206 338 666 758 1110 1340
2021-01-29 06:00 4.29 1470 1370 (2010) 162 (2008) 472 163 175 200 206 338 666 758 1110 1340
2021-01-29 05:00 4.30 1480 1370 (2010) 162 (2008) 472 163 175 200 206 338 666 758 1110 1340
2021-01-29 04:00 4.33 1510 1370 (2010) 162 (2008) 472 163 175 200 206 338 666 758 1110 1340
2021-01-29 03:00 4.33 1510 1370 (2010) 162 (2008) 472 163 175 200 206 338 666 758 1110 1340
2021-01-29 02:00 4.38 1540 1370 (2010) 162 (2008) 472 163 175 200 206 338 666 758 1110 1340
2021-01-29 01:00 4.42 1580 1370 (2010) 162 (2008) 472 163 175 200 206 338 666 758 1110 1340
2021-01-29 00:00 4.44 1600 1370 (2010) 162 (2008) 472 163 175 200 206 338 666 758 1110 1340
2021-01-28 23:00 4.45 1610 1660 (2010) 163 (2008) 530 163 169 194 200 353 744 843 1550 1660
2021-01-28 22:00 4.49 1650 1660 (2010) 163 (2008) 530 163 169 194 200 353 744 843 1550 1660
2021-01-28 21:00 4.53 1700 1660 (2010) 163 (2008) 530 163 169 194 200 353 744 843 1550 1660
2021-01-28 20:00 4.54 1710 1660 (2010) 163 (2008) 530 163 169 194 200 353 744 843 1550 1660
2021-01-28 19:00 4.59 1750 1660 (2010) 163 (2008) 530 163 169 194 200 353 744 843 1550 1660
2021-01-28 18:00 4.61 1770 1660 (2010) 163 (2008) 530 163 169 194 200 353 744 843 1550 1660
2021-01-28 17:00 4.66 1830 1660 (2010) 163 (2008) 530 163 169 194 200 353 744 843 1550 1660
2021-01-28 16:00 4.67 1840 1660 (2010) 163 (2008) 530 163 169 194 200 353 744 843 1550 1660
2021-01-28 15:00 4.68 1850 1660 (2010) 163 (2008) 530 163 169 194 200 353 744 843 1550 1660
2021-01-28 14:00 4.73 1900 1660 (2010) 163 (2008) 530 163 169 194 200 353 744 843 1550 1660
2021-01-28 13:00 4.76 1940 1660 (2010) 163 (2008) 530 163 169 194 200 353 744 843 1550 1660
2021-01-28 12:00 4.78 1960 1660 (2010) 163 (2008) 530 163 169 194 200 353 744 843 1550 1660
2021-01-28 11:00 4.83 2010 1660 (2010) 163 (2008) 530 163 169 194 200 353 744 843 1550 1660
2021-01-28 10:00 4.85 2030 1660 (2010) 163 (2008) 530 163 169 194 200 353 744 843 1550 1660
2021-01-28 09:00 4.88 2060 1660 (2010) 163 (2008) 530 163 169 194 200 353 744 843 1550 1660
2021-01-28 08:00 4.93 2120 1660 (2010) 163 (2008) 530 163 169 194 200 353 744 843 1550 1660
2021-01-28 07:00 4.95 2140 1660 (2010) 163 (2008) 530 163 169 194 200 353 744 843 1550 1660
2021-01-28 06:00 4.99 2180 1660 (2010) 163 (2008) 530 163 169 194 200 353 744 843 1550 1660
2021-01-28 05:00 5.02 2220 1660 (2010) 163 (2008) 530 163 169 194 200 353 744 843 1550 1660
2021-01-28 04:00 5.06 2250 1660 (2010) 163 (2008) 530 163 169 194 200 353 744 843 1550 1660
2021-01-28 03:00 5.10 2300 1660 (2010) 163 (2008) 530 163 169 194 200 353 744 843 1550 1660
2021-01-28 02:00 5.14 2350 1660 (2010) 163 (2008) 530 163 169 194 200 353 744 843 1550 1660
2021-01-28 01:00 5.18 2400 1660 (2010) 163 (2008) 530 163 169 194 200 353 744 843 1550 1660
2021-01-28 00:00 5.21 2430 1660 (2010) 163 (2008) 530 163 169 194 200 353 744 843 1550 1660
2021-01-27 23:00 5.27 2480 2150 (2010) 164 (2008) 595 164 169 190 201 366 819 940 1850 2130
2021-01-27 22:00 5.29 2500 2150 (2010) 164 (2008) 595 164 169 190 201 366 819 940 1850 2130
2021-01-27 21:00 5.35 2560 2150 (2010) 164 (2008) 595 164 169 190 201 366 819 940 1850 2130
2021-01-27 20:00 5.38 2580 2150 (2010) 164 (2008) 595 164 169 190 201 366 819 940 1850 2130
2021-01-27 19:00 5.43 2630 2150 (2010) 164 (2008) 595 164 169 190 201 366 819 940 1850 2130
2021-01-27 18:00 5.49 2680 2150 (2010) 164 (2008) 595 164 169 190 201 366 819 940 1850 2130
2021-01-27 17:00 5.54 2730 2150 (2010) 164 (2008) 595 164 169 190 201 366 819 940 1850 2130
2021-01-27 16:00 5.58 2770 2150 (2010) 164 (2008) 595 164 169 190 201 366 819 940 1850 2130
2021-01-27 15:00 5.65 2840 2150 (2010) 164 (2008) 595 164 169 190 201 366 819 940 1850 2130
2021-01-27 14:00 5.68 2870 2150 (2010) 164 (2008) 595 164 169 190 201 366 819 940 1850 2130
2021-01-27 13:00 5.78 2960 2150 (2010) 164 (2008) 595 164 169 190 201 366 819 940 1850 2130
2021-01-27 12:00 5.83 3010 2150 (2010) 164 (2008) 595 164 169 190 201 366 819 940 1850 2130
2021-01-27 11:00 5.91 3080 2150 (2010) 164 (2008) 595 164 169 190 201 366 819 940 1850 2130
2021-01-27 10:00 5.99 3150 2150 (2010) 164 (2008) 595 164 169 190 201 366 819 940 1850 2130
2021-01-27 09:00 6.06 3210 2150 (2010) 164 (2008) 595 164 169 190 201 366 819 940 1850 2130
2021-01-27 08:00 6.11 3260 2150 (2010) 164 (2008) 595 164 169 190 201 366 819 940 1850 2130
2021-01-27 07:00 6.23 3370 2150 (2010) 164 (2008) 595 164 169 190 201 366 819 940 1850 2130
2021-01-27 06:00 6.29 3430 2150 (2010) 164 (2008) 595 164 169 190 201 366 819 940 1850 2130
2021-01-27 05:00 6.35 3490 2150 (2010) 164 (2008) 595 164 169 190 201 366 819 940 1850 2130
2021-01-27 04:00 6.52 3650 2150 (2010) 164 (2008) 595 164 169 190 201 366 819 940 1850 2130
2021-01-27 03:00 6.61 3740 2150 (2010) 164 (2008) 595 164 169 190 201 366 819 940 1850 2130
2021-01-27 02:00 6.73 3850 2150 (2010) 164 (2008) 595 164 169 190 201 366 819 940 1850 2130
2021-01-27 01:00 6.89 4020 2150 (2010) 164 (2008) 595 164 169 190 201 366 819 940 1850 2130
2021-01-27 00:00 7.07 4200 2150 (2010) 164 (2008) 595 164 169 190 201 366 819 940 1850 2130
2021-01-26 23:00 7.31 4450 2970 (2010) 167 (2008) 577 167 171 194 201 331 647 805 1320 2810
2021-01-26 22:00 7.60 4750 2970 (2010) 167 (2008) 577 167 171 194 201 331 647 805 1320 2810
2021-01-26 21:00 8.04 5200 2970 (2010) 167 (2008) 577 167 171 194 201 331 647 805 1320 2810
2021-01-26 20:00 8.69 5940 2970 (2010) 167 (2008) 577 167 171 194 201 331 647 805 1320 2810
2021-01-26 19:00 9.47 6910 2970 (2010) 167 (2008) 577 167 171 194 201 331 647 805 1320 2810
2021-01-26 18:00 10.11 7780 2970 (2010) 167 (2008) 577 167 171 194 201 331 647 805 1320 2810
2021-01-26 17:00 10.60 8460 2970 (2010) 167 (2008) 577 167 171 194 201 331 647 805 1320 2810
2021-01-26 16:00 11.01 9070 2970 (2010) 167 (2008) 577 167 171 194 201 331 647 805 1320 2810
2021-01-26 15:00 11.11 9210 2970 (2010) 167 (2008) 577 167 171 194 201 331 647 805 1320 2810
2021-01-26 14:00 11.00 9060 2970 (2010) 167 (2008) 577 167 171 194 201 331 647 805 1320 2810
2021-01-26 13:00 10.92 8930 2970 (2010) 167 (2008) 577 167 171 194 201 331 647 805 1320 2810
2021-01-26 12:00 10.79 8740 2970 (2010) 167 (2008) 577 167 171 194 201 331 647 805 1320 2810
2021-01-26 11:00 10.58 8430 2970 (2010) 167 (2008) 577 167 171 194 201 331 647 805 1320 2810
2021-01-26 10:00 10.28 8010 2970 (2010) 167 (2008) 577 167 171 194 201 331 647 805 1320 2810
2021-01-26 09:00 10.02 7650 2970 (2010) 167 (2008) 577 167 171 194 201 331 647 805 1320 2810
2021-01-26 08:00 9.81 7370 2970 (2010) 167 (2008) 577 167 171 194 201 331 647 805 1320 2810
2021-01-26 07:00 9.47 6910 2970 (2010) 167 (2008) 577 167 171 194 201 331 647 805 1320 2810
2021-01-26 06:00 9.15 6500 2970 (2010) 167 (2008) 577 167 171 194 201 331 647 805 1320 2810
2021-01-26 05:00 8.76 6030 2970 (2010) 167 (2008) 577 167 171 194 201 331 647 805 1320 2810
2021-01-26 04:00 8.39 5590 2970 (2010) 167 (2008) 577 167 171 194 201 331 647 805 1320 2810
2021-01-26 03:00 7.96 5120 2970 (2010) 167 (2008) 577 167 171 194 201 331 647 805 1320 2810
2021-01-26 02:00 7.44 4590 2970 (2010) 167 (2008) 577 167 171 194 201 331 647 805 1320 2810
2021-01-26 01:00 7.08 4210 2970 (2010) 167 (2008) 577 167 171 194 201 331 647 805 1320 2810
2021-01-26 00:00 6.75 3870 2970 (2010) 167 (2008) 577 167 171 194 201 331 647 805 1320 2810
2021-01-25 23:00 6.48 3610 5660 (2010) 169 (2000) 725 169 172 200 203 293 654 893 1610 5260
2021-01-25 22:00 6.24 3380 5660 (2010) 169 (2000) 725 169 172 200 203 293 654 893 1610 5260
2021-01-25 21:00 6.02 3180 5660 (2010) 169 (2000) 725 169 172 200 203 293 654 893 1610 5260
2021-01-25 20:00 5.81 2990 5660 (2010) 169 (2000) 725 169 172 200 203 293 654 893 1610 5260
2021-01-25 19:00 5.45 2650 5660 (2010) 169 (2000) 725 169 172 200 203 293 654 893 1610 5260
2021-01-25 18:00 5.05 2240 5660 (2010) 169 (2000) 725 169 172 200 203 293 654 893 1610 5260
2021-01-25 17:00 4.73 1900 5660 (2010) 169 (2000) 725 169 172 200 203 293 654 893 1610 5260
2021-01-25 16:00 4.49 1650 5660 (2010) 169 (2000) 725 169 172 200 203 293 654 893 1610 5260
2021-01-25 15:00 4.25 1430 5660 (2010) 169 (2000) 725 169 172 200 203 293 654 893 1610 5260
2021-01-25 14:00 3.93 1170 5660 (2010) 169 (2000) 725 169 172 200 203 293 654 893 1610 5260
2021-01-25 13:00 3.58 921 5660 (2010) 169 (2000) 725 169 172 200 203 293 654 893 1610 5260
2021-01-25 12:00 3.33 771 5660 (2010) 169 (2000) 725 169 172 200 203 293 654 893 1610 5260
2021-01-25 11:00 3.19 695 5660 (2010) 169 (2000) 725 169 172 200 203 293 654 893 1610 5260
2021-01-25 10:00 3.17 685 5660 (2010) 169 (2000) 725 169 172 200 203 293 654 893 1610 5260
2021-01-25 09:00 3.11 655 5660 (2010) 169 (2000) 725 169 172 200 203 293 654 893 1610 5260
2021-01-25 08:00 2.96 583 5660 (2010) 169 (2000) 725 169 172 200 203 293 654 893 1610 5260
2021-01-25 07:00 2.79 509 5660 (2010) 169 (2000) 725 169 172 200 203 293 654 893 1610 5260
2021-01-25 06:00 2.72 480 5660 (2010) 169 (2000) 725 169 172 200 203 293 654 893 1610 5260
2021-01-25 05:00 2.60 434 5660 (2010) 169 (2000) 725 169 172 200 203 293 654 893 1610 5260
2021-01-25 04:00 2.55 416 5660 (2010) 169 (2000) 725 169 172 200 203 293 654 893 1610 5260
2021-01-25 03:00 2.52 406 5660 (2010) 169 (2000) 725 169 172 200 203 293 654 893 1610 5260
2021-01-25 02:00 2.48 391 5660 (2010) 169 (2000) 725 169 172 200 203 293 654 893 1610 5260
2021-01-25 01:00 2.45 381 5660 (2010) 169 (2000) 725 169 172 200 203 293 654 893 1610 5260
2021-01-25 00:00 2.45 381 5660 (2010) 169 (2000) 725 169 172 200 203 293 654 893 1610 5260
2021-01-24 23:00 2.45 381 4150 (2010) 171 (2000) 671 172 178 204 209 255 687 1030 1780 3920
2021-01-24 22:00 2.45 381 4150 (2010) 171 (2000) 671 172 178 204 209 255 687 1030 1780 3920
2021-01-24 21:00 2.45 381 4150 (2010) 171 (2000) 671 172 178 204 209 255 687 1030 1780 3920
2021-01-24 20:00 2.43 374 4150 (2010) 171 (2000) 671 172 178 204 209 255 687 1030 1780 3920
2021-01-24 19:00 2.45 381 4150 (2010) 171 (2000) 671 172 178 204 209 255 687 1030 1780 3920
2021-01-24 18:00 2.47 388 4150 (2010) 171 (2000) 671 172 178 204 209 255 687 1030 1780 3920
2021-01-24 17:00 2.47 388 4150 (2010) 171 (2000) 671 172 178 204 209 255 687 1030 1780 3920
2021-01-24 16:00 2.47 388 4150 (2010) 171 (2000) 671 172 178 204 209 255 687 1030 1780 3920
2021-01-24 15:00 2.45 381 4150 (2010) 171 (2000) 671 172 178 204 209 255 687 1030 1780 3920
2021-01-24 14:00 2.46 384 4150 (2010) 171 (2000) 671 172 178 204 209 255 687 1030 1780 3920
2021-01-24 13:00 2.45 381 4150 (2010) 171 (2000) 671 172 178 204 209 255 687 1030 1780 3920
2021-01-24 12:00 2.44 377 4150 (2010) 171 (2000) 671 172 178 204 209 255 687 1030 1780 3920
2021-01-24 11:00 2.46 384 4150 (2010) 171 (2000) 671 172 178 204 209 255 687 1030 1780 3920
2021-01-24 10:00 2.45 381 4150 (2010) 171 (2000) 671 172 178 204 209 255 687 1030 1780 3920
2021-01-24 09:00 2.45 381 4150 (2010) 171 (2000) 671 172 178 204 209 255 687 1030 1780 3920
2021-01-24 08:00 2.43 374 4150 (2010) 171 (2000) 671 172 178 204 209 255 687 1030 1780 3920
2021-01-24 07:00 2.42 370 4150 (2010) 171 (2000) 671 172 178 204 209 255 687 1030 1780 3920
2021-01-24 06:00 2.43 374 4150 (2010) 171 (2000) 671 172 178 204 209 255 687 1030 1780 3920
2021-01-24 05:00 2.40 363 4150 (2010) 171 (2000) 671 172 178 204 209 255 687 1030 1780 3920
2021-01-24 04:00 2.42 370 4150 (2010) 171 (2000) 671 172 178 204 209 255 687 1030 1780 3920
2021-01-24 03:00 2.43 374 4150 (2010) 171 (2000) 671 172 178 204 209 255 687 1030 1780 3920
2021-01-24 02:00 2.41 367 4150 (2010) 171 (2000) 671 172 178 204 209 255 687 1030 1780 3920
2021-01-24 01:00 2.41 367 4150 (2010) 171 (2000) 671 172 178 204 209 255 687 1030 1780 3920
2021-01-24 00:00 2.42 370 4150 (2010) 171 (2000) 671 172 178 204 209 255 687 1030 1780 3920
2021-01-23 23:00 2.41 367 2460 (2010) 173 (2000) 561 174 182 198 210 258 754 794 1480 2360
2021-01-23 22:00 2.41 367 2460 (2010) 173 (2000) 561 174 182 198 210 258 754 794 1480 2360
2021-01-23 21:00 2.41 367 2460 (2010) 173 (2000) 561 174 182 198 210 258 754 794 1480 2360
2021-01-23 20:00 2.43 374 2460 (2010) 173 (2000) 561 174 182 198 210 258 754 794 1480 2360
2021-01-23 19:00 2.42 370 2460 (2010) 173 (2000) 561 174 182 198 210 258 754 794 1480 2360
2021-01-23 18:00 2.40 363 2460 (2010) 173 (2000) 561 174 182 198 210 258 754 794 1480 2360
2021-01-23 17:00 2.41 367 2460 (2010) 173 (2000) 561 174 182 198 210 258 754 794 1480 2360
2021-01-23 16:00 2.40 363 2460 (2010) 173 (2000) 561 174 182 198 210 258 754 794 1480 2360
2021-01-23 15:00 2.41 367 2460 (2010) 173 (2000) 561 174 182 198 210 258 754 794 1480 2360
2021-01-23 14:00 2.43 374 2460 (2010) 173 (2000) 561 174 182 198 210 258 754 794 1480 2360
2021-01-23 13:00 2.42 370 2460 (2010) 173 (2000) 561 174 182 198 210 258 754 794 1480 2360
2021-01-23 12:00 2.42 370 2460 (2010) 173 (2000) 561 174 182 198 210 258 754 794 1480 2360
2021-01-23 11:00 2.43 374 2460 (2010) 173 (2000) 561 174 182 198 210 258 754 794 1480 2360
2021-01-23 10:00 2.42 370 2460 (2010) 173 (2000) 561 174 182 198 210 258 754 794 1480 2360
2021-01-23 09:00 2.40 363 2460 (2010) 173 (2000) 561 174 182 198 210 258 754 794 1480 2360
2021-01-23 08:00 2.43 374 2460 (2010) 173 (2000) 561 174 182 198 210 258 754 794 1480 2360
2021-01-23 07:00 2.41 367 2460 (2010) 173 (2000) 561 174 182 198 210 258 754 794 1480 2360
2021-01-23 06:00 2.42 370 2460 (2010) 173 (2000) 561 174 182 198 210 258 754 794 1480 2360
2021-01-23 05:00 2.43 374 2460 (2010) 173 (2000) 561 174 182 198 210 258 754 794 1480 2360
2021-01-23 04:00 2.43 374 2460 (2010) 173 (2000) 561 174 182 198 210 258 754 794 1480 2360
2021-01-23 03:00 2.43 374 2460 (2010) 173 (2000) 561 174 182 198 210 258 754 794 1480 2360
2021-01-23 02:00 2.43 374 2460 (2010) 173 (2000) 561 174 182 198 210 258 754 794 1480 2360
2021-01-23 01:00 2.39 360 2460 (2010) 173 (2000) 561 174 182 198 210 258 754 794 1480 2360
2021-01-23 00:00 2.43 374 2460 (2010) 173 (2000) 561 174 182 198 210 258 754 794 1480 2360
2021-01-22 23:00 2.42 370 2350 (2010) 175 (2000) 554 176 187 197 208 255 784 854 1470 2270
2021-01-22 22:00 2.44 377 2350 (2010) 175 (2000) 554 176 187 197 208 255 784 854 1470 2270
2021-01-22 21:00 2.43 374 2350 (2010) 175 (2000) 554 176 187 197 208 255 784 854 1470 2270
2021-01-22 20:00 2.43 374 2350 (2010) 175 (2000) 554 176 187 197 208 255 784 854 1470 2270
2021-01-22 19:00 2.45 381 2350 (2010) 175 (2000) 554 176 187 197 208 255 784 854 1470 2270
2021-01-22 18:00 2.43 374 2350 (2010) 175 (2000) 554 176 187 197 208 255 784 854 1470 2270
2021-01-22 17:00 2.44 377 2350 (2010) 175 (2000) 554 176 187 197 208 255 784 854 1470 2270
2021-01-22 16:00 2.46 384 2350 (2010) 175 (2000) 554 176 187 197 208 255 784 854 1470 2270
2021-01-22 15:00 2.44 377 2350 (2010) 175 (2000) 554 176 187 197 208 255 784 854 1470 2270
2021-01-22 14:00 2.44 377 2350 (2010) 175 (2000) 554 176 187 197 208 255 784 854 1470 2270
2021-01-22 13:00 2.43 374 2350 (2010) 175 (2000) 554 176 187 197 208 255 784 854 1470 2270
2021-01-22 12:00 2.42 370 2350 (2010) 175 (2000) 554 176 187 197 208 255 784 854 1470 2270
2021-01-22 11:00 2.44 377 2350 (2010) 175 (2000) 554 176 187 197 208 255 784 854 1470 2270
2021-01-22 10:00 2.43 374 2350 (2010) 175 (2000) 554 176 187 197 208 255 784 854 1470 2270
2021-01-22 09:00 2.44 377 2350 (2010) 175 (2000) 554 176 187 197 208 255 784 854 1470 2270
2021-01-22 08:00 2.45 381 2350 (2010) 175 (2000) 554 176 187 197 208 255 784 854 1470 2270
2021-01-22 07:00 2.43 374 2350 (2010) 175 (2000) 554 176 187 197 208 255 784 854 1470 2270
2021-01-22 06:00 2.42 370 2350 (2010) 175 (2000) 554 176 187 197 208 255 784 854 1470 2270
2021-01-22 05:00 2.44 377 2350 (2010) 175 (2000) 554 176 187 197 208 255 784 854 1470 2270
2021-01-22 04:00 2.43 374 2350 (2010) 175 (2000) 554 176 187 197 208 255 784 854 1470 2270
2021-01-22 03:00 2.45 381 2350 (2010) 175 (2000) 554 176 187 197 208 255 784 854 1470 2270
2021-01-22 02:00 2.44 377 2350 (2010) 175 (2000) 554 176 187 197 208 255 784 854 1470 2270
2021-01-22 01:00 2.43 374 2350 (2010) 175 (2000) 554 176 187 197 208 255 784 854 1470 2270
2021-01-22 00:00 2.44 377 2350 (2010) 175 (2000) 554 176 187 197 208 255 784 854 1470 2270
2021-01-21 23:00 2.42 370 1940 (2020) 176 (2000) 488 177 186 194 202 264 740 874 961 1840
2021-01-21 22:00 2.45 381 1940 (2020) 176 (2000) 488 177 186 194 202 264 740 874 961 1840
2021-01-21 21:00 2.46 384 1940 (2020) 176 (2000) 488 177 186 194 202 264 740 874 961 1840
2021-01-21 20:00 2.46 384 1940 (2020) 176 (2000) 488 177 186 194 202 264 740 874 961 1840
2021-01-21 19:00 2.46 384 1940 (2020) 176 (2000) 488 177 186 194 202 264 740 874 961 1840
2021-01-21 18:00 2.45 381 1940 (2020) 176 (2000) 488 177 186 194 202 264 740 874 961 1840
2021-01-21 17:00 2.45 381 1940 (2020) 176 (2000) 488 177 186 194 202 264 740 874 961 1840
2021-01-21 16:00 2.45 381 1940 (2020) 176 (2000) 488 177 186 194 202 264 740 874 961 1840
2021-01-21 15:00 2.44 377 1940 (2020) 176 (2000) 488 177 186 194 202 264 740 874 961 1840
2021-01-21 14:00 2.46 384 1940 (2020) 176 (2000) 488 177 186 194 202 264 740 874 961 1840
2021-01-21 13:00 2.44 377 1940 (2020) 176 (2000) 488 177 186 194 202 264 740 874 961 1840
2021-01-21 12:00 2.46 384 1940 (2020) 176 (2000) 488 177 186 194 202 264 740 874 961 1840
2021-01-21 11:00 2.47 388 1940 (2020) 176 (2000) 488 177 186 194 202 264 740 874 961 1840
2021-01-21 10:00 2.47 388 1940 (2020) 176 (2000) 488 177 186 194 202 264 740 874 961 1840
2021-01-21 09:00 2.46 384 1940 (2020) 176 (2000) 488 177 186 194 202 264 740 874 961 1840
2021-01-21 08:00 2.47 388 1940 (2020) 176 (2000) 488 177 186 194 202 264 740 874 961 1840
2021-01-21 07:00 2.46 384 1940 (2020) 176 (2000) 488 177 186 194 202 264 740 874 961 1840
2021-01-21 06:00 2.44 377 1940 (2020) 176 (2000) 488 177 186 194 202 264 740 874 961 1840
2021-01-21 05:00 2.46 384 1940 (2020) 176 (2000) 488 177 186 194 202 264 740 874 961 1840
2021-01-21 04:00 2.45 381 1940 (2020) 176 (2000) 488 177 186 194 202 264 740 874 961 1840
2021-01-21 03:00 2.46 384 1940 (2020) 176 (2000) 488 177 186 194 202 264 740 874 961 1840
2021-01-21 02:00 2.45 381 1940 (2020) 176 (2000) 488 177 186 194 202 264 740 874 961 1840
2021-01-21 01:00 2.48 391 1940 (2020) 176 (2000) 488 177 186 194 202 264 740 874 961 1840
2021-01-21 00:00 2.48 391 1940 (2020) 176 (2000) 488 177 186 194 202 264 740 874 961 1840
2021-01-20 23:00 2.48 391 2680 (2020) 178 (2000) 543 178 185 201 206 274 747 892 1070 2520
2021-01-20 22:00 2.48 391 2680 (2020) 178 (2000) 543 178 185 201 206 274 747 892 1070 2520
2021-01-20 21:00 2.49 395 2680 (2020) 178 (2000) 543 178 185 201 206 274 747 892 1070 2520
2021-01-20 20:00 2.48 391 2680 (2020) 178 (2000) 543 178 185 201 206 274 747 892 1070 2520
2021-01-20 19:00 2.50 399 2680 (2020) 178 (2000) 543 178 185 201 206 274 747 892 1070 2520
2021-01-20 18:00 2.50 399 2680 (2020) 178 (2000) 543 178 185 201 206 274 747 892 1070 2520
2021-01-20 17:00 2.49 395 2680 (2020) 178 (2000) 543 178 185 201 206 274 747 892 1070 2520
2021-01-20 16:00 2.48 391 2680 (2020) 178 (2000) 543 178 185 201 206 274 747 892 1070 2520
2021-01-20 15:00 2.49 395 2680 (2020) 178 (2000) 543 178 185 201 206 274 747 892 1070 2520
2021-01-20 14:00 2.51 402 2680 (2020) 178 (2000) 543 178 185 201 206 274 747 892 1070 2520
2021-01-20 13:00 2.50 399 2680 (2020) 178 (2000) 543 178 185 201 206 274 747 892 1070 2520
2021-01-20 12:00 2.49 395 2680 (2020) 178 (2000) 543 178 185 201 206 274 747 892 1070 2520
2021-01-20 11:00 2.49 395 2680 (2020) 178 (2000) 543 178 185 201 206 274 747 892 1070 2520
2021-01-20 10:00 2.51 402 2680 (2020) 178 (2000) 543 178 185 201 206 274 747 892 1070 2520
2021-01-20 09:00 2.49 395 2680 (2020) 178 (2000) 543 178 185 201 206 274 747 892 1070 2520
2021-01-20 08:00 2.49 395 2680 (2020) 178 (2000) 543 178 185 201 206 274 747 892 1070 2520
2021-01-20 07:00 2.49 395 2680 (2020) 178 (2000) 543 178 185 201 206 274 747 892 1070 2520
2021-01-20 06:00 2.49 395 2680 (2020) 178 (2000) 543 178 185 201 206 274 747 892 1070 2520
2021-01-20 05:00 2.48 391 2680 (2020) 178 (2000) 543 178 185 201 206 274 747 892 1070 2520
2021-01-20 04:00 2.49 395 2680 (2020) 178 (2000) 543 178 185 201 206 274 747 892 1070 2520
2021-01-20 03:00 2.51 402 2680 (2020) 178 (2000) 543 178 185 201 206 274 747 892 1070 2520
2021-01-20 02:00 2.49 395 2680 (2020) 178 (2000) 543 178 185 201 206 274 747 892 1070 2520
2021-01-20 01:00 2.49 395 2680 (2020) 178 (2000) 543 178 185 201 206 274 747 892 1070 2520
2021-01-20 00:00 2.50 399 2680 (2020) 178 (2000) 543 178 185 201 206 274 747 892 1070 2520
2021-01-19 23:00 2.50 399 4370 (2020) 180 (2000) 656 180 184 203 210 294 776 1000 1230 4060
2021-01-19 22:00 2.50 399 4370 (2020) 180 (2000) 656 180 184 203 210 294 776 1000 1230 4060
2021-01-19 21:00 2.48 391 4370 (2020) 180 (2000) 656 180 184 203 210 294 776 1000 1230 4060
2021-01-19 20:00 2.50 399 4370 (2020) 180 (2000) 656 180 184 203 210 294 776 1000 1230 4060
2021-01-19 19:00 2.50 399 4370 (2020) 180 (2000) 656 180 184 203 210 294 776 1000 1230 4060
2021-01-19 18:00 2.51 402 4370 (2020) 180 (2000) 656 180 184 203 210 294 776 1000 1230 4060
2021-01-19 17:00 2.53 409 4370 (2020) 180 (2000) 656 180 184 203 210 294 776 1000 1230 4060
2021-01-19 16:00 2.52 406 4370 (2020) 180 (2000) 656 180 184 203 210 294 776 1000 1230 4060
2021-01-19 15:00 2.51 402 4370 (2020) 180 (2000) 656 180 184 203 210 294 776 1000 1230 4060
2021-01-19 14:00 2.52 406 4370 (2020) 180 (2000) 656 180 184 203 210 294 776 1000 1230 4060
2021-01-19 13:00 2.51 402 4370 (2020) 180 (2000) 656 180 184 203 210 294 776 1000 1230 4060
2021-01-19 12:00 2.51 402 4370 (2020) 180 (2000) 656 180 184 203 210 294 776 1000 1230 4060
2021-01-19 11:00 2.53 409 4370 (2020) 180 (2000) 656 180 184 203 210 294 776 1000 1230 4060
2021-01-19 10:00 2.53 409 4370 (2020) 180 (2000) 656 180 184 203 210 294 776 1000 1230 4060
2021-01-19 09:00 2.53 409 4370 (2020) 180 (2000) 656 180 184 203 210 294 776 1000 1230 4060
2021-01-19 08:00 2.52 406 4370 (2020) 180 (2000) 656 180 184 203 210 294 776 1000 1230 4060
2021-01-19 07:00 2.54 413 4370 (2020) 180 (2000) 656 180 184 203 210 294 776 1000 1230 4060
2021-01-19 06:00 2.53 409 4370 (2020) 180 (2000) 656 180 184 203 210 294 776 1000 1230 4060
2021-01-19 05:00 2.54 413 4370 (2020) 180 (2000) 656 180 184 203 210 294 776 1000 1230 4060
2021-01-19 04:00 2.55 416 4370 (2020) 180 (2000) 656 180 184 203 210 294 776 1000 1230 4060
2021-01-19 03:00 2.54 413 4370 (2020) 180 (2000) 656 180 184 203 210 294 776 1000 1230 4060
2021-01-19 02:00 2.55 416 4370 (2020) 180 (2000) 656 180 184 203 210 294 776 1000 1230 4060
2021-01-19 01:00 2.52 406 4370 (2020) 180 (2000) 656 180 184 203 210 294 776 1000 1230 4060
2021-01-19 00:00 2.51 402 4370 (2020) 180 (2000) 656 180 184 203 210 294 776 1000 1230 4060
2021-01-18 23:00 2.53 409 2830 (2020) 182 (2000) 597 182 184 201 217 318 750 848 1370 2680
2021-01-18 22:00 2.55 416 2830 (2020) 182 (2000) 597 182 184 201 217 318 750 848 1370 2680
2021-01-18 21:00 2.54 413 2830 (2020) 182 (2000) 597 182 184 201 217 318 750 848 1370 2680
2021-01-18 20:00 2.54 413 2830 (2020) 182 (2000) 597 182 184 201 217 318 750 848 1370 2680
2021-01-18 19:00 2.55 416 2830 (2020) 182 (2000) 597 182 184 201 217 318 750 848 1370 2680
2021-01-18 18:00 2.56 420 2830 (2020) 182 (2000) 597 182 184 201 217 318 750 848 1370 2680
2021-01-18 17:00 2.52 406 2830 (2020) 182 (2000) 597 182 184 201 217 318 750 848 1370 2680
2021-01-18 16:00 2.54 413 2830 (2020) 182 (2000) 597 182 184 201 217 318 750 848 1370 2680
2021-01-18 15:00 2.57 424 2830 (2020) 182 (2000) 597 182 184 201 217 318 750 848 1370 2680
2021-01-18 14:00 2.57 424 2830 (2020) 182 (2000) 597 182 184 201 217 318 750 848 1370 2680
2021-01-18 13:00 2.56 420 2830 (2020) 182 (2000) 597 182 184 201 217 318 750 848 1370 2680
2021-01-18 12:00 2.57 424 2830 (2020) 182 (2000) 597 182 184 201 217 318 750 848 1370 2680
2021-01-18 11:00 2.57 424 2830 (2020) 182 (2000) 597 182 184 201 217 318 750 848 1370 2680
2021-01-18 10:00 2.56 420 2830 (2020) 182 (2000) 597 182 184 201 217 318 750 848 1370 2680
2021-01-18 09:00 2.57 424 2830 (2020) 182 (2000) 597 182 184 201 217 318 750 848 1370 2680
2021-01-18 08:00 2.58 427 2830 (2020) 182 (2000) 597 182 184 201 217 318 750 848 1370 2680
2021-01-18 07:00 2.57 424 2830 (2020) 182 (2000) 597 182 184 201 217 318 750 848 1370 2680
2021-01-18 06:00 2.56 420 2830 (2020) 182 (2000) 597 182 184 201 217 318 750 848 1370 2680
2021-01-18 05:00 2.57 424 2830 (2020) 182 (2000) 597 182 184 201 217 318 750 848 1370 2680
2021-01-18 04:00 2.56 420 2830 (2020) 182 (2000) 597 182 184 201 217 318 750 848 1370 2680
2021-01-18 03:00 2.58 427 2830 (2020) 182 (2000) 597 182 184 201 217 318 750 848 1370 2680
2021-01-18 02:00 2.59 431 2830 (2020) 182 (2000) 597 182 184 201 217 318 750 848 1370 2680
2021-01-18 01:00 2.61 438 2830 (2020) 182 (2000) 597 182 184 201 217 318 750 848 1370 2680
2021-01-18 00:00 2.61 438 2830 (2020) 182 (2000) 597 182 184 201 217 318 750 848 1370 2680
2021-01-17 23:00 2.59 431 1940 (2007) 181 (2018) 578 181 186 201 223 352 794 937 1590 1910
2021-01-17 22:00 2.58 427 1940 (2007) 181 (2018) 578 181 186 201 223 352 794 937 1590 1910
2021-01-17 21:00 2.61 438 1940 (2007) 181 (2018) 578 181 186 201 223 352 794 937 1590 1910
2021-01-17 20:00 2.57 424 1940 (2007) 181 (2018) 578 181 186 201 223 352 794 937 1590 1910
2021-01-17 19:00 2.59 431 1940 (2007) 181 (2018) 578 181 186 201 223 352 794 937 1590 1910
2021-01-17 18:00 2.59 431 1940 (2007) 181 (2018) 578 181 186 201 223 352 794 937 1590 1910
2021-01-17 17:00 2.61 438 1940 (2007) 181 (2018) 578 181 186 201 223 352 794 937 1590 1910
2021-01-17 16:00 2.59 431 1940 (2007) 181 (2018) 578 181 186 201 223 352 794 937 1590 1910
2021-01-17 15:00 2.61 438 1940 (2007) 181 (2018) 578 181 186 201 223 352 794 937 1590 1910
2021-01-17 14:00 2.58 427 1940 (2007) 181 (2018) 578 181 186 201 223 352 794 937 1590 1910
2021-01-17 13:00 2.60 434 1940 (2007) 181 (2018) 578 181 186 201 223 352 794 937 1590 1910
2021-01-17 12:00 2.61 438 1940 (2007) 181 (2018) 578 181 186 201 223 352 794 937 1590 1910
2021-01-17 11:00 2.61 438 1940 (2007) 181 (2018) 578 181 186 201 223 352 794 937 1590 1910
2021-01-17 10:00 2.64 449 1940 (2007) 181 (2018) 578 181 186 201 223 352 794 937 1590 1910
2021-01-17 09:00 2.60 434 1940 (2007) 181 (2018) 578 181 186 201 223 352 794 937 1590 1910
2021-01-17 08:00 2.63 446 1940 (2007) 181 (2018) 578 181 186 201 223 352 794 937 1590 1910
2021-01-17 07:00 2.62 442 1940 (2007) 181 (2018) 578 181 186 201 223 352 794 937 1590 1910
2021-01-17 06:00 2.61 438 1940 (2007) 181 (2018) 578 181 186 201 223 352 794 937 1590 1910
2021-01-17 05:00 2.60 434 1940 (2007) 181 (2018) 578 181 186 201 223 352 794 937 1590 1910
2021-01-17 04:00 2.63 446 1940 (2007) 181 (2018) 578 181 186 201 223 352 794 937 1590 1910
2021-01-17 03:00 2.63 446 1940 (2007) 181 (2018) 578 181 186 201 223 352 794 937 1590 1910
2021-01-17 02:00 2.62 442 1940 (2007) 181 (2018) 578 181 186 201 223 352 794 937 1590 1910
2021-01-17 01:00 2.62 442 1940 (2007) 181 (2018) 578 181 186 201 223 352 794 937 1590 1910
2021-01-16 22:00 2.63 446 3610 (2007) 185 (2006) 702 185 186 202 227 367 891 1070 2090 3470
2021-01-16 21:00 2.63 446 3610 (2007) 185 (2006) 702 185 186 202 227 367 891 1070 2090 3470
2021-01-16 20:00 2.62 442 3610 (2007) 185 (2006) 702 185 186 202 227 367 891 1070 2090 3470
2021-01-16 19:00 2.63 446 3610 (2007) 185 (2006) 702 185 186 202 227 367 891 1070 2090 3470
2021-01-16 18:00 2.63 446 3610 (2007) 185 (2006) 702 185 186 202 227 367 891 1070 2090 3470
2021-01-16 17:00 2.62 442 3610 (2007) 185 (2006) 702 185 186 202 227 367 891 1070 2090 3470
2021-01-16 16:00 2.64 449 3610 (2007) 185 (2006) 702 185 186 202 227 367 891 1070 2090 3470
2021-01-16 15:00 2.63 446 3610 (2007) 185 (2006) 702 185 186 202 227 367 891 1070 2090 3470
2021-01-16 14:00 2.65 453 3610 (2007) 185 (2006) 702 185 186 202 227 367 891 1070 2090 3470
2021-01-16 13:00 2.65 453 3610 (2007) 185 (2006) 702 185 186 202 227 367 891 1070 2090 3470
2021-01-16 12:00 2.66 457 3610 (2007) 185 (2006) 702 185 186 202 227 367 891 1070 2090 3470
2021-01-16 11:00 2.66 457 3610 (2007) 185 (2006) 702 185 186 202 227 367 891 1070 2090 3470
2021-01-16 10:00 2.66 457 3610 (2007) 185 (2006) 702 185 186 202 227 367 891 1070 2090 3470
2021-01-16 09:00 2.66 457 3610 (2007) 185 (2006) 702 185 186 202 227 367 891 1070 2090 3470
2021-01-16 08:00 2.63 446 3610 (2007) 185 (2006) 702 185 186 202 227 367 891 1070 2090 3470
2021-01-16 07:00 2.64 449 3610 (2007) 185 (2006) 702 185 186 202 227 367 891 1070 2090 3470
2021-01-16 06:00 2.62 442 3610 (2007) 185 (2006) 702 185 186 202 227 367 891 1070 2090 3470
2021-01-16 05:00 2.65 453 3610 (2007) 185 (2006) 702 185 186 202 227 367 891 1070 2090 3470
2021-01-16 04:00 2.65 453 3610 (2007) 185 (2006) 702 185 186 202 227 367 891 1070 2090 3470
2021-01-16 03:00 2.67 461 3610 (2007) 185 (2006) 702 185 186 202 227 367 891 1070 2090 3470
2021-01-16 02:00 2.64 449 3610 (2007) 185 (2006) 702 185 186 202 227 367 891 1070 2090 3470
2021-01-16 01:00 2.66 457 3610 (2007) 185 (2006) 702 185 186 202 227 367 891 1070 2090 3470
2021-01-16 00:00 2.66 457 3610 (2007) 185 (2006) 702 185 186 202 227 367 891 1070 2090 3470
2021-01-15 23:00 2.65 453 3680 (2007) 181 (2006) 796 182 190 204 214 302 1020 1290 3070 3640
2021-01-15 22:00 2.66 457 3680 (2007) 181 (2006) 796 182 190 204 214 302 1020 1290 3070 3640
2021-01-15 21:00 2.66 457 3680 (2007) 181 (2006) 796 182 190 204 214 302 1020 1290 3070 3640
2021-01-15 20:00 2.66 457 3680 (2007) 181 (2006) 796 182 190 204 214 302 1020 1290 3070 3640
2021-01-15 19:00 2.64 449 3680 (2007) 181 (2006) 796 182 190 204 214 302 1020 1290 3070 3640
2021-01-15 18:00 2.64 449 3680 (2007) 181 (2006) 796 182 190 204 214 302 1020 1290 3070 3640
2021-01-15 17:00 2.63 446 3680 (2007) 181 (2006) 796 182 190 204 214 302 1020 1290 3070 3640
2021-01-15 16:00 2.66 457 3680 (2007) 181 (2006) 796 182 190 204 214 302 1020 1290 3070 3640
2021-01-15 15:00 2.66 457 3680 (2007) 181 (2006) 796 182 190 204 214 302 1020 1290 3070 3640
2021-01-15 14:00 2.67 461 3680 (2007) 181 (2006) 796 182 190 204 214 302 1020 1290 3070 3640
2021-01-15 13:00 2.69 469 3680 (2007) 181 (2006) 796 182 190 204 214 302 1020 1290 3070 3640
2021-01-15 12:00 2.67 461 3680 (2007) 181 (2006) 796 182 190 204 214 302 1020 1290 3070 3640
2021-01-15 11:00 2.67 461 3680 (2007) 181 (2006) 796 182 190 204 214 302 1020 1290 3070 3640
2021-01-15 10:00 2.67 461 3680 (2007) 181 (2006) 796 182 190 204 214 302 1020 1290 3070 3640
2021-01-15 09:00 2.66 457 3680 (2007) 181 (2006) 796 182 190 204 214 302 1020 1290 3070 3640
2021-01-15 08:00 2.67 461 3680 (2007) 181 (2006) 796 182 190 204 214 302 1020 1290 3070 3640
2021-01-15 07:00 2.68 465 3680 (2007) 181 (2006) 796 182 190 204 214 302 1020 1290 3070 3640
2021-01-15 06:00 2.66 457 3680 (2007) 181 (2006) 796 182 190 204 214 302 1020 1290 3070 3640
2021-01-15 05:00 2.67 461 3680 (2007) 181 (2006) 796 182 190 204 214 302 1020 1290 3070 3640
2021-01-15 04:00 2.68 465 3680 (2007) 181 (2006) 796 182 190 204 214 302 1020 1290 3070 3640
2021-01-15 03:00 2.66 457 3680 (2007) 181 (2006) 796 182 190 204 214 302 1020 1290 3070 3640
2021-01-15 02:00 2.67 461 3680 (2007) 181 (2006) 796 182 190 204 214 302 1020 1290 3070 3640
2021-01-15 01:00 2.68 465 3680 (2007) 181 (2006) 796 182 190 204 214 302 1020 1290 3070 3640
2021-01-15 00:00 2.68 465 3680 (2007) 181 (2006) 796 182 190 204 214 302 1020 1290 3070 3640
2021-01-14 23:00 2.66 457 8390 (2005) 180 (2006) 1130 181 191 200 205 313 1180 1810 3820 7960
2021-01-14 22:00 2.67 461 8390 (2005) 180 (2006) 1130 181 191 200 205 313 1180 1810 3820 7960
2021-01-14 21:00 2.69 469 8390 (2005) 180 (2006) 1130 181 191 200 205 313 1180 1810 3820 7960
2021-01-14 20:00 2.66 457 8390 (2005) 180 (2006) 1130 181 191 200 205 313 1180 1810 3820 7960
2021-01-14 19:00 2.68 465 8390 (2005) 180 (2006) 1130 181 191 200 205 313 1180 1810 3820 7960
2021-01-14 18:00 2.67 461 8390 (2005) 180 (2006) 1130 181 191 200 205 313 1180 1810 3820 7960
2021-01-14 17:00 2.68 465 8390 (2005) 180 (2006) 1130 181 191 200 205 313 1180 1810 3820 7960
2021-01-14 16:00 2.67 461 8390 (2005) 180 (2006) 1130 181 191 200 205 313 1180 1810 3820 7960
2021-01-14 15:00 2.65 453 8390 (2005) 180 (2006) 1130 181 191 200 205 313 1180 1810 3820 7960
2021-01-14 14:00 2.67 461 8390 (2005) 180 (2006) 1130 181 191 200 205 313 1180 1810 3820 7960
2021-01-14 13:00 2.65 453 8390 (2005) 180 (2006) 1130 181 191 200 205 313 1180 1810 3820 7960
2021-01-14 12:00 2.69 469 8390 (2005) 180 (2006) 1130 181 191 200 205 313 1180 1810 3820 7960
2021-01-14 11:00 2.68 465 8390 (2005) 180 (2006) 1130 181 191 200 205 313 1180 1810 3820 7960
2021-01-14 10:00 2.69 469 8390 (2005) 180 (2006) 1130 181 191 200 205 313 1180 1810 3820 7960
2021-01-14 09:00 2.69 469 8390 (2005) 180 (2006) 1130 181 191 200 205 313 1180 1810 3820 7960
2021-01-14 08:00 2.68 465 8390 (2005) 180 (2006) 1130 181 191 200 205 313 1180 1810 3820 7960
2021-01-14 07:00 2.68 465 8390 (2005) 180 (2006) 1130 181 191 200 205 313 1180 1810 3820 7960
2021-01-14 06:00 2.69 469 8390 (2005) 180 (2006) 1130 181 191 200 205 313 1180 1810 3820 7960
2021-01-14 05:00 2.68 465 8390 (2005) 180 (2006) 1130 181 191 200 205 313 1180 1810 3820 7960
2021-01-14 04:00 2.67 461 8390 (2005) 180 (2006) 1130 181 191 200 205 313 1180 1810 3820 7960
2021-01-14 03:00 2.68 465 8390 (2005) 180 (2006) 1130 181 191 200 205 313 1180 1810 3820 7960
2021-01-14 02:00 2.69 469 8390 (2005) 180 (2006) 1130 181 191 200 205 313 1180 1810 3820 7960
2021-01-14 01:00 2.68 465 8390 (2005) 180 (2006) 1130 181 191 200 205 313 1180 1810 3820 7960
2021-01-14 00:00 2.67 461 8390 (2005) 180 (2006) 1130 181 191 200 205 313 1180 1810 3820 7960
2021-01-13 23:00 2.69 469 3670 (2020) 169 (2001) 785 170 179 199 203 318 924 1400 3200 3660
2021-01-13 22:00 2.70 473 3670 (2020) 169 (2001) 785 170 179 199 203 318 924 1400 3200 3660
2021-01-13 21:00 2.70 473 3670 (2020) 169 (2001) 785 170 179 199 203 318 924 1400 3200 3660
2021-01-13 20:00 2.70 473 3670 (2020) 169 (2001) 785 170 179 199 203 318 924 1400 3200 3660
2021-01-13 19:00 2.69 469 3670 (2020) 169 (2001) 785 170 179 199 203 318 924 1400 3200 3660
2021-01-13 18:00 2.69 469 3670 (2020) 169 (2001) 785 170 179 199 203 318 924 1400 3200 3660
2021-01-13 17:00 2.70 473 3670 (2020) 169 (2001) 785 170 179 199 203 318 924 1400 3200 3660
2021-01-13 16:00 2.70 473 3670 (2020) 169 (2001) 785 170 179 199 203 318 924 1400 3200 3660
2021-01-13 15:00 2.71 476 3670 (2020) 169 (2001) 785 170 179 199 203 318 924 1400 3200 3660
2021-01-13 14:00 2.71 476 3670 (2020) 169 (2001) 785 170 179 199 203 318 924 1400 3200 3660
2021-01-13 13:00 2.69 469 3670 (2020) 169 (2001) 785 170 179 199 203 318 924 1400 3200 3660
2021-01-13 12:00 2.71 476 3670 (2020) 169 (2001) 785 170 179 199 203 318 924 1400 3200 3660
2021-01-13 11:00 2.72 480 3670 (2020) 169 (2001) 785 170 179 199 203 318 924 1400 3200 3660
2021-01-13 10:00 2.71 476 3670 (2020) 169 (2001) 785 170 179 199 203 318 924 1400 3200 3660
2021-01-13 09:00 2.69 469 3670 (2020) 169 (2001) 785 170 179 199 203 318 924 1400 3200 3660
2021-01-13 08:00 2.71 476 3670 (2020) 169 (2001) 785 170 179 199 203 318 924 1400 3200 3660
2021-01-13 07:00 2.73 484 3670 (2020) 169 (2001) 785 170 179 199 203 318 924 1400 3200 3660
2021-01-13 06:00 2.72 480 3670 (2020) 169 (2001) 785 170 179 199 203 318 924 1400 3200 3660
2021-01-13 05:00 2.72 480 3670 (2020) 169 (2001) 785 170 179 199 203 318 924 1400 3200 3660
2021-01-13 04:00 2.72 480 3670 (2020) 169 (2001) 785 170 179 199 203 318 924 1400 3200 3660
2021-01-13 03:00 2.73 484 3670 (2020) 169 (2001) 785 170 179 199 203 318 924 1400 3200 3660
2021-01-13 02:00 2.73 484 3670 (2020) 169 (2001) 785 170 179 199 203 318 924 1400 3200 3660
2021-01-13 01:00 2.72 480 3670 (2020) 169 (2001) 785 170 179 199 203 318 924 1400 3200 3660
2021-01-13 00:00 2.72 480 3670 (2020) 169 (2001) 785 170 179 199 203 318 924 1400 3200 3660
2021-01-12 23:00 2.74 488 17500 (2020) 158 (2001) 1320 160 176 194 203 322 589 895 2290 16000
2021-01-12 22:00 2.74 488 17500 (2020) 158 (2001) 1320 160 176 194 203 322 589 895 2290 16000
2021-01-12 21:00 2.73 484 17500 (2020) 158 (2001) 1320 160 176 194 203 322 589 895 2290 16000
2021-01-12 20:00 2.74 488 17500 (2020) 158 (2001) 1320 160 176 194 203 322 589 895 2290 16000
2021-01-12 19:00 2.74 488 17500 (2020) 158 (2001) 1320 160 176 194 203 322 589 895 2290 16000
2021-01-12 18:00 2.73 484 17500 (2020) 158 (2001) 1320 160 176 194 203 322 589 895 2290 16000
2021-01-12 17:00 2.73 484 17500 (2020) 158 (2001) 1320 160 176 194 203 322 589 895 2290 16000
2021-01-12 16:00 2.76 497 17500 (2020) 158 (2001) 1320 160 176 194 203 322 589 895 2290 16000
2021-01-12 15:00 2.74 488 17500 (2020) 158 (2001) 1320 160 176 194 203 322 589 895 2290 16000
2021-01-12 14:00 2.77 501 17500 (2020) 158 (2001) 1320 160 176 194 203 322 589 895 2290 16000
2021-01-12 13:00 2.75 492 17500 (2020) 158 (2001) 1320 160 176 194 203 322 589 895 2290 16000
2021-01-12 12:00 2.76 497 17500 (2020) 158 (2001) 1320 160 176 194 203 322 589 895 2290 16000
2021-01-12 11:00 2.75 492 17500 (2020) 158 (2001) 1320 160 176 194 203 322 589 895 2290 16000
2021-01-12 10:00 2.76 497 17500 (2020) 158 (2001) 1320 160 176 194 203 322 589 895 2290 16000
2021-01-12 09:00 2.76 497 17500 (2020) 158 (2001) 1320 160 176 194 203 322 589 895 2290 16000
2021-01-12 08:00 2.75 492 17500 (2020) 158 (2001) 1320 160 176 194 203 322 589 895 2290 16000
2021-01-12 07:00 2.78 505 17500 (2020) 158 (2001) 1320 160 176 194 203 322 589 895 2290 16000
2021-01-12 06:00 2.77 501 17500 (2020) 158 (2001) 1320 160 176 194 203 322 589 895 2290 16000
2021-01-12 05:00 2.79 509 17500 (2020) 158 (2001) 1320 160 176 194 203 322 589 895 2290 16000
2021-01-12 04:00 2.77 501 17500 (2020) 158 (2001) 1320 160 176 194 203 322 589 895 2290 16000
2021-01-12 03:00 2.77 501 17500 (2020) 158 (2001) 1320 160 176 194 203 322 589 895 2290 16000
2021-01-12 02:00 2.78 505 17500 (2020) 158 (2001) 1320 160 176 194 203 322 589 895 2290 16000
2021-01-12 01:00 2.79 509 17500 (2020) 158 (2001) 1320 160 176 194 203 322 589 895 2290 16000
2021-01-12 00:00 2.78 505 17500 (2020) 158 (2001) 1320 160 176 194 203 322 589 895 2290 16000
2021-01-11 23:00 2.78 505 8210 (2020) 152 (2001) 819 154 177 194 205 339 618 698 1490 7540
2021-01-11 22:00 2.77 501 8210 (2020) 152 (2001) 819 154 177 194 205 339 618 698 1490 7540
2021-01-11 21:00 2.77 501 8210 (2020) 152 (2001) 819 154 177 194 205 339 618 698 1490 7540
2021-01-11 20:00 2.79 509 8210 (2020) 152 (2001) 819 154 177 194 205 339 618 698 1490 7540
2021-01-11 19:00 2.77 501 8210 (2020) 152 (2001) 819 154 177 194 205 339 618 698 1490 7540
2021-01-11 18:00 2.80 513 8210 (2020) 152 (2001) 819 154 177 194 205 339 618 698 1490 7540
2021-01-11 17:00 2.80 513 8210 (2020) 152 (2001) 819 154 177 194 205 339 618 698 1490 7540
2021-01-11 16:00 2.81 517 8210 (2020) 152 (2001) 819 154 177 194 205 339 618 698 1490 7540
2021-01-11 15:00 2.79 509 8210 (2020) 152 (2001) 819 154 177 194 205 339 618 698 1490 7540
2021-01-11 14:00 2.82 521 8210 (2020) 152 (2001) 819 154 177 194 205 339 618 698 1490 7540
2021-01-11 13:00 2.82 521 8210 (2020) 152 (2001) 819 154 177 194 205 339 618 698 1490 7540
2021-01-11 12:00 2.81 517 8210 (2020) 152 (2001) 819 154 177 194 205 339 618 698 1490 7540
2021-01-11 11:00 2.79 509 8210 (2020) 152 (2001) 819 154 177 194 205 339 618 698 1490 7540
2021-01-11 10:00 2.81 517 8210 (2020) 152 (2001) 819 154 177 194 205 339 618 698 1490 7540
2021-01-11 09:00 2.81 517 8210 (2020) 152 (2001) 819 154 177 194 205 339 618 698 1490 7540
2021-01-11 08:00 2.82 521 8210 (2020) 152 (2001) 819 154 177 194 205 339 618 698 1490 7540
2021-01-11 07:00 2.82 521 8210 (2020) 152 (2001) 819 154 177 194 205 339 618 698 1490 7540
2021-01-11 06:00 2.83 526 8210 (2020) 152 (2001) 819 154 177 194 205 339 618 698 1490 7540
2021-01-11 05:00 2.83 526 8210 (2020) 152 (2001) 819 154 177 194 205 339 618 698 1490 7540
2021-01-11 04:00 2.82 521 8210 (2020) 152 (2001) 819 154 177 194 205 339 618 698 1490 7540
2021-01-11 03:00 2.83 526 8210 (2020) 152 (2001) 819 154 177 194 205 339 618 698 1490 7540
2021-01-11 02:00 2.83 526 8210 (2020) 152 (2001) 819 154 177 194 205 339 618 698 1490 7540
2021-01-11 01:00 2.84 530 8210 (2020) 152 (2001) 819 154 177 194 205 339 618 698 1490 7540
2021-01-11 00:00 2.84 530 8210 (2020) 152 (2001) 819 154 177 194 205 339 618 698 1490 7540
2021-01-10 23:00 2.85 534 1410 (2005) 147 (2001) 454 150 176 193 207 345 600 682 1240 1410
2021-01-10 22:00 2.84 530 1410 (2005) 147 (2001) 454 150 176 193 207 345 600 682 1240 1410
2021-01-10 21:00 2.85 534 1410 (2005) 147 (2001) 454 150 176 193 207 345 600 682 1240 1410
2021-01-10 20:00 2.87 543 1410 (2005) 147 (2001) 454 150 176 193 207 345 600 682 1240 1410
2021-01-10 19:00 2.86 538 1410 (2005) 147 (2001) 454 150 176 193 207 345 600 682 1240 1410
2021-01-10 18:00 2.86 538 1410 (2005) 147 (2001) 454 150 176 193 207 345 600 682 1240 1410
2021-01-10 17:00 2.87 543 1410 (2005) 147 (2001) 454 150 176 193 207 345 600 682 1240 1410
2021-01-10 16:00 2.88 547 1410 (2005) 147 (2001) 454 150 176 193 207 345 600 682 1240 1410
2021-01-10 15:00 2.86 538 1410 (2005) 147 (2001) 454 150 176 193 207 345 600 682 1240 1410
2021-01-10 14:00 2.86 538 1410 (2005) 147 (2001) 454 150 176 193 207 345 600 682 1240 1410
2021-01-10 13:00 2.88 547 1410 (2005) 147 (2001) 454 150 176 193 207 345 600 682 1240 1410
2021-01-10 12:00 2.86 538 1410 (2005) 147 (2001) 454 150 176 193 207 345 600 682 1240 1410
2021-01-10 11:00 2.88 547 1410 (2005) 147 (2001) 454 150 176 193 207 345 600 682 1240 1410
2021-01-10 10:00 2.86 538 1410 (2005) 147 (2001) 454 150 176 193 207 345 600 682 1240 1410
2021-01-10 09:00 2.90 556 1410 (2005) 147 (2001) 454 150 176 193 207 345 600 682 1240 1410
2021-01-10 08:00 2.91 560 1410 (2005) 147 (2001) 454 150 176 193 207 345 600 682 1240 1410
2021-01-10 07:00 2.90 556 1410 (2005) 147 (2001) 454 150 176 193 207 345 600 682 1240 1410
2021-01-10 06:00 2.89 552 1410 (2005) 147 (2001) 454 150 176 193 207 345 600 682 1240 1410
2021-01-10 05:00 2.89 552 1410 (2005) 147 (2001) 454 150 176 193 207 345 600 682 1240 1410
2021-01-10 04:00 2.91 560 1410 (2005) 147 (2001) 454 150 176 193 207 345 600 682 1240 1410
2021-01-10 03:00 2.90 556 1410 (2005) 147 (2001) 454 150 176 193 207 345 600 682 1240 1410
2021-01-10 02:00 2.91 560 1410 (2005) 147 (2001) 454 150 176 193 207 345 600 682 1240 1410
2021-01-10 01:00 2.90 556 1410 (2005) 147 (2001) 454 150 176 193 207 345 600 682 1240 1410
2021-01-10 00:00 2.90 556 1410 (2005) 147 (2001) 454 150 176 193 207 345 600 682 1240 1410
2021-01-09 23:00 2.90 556 1650 (2005) 149 (2001) 475 151 169 193 209 342 615 766 1060 1590
2021-01-09 21:00 2.91 560 1650 (2005) 149 (2001) 475 151 169 193 209 342 615 766 1060 1590
2021-01-09 20:00 2.91 560 1650 (2005) 149 (2001) 475 151 169 193 209 342 615 766 1060 1590
2021-01-09 19:00 2.93 569 1650 (2005) 149 (2001) 475 151 169 193 209 342 615 766 1060 1590
2021-01-09 18:00 2.94 574 1650 (2005) 149 (2001) 475 151 169 193 209 342 615 766 1060 1590
2021-01-09 17:00 2.95 578 1650 (2005) 149 (2001) 475 151 169 193 209 342 615 766 1060 1590
2021-01-09 16:00 2.95 578 1650 (2005) 149 (2001) 475 151 169 193 209 342 615 766 1060 1590
2021-01-09 15:00 2.93 569 1650 (2005) 149 (2001) 475 151 169 193 209 342 615 766 1060 1590
2021-01-09 14:00 2.94 574 1650 (2005) 149 (2001) 475 151 169 193 209 342 615 766 1060 1590
2021-01-09 13:00 2.94 574 1650 (2005) 149 (2001) 475 151 169 193 209 342 615 766 1060 1590
2021-01-09 12:00 2.95 578 1650 (2005) 149 (2001) 475 151 169 193 209 342 615 766 1060 1590
2021-01-09 11:00 2.98 592 1650 (2005) 149 (2001) 475 151 169 193 209 342 615 766 1060 1590
2021-01-09 10:00 2.95 578 1650 (2005) 149 (2001) 475 151 169 193 209 342 615 766 1060 1590
2021-01-09 09:00 2.96 583 1650 (2005) 149 (2001) 475 151 169 193 209 342 615 766 1060 1590
2021-01-09 08:00 2.96 583 1650 (2005) 149 (2001) 475 151 169 193 209 342 615 766 1060 1590
2021-01-09 07:00 2.99 597 1650 (2005) 149 (2001) 475 151 169 193 209 342 615 766 1060 1590
2021-01-09 06:00 2.98 592 1650 (2005) 149 (2001) 475 151 169 193 209 342 615 766 1060 1590
2021-01-09 05:00 2.98 592 1650 (2005) 149 (2001) 475 151 169 193 209 342 615 766 1060 1590
2021-01-09 04:00 2.97 588 1650 (2005) 149 (2001) 475 151 169 193 209 342 615 766 1060 1590
2021-01-09 03:00 2.98 592 1650 (2005) 149 (2001) 475 151 169 193 209 342 615 766 1060 1590
2021-01-09 02:00 2.98 592 1650 (2005) 149 (2001) 475 151 169 193 209 342 615 766 1060 1590
2021-01-09 01:00 3.00 601 1650 (2005) 149 (2001) 475 151 169 193 209 342 615 766 1060 1590
2021-01-09 00:00 2.99 597 1650 (2005) 149 (2001) 475 151 169 193 209 342 615 766 1060 1590
2021-01-08 23:00 2.99 597 2060 (2005) 146 (2001) 495 148 170 195 213 361 537 731 1040 1960
2021-01-08 22:00 2.97 588 2060 (2005) 146 (2001) 495 148 170 195 213 361 537 731 1040 1960
2021-01-08 21:00 3.00 601 2060 (2005) 146 (2001) 495 148 170 195 213 361 537 731 1040 1960
2021-01-08 20:00 2.99 597 2060 (2005) 146 (2001) 495 148 170 195 213 361 537 731 1040 1960
2021-01-08 19:00 2.99 597 2060 (2005) 146 (2001) 495 148 170 195 213 361 537 731 1040 1960
2021-01-08 18:00 3.00 601 2060 (2005) 146 (2001) 495 148 170 195 213 361 537 731 1040 1960
2021-01-08 17:00 3.01 606 2060 (2005) 146 (2001) 495 148 170 195 213 361 537 731 1040 1960
2021-01-08 16:00 3.01 606 2060 (2005) 146 (2001) 495 148 170 195 213 361 537 731 1040 1960
2021-01-08 15:00 3.00 601 2060 (2005) 146 (2001) 495 148 170 195 213 361 537 731 1040 1960
2021-01-08 14:00 3.01 606 2060 (2005) 146 (2001) 495 148 170 195 213 361 537 731 1040 1960
2021-01-08 13:00 3.01 606 2060 (2005) 146 (2001) 495 148 170 195 213 361 537 731 1040 1960
2021-01-08 12:00 3.01 606 2060 (2005) 146 (2001) 495 148 170 195 213 361 537 731 1040 1960
2021-01-08 11:00 3.01 606 2060 (2005) 146 (2001) 495 148 170 195 213 361 537 731 1040 1960
2021-01-08 10:00 3.03 616 2060 (2005) 146 (2001) 495 148 170 195 213 361 537 731 1040 1960
2021-01-08 09:00 3.03 616 2060 (2005) 146 (2001) 495 148 170 195 213 361 537 731 1040 1960
2021-01-08 08:00 3.02 611 2060 (2005) 146 (2001) 495 148 170 195 213 361 537 731 1040 1960
2021-01-08 07:00 3.02 611 2060 (2005) 146 (2001) 495 148 170 195 213 361 537 731 1040 1960
2021-01-08 06:00 3.05 625 2060 (2005) 146 (2001) 495 148 170 195 213 361 537 731 1040 1960
2021-01-08 05:00 3.05 625 2060 (2005) 146 (2001) 495 148 170 195 213 361 537 731 1040 1960
2021-01-08 04:00 3.05 625 2060 (2005) 146 (2001) 495 148 170 195 213 361 537 731 1040 1960
2021-01-08 03:00 3.03 616 2060 (2005) 146 (2001) 495 148 170 195 213 361 537 731 1040 1960
2021-01-08 02:00 3.07 635 2060 (2005) 146 (2001) 495 148 170 195 213 361 537 731 1040 1960
2021-01-08 01:00 3.06 630 2060 (2005) 146 (2001) 495 148 170 195 213 361 537 731 1040 1960
2021-01-08 00:00 3.07 635 2060 (2005) 146 (2001) 495 148 170 195 213 361 537 731 1040 1960
2021-01-07 23:00 3.08 640 3080 (2005) 144 (2001) 556 144 153 182 189 374 581 864 1120 2890
2021-01-07 22:00 3.07 635 3080 (2005) 144 (2001) 556 144 153 182 189 374 581 864 1120 2890
2021-01-07 21:00 3.09 645 3080 (2005) 144 (2001) 556 144 153 182 189 374 581 864 1120 2890
2021-01-07 20:00 3.09 645 3080 (2005) 144 (2001) 556 144 153 182 189 374 581 864 1120 2890
2021-01-07 19:00 3.10 650 3080 (2005) 144 (2001) 556 144 153 182 189 374 581 864 1120 2890
2021-01-07 18:00 3.09 645 3080 (2005) 144 (2001) 556 144 153 182 189 374 581 864 1120 2890
2021-01-07 17:00 3.11 655 3080 (2005) 144 (2001) 556 144 153 182 189 374 581 864 1120 2890
2021-01-07 16:00 3.11 655 3080 (2005) 144 (2001) 556 144 153 182 189 374 581 864 1120 2890
2021-01-07 15:00 3.13 665 3080 (2005) 144 (2001) 556 144 153 182 189 374 581 864 1120 2890
2021-01-07 14:00 3.14 670 3080 (2005) 144 (2001) 556 144 153 182 189 374 581 864 1120 2890
2021-01-07 13:00 3.11 655 3080 (2005) 144 (2001) 556 144 153 182 189 374 581 864 1120 2890
2021-01-07 12:00 3.13 665 3080 (2005) 144 (2001) 556 144 153 182 189 374 581 864 1120 2890
2021-01-07 11:00 3.15 675 3080 (2005) 144 (2001) 556 144 153 182 189 374 581 864 1120 2890
2021-01-07 10:00 3.15 675 3080 (2005) 144 (2001) 556 144 153 182 189 374 581 864 1120 2890
2021-01-07 09:00 3.14 670 3080 (2005) 144 (2001) 556 144 153 182 189 374 581 864 1120 2890
2021-01-07 08:00 3.14 670 3080 (2005) 144 (2001) 556 144 153 182 189 374 581 864 1120 2890
2021-01-07 07:00 3.13 665 3080 (2005) 144 (2001) 556 144 153 182 189 374 581 864 1120 2890
2021-01-07 06:00 3.16 680 3080 (2005) 144 (2001) 556 144 153 182 189 374 581 864 1120 2890
2021-01-07 05:00 3.16 680 3080 (2005) 144 (2001) 556 144 153 182 189 374 581 864 1120 2890
2021-01-07 04:00 3.19 695 3080 (2005) 144 (2001) 556 144 153 182 189 374 581 864 1120 2890
2021-01-07 03:00 3.19 695 3080 (2005) 144 (2001) 556 144 153 182 189 374 581 864 1120 2890
2021-01-07 02:00 3.18 690 3080 (2005) 144 (2001) 556 144 153 182 189 374 581 864 1120 2890
2021-01-07 01:00 3.18 690 3080 (2005) 144 (2001) 556 144 153 182 189 374 581 864 1120 2890
2021-01-07 00:00 3.21 706 3080 (2005) 144 (2001) 556 144 153 182 189 374 581 864 1120 2890
2021-01-06 23:00 3.23 716 10000 (2005) 136 (2001) 941 137 152 179 190 389 685 1070 1410 9140
2021-01-06 22:00 3.21 706 10000 (2005) 136 (2001) 941 137 152 179 190 389 685 1070 1410 9140
2021-01-06 21:00 3.22 711 10000 (2005) 136 (2001) 941 137 152 179 190 389 685 1070 1410 9140
2021-01-06 20:00 3.24 722 10000 (2005) 136 (2001) 941 137 152 179 190 389 685 1070 1410 9140
2021-01-06 19:00 3.20 701 10000 (2005) 136 (2001) 941 137 152 179 190 389 685 1070 1410 9140
2021-01-06 18:00 3.23 716 10000 (2005) 136 (2001) 941 137 152 179 190 389 685 1070 1410 9140
2021-01-06 17:00 3.25 727 10000 (2005) 136 (2001) 941 137 152 179 190 389 685 1070 1410 9140
2021-01-06 16:00 3.27 738 10000 (2005) 136 (2001) 941 137 152 179 190 389 685 1070 1410 9140
2021-01-06 15:00 3.27 738 10000 (2005) 136 (2001) 941 137 152 179 190 389 685 1070 1410 9140
2021-01-06 14:00 3.27 738 10000 (2005) 136 (2001) 941 137 152 179 190 389 685 1070 1410 9140
2021-01-06 13:00 3.28 743 10000 (2005) 136 (2001) 941 137 152 179 190 389 685 1070 1410 9140
2021-01-06 12:00 3.29 749 10000 (2005) 136 (2001) 941 137 152 179 190 389 685 1070 1410 9140
2021-01-06 11:00 3.30 754 10000 (2005) 136 (2001) 941 137 152 179 190 389 685 1070 1410 9140
2021-01-06 10:00 3.30 754 10000 (2005) 136 (2001) 941 137 152 179 190 389 685 1070 1410 9140
2021-01-06 09:00 3.32 766 10000 (2005) 136 (2001) 941 137 152 179 190 389 685 1070 1410 9140
2021-01-06 08:00 3.31 760 10000 (2005) 136 (2001) 941 137 152 179 190 389 685 1070 1410 9140
2021-01-06 07:00 3.32 766 10000 (2005) 136 (2001) 941 137 152 179 190 389 685 1070 1410 9140
2021-01-06 06:00 3.32 766 10000 (2005) 136 (2001) 941 137 152 179 190 389 685 1070 1410 9140
2021-01-06 05:00 3.32 766 10000 (2005) 136 (2001) 941 137 152 179 190 389 685 1070 1410 9140
2021-01-06 04:00 3.33 771 10000 (2005) 136 (2001) 941 137 152 179 190 389 685 1070 1410 9140
2021-01-06 03:00 3.34 777 10000 (2005) 136 (2001) 941 137 152 179 190 389 685 1070 1410 9140
2021-01-06 02:00 3.34 777 10000 (2005) 136 (2001) 941 137 152 179 190 389 685 1070 1410 9140
2021-01-06 01:00 3.35 782 10000 (2005) 136 (2001) 941 137 152 179 190 389 685 1070 1410 9140
2021-01-06 00:00 3.38 800 10000 (2005) 136 (2001) 941 137 152 179 190 389 685 1070 1410 9140
2021-01-05 23:00 3.37 794 3360 (2005) 136 (2001) 625 137 152 181 192 408 760 1040 1360 3160
2021-01-05 22:00 3.39 805 3360 (2005) 136 (2001) 625 137 152 181 192 408 760 1040 1360 3160
2021-01-05 21:00 3.39 805 3360 (2005) 136 (2001) 625 137 152 181 192 408 760 1040 1360 3160
2021-01-05 20:00 3.40 811 3360 (2005) 136 (2001) 625 137 152 181 192 408 760 1040 1360 3160
2021-01-05 19:00 3.42 823 3360 (2005) 136 (2001) 625 137 152 181 192 408 760 1040 1360 3160
2021-01-05 18:00 3.40 811 3360 (2005) 136 (2001) 625 137 152 181 192 408 760 1040 1360 3160
2021-01-05 17:00 3.43 829 3360 (2005) 136 (2001) 625 137 152 181 192 408 760 1040 1360 3160
2021-01-05 16:00 3.43 829 3360 (2005) 136 (2001) 625 137 152 181 192 408 760 1040 1360 3160
2021-01-05 15:00 3.44 835 3360 (2005) 136 (2001) 625 137 152 181 192 408 760 1040 1360 3160
2021-01-05 14:00 3.44 835 3360 (2005) 136 (2001) 625 137 152 181 192 408 760 1040 1360 3160
2021-01-05 13:00 3.47 853 3360 (2005) 136 (2001) 625 137 152 181 192 408 760 1040 1360 3160
2021-01-05 12:00 3.47 853 3360 (2005) 136 (2001) 625 137 152 181 192 408 760 1040 1360 3160
2021-01-05 11:00 3.46 847 3360 (2005) 136 (2001) 625 137 152 181 192 408 760 1040 1360 3160
2021-01-05 10:00 3.49 865 3360 (2005) 136 (2001) 625 137 152 181 192 408 760 1040 1360 3160
2021-01-05 09:00 3.48 859 3360 (2005) 136 (2001) 625 137 152 181 192 408 760 1040 1360 3160
2021-01-05 08:00 3.48 859 3360 (2005) 136 (2001) 625 137 152 181 192 408 760 1040 1360 3160
2021-01-05 07:00 3.50 871 3360 (2005) 136 (2001) 625 137 152 181 192 408 760 1040 1360 3160
2021-01-05 06:00 3.51 877 3360 (2005) 136 (2001) 625 137 152 181 192 408 760 1040 1360 3160
2021-01-05 05:00 3.51 877 3360 (2005) 136 (2001) 625 137 152 181 192 408 760 1040 1360 3160
2021-01-05 04:00 3.52 883 3360 (2005) 136 (2001) 625 137 152 181 192 408 760 1040 1360 3160
2021-01-05 03:00 3.54 896 3360 (2005) 136 (2001) 625 137 152 181 192 408 760 1040 1360 3160
2021-01-05 02:00 3.54 896 3360 (2005) 136 (2001) 625 137 152 181 192 408 760 1040 1360 3160
2021-01-05 01:00 3.56 909 3360 (2005) 136 (2001) 625 137 152 181 192 408 760 1040 1360 3160
2021-01-05 00:00 3.55 902 3360 (2005) 136 (2001) 625 137 152 181 192 408 760 1040 1360 3160
2021-01-04 23:00 3.56 909 1670 (2016) 137 (2001) 450 138 152 180 185 372 536 639 942 1600
2021-01-04 22:00 3.55 902 1670 (2016) 137 (2001) 450 138 152 180 185 372 536 639 942 1600
2021-01-04 21:00 3.57 915 1670 (2016) 137 (2001) 450 138 152 180 185 372 536 639 942 1600
2021-01-04 20:00 3.59 928 1670 (2016) 137 (2001) 450 138 152 180 185 372 536 639 942 1600
2021-01-04 19:00 3.57 915 1670 (2016) 137 (2001) 450 138 152 180 185 372 536 639 942 1600
2021-01-04 18:00 3.60 934 1670 (2016) 137 (2001) 450 138 152 180 185 372 536 639 942 1600
2021-01-04 17:00 3.61 941 1670 (2016) 137 (2001) 450 138 152 180 185 372 536 639 942 1600
2021-01-04 16:00 3.61 941 1670 (2016) 137 (2001) 450 138 152 180 185 372 536 639 942 1600
2021-01-04 15:00 3.63 954 1670 (2016) 137 (2001) 450 138 152 180 185 372 536 639 942 1600
2021-01-04 14:00 3.62 947 1670 (2016) 137 (2001) 450 138 152 180 185 372 536 639 942 1600
2021-01-04 13:00 3.63 954 1670 (2016) 137 (2001) 450 138 152 180 185 372 536 639 942 1600
2021-01-04 12:00 3.64 960 1670 (2016) 137 (2001) 450 138 152 180 185 372 536 639 942 1600
2021-01-04 11:00 3.64 960 1670 (2016) 137 (2001) 450 138 152 180 185 372 536 639 942 1600
2021-01-04 10:00 3.65 967 1670 (2016) 137 (2001) 450 138 152 180 185 372 536 639 942 1600
2021-01-04 09:00 3.66 974 1670 (2016) 137 (2001) 450 138 152 180 185 372 536 639 942 1600
2021-01-04 08:00 3.68 987 1670 (2016) 137 (2001) 450 138 152 180 185 372 536 639 942 1600
2021-01-04 07:00 3.69 994 1670 (2016) 137 (2001) 450 138 152 180 185 372 536 639 942 1600
2021-01-04 06:00 3.68 987 1670 (2016) 137 (2001) 450 138 152 180 185 372 536 639 942 1600
2021-01-04 05:00 3.72 1010 1670 (2016) 137 (2001) 450 138 152 180 185 372 536 639 942 1600
2021-01-04 04:00 3.72 1010 1670 (2016) 137 (2001) 450 138 152 180 185 372 536 639 942 1600
2021-01-04 03:00 3.73 1020 1670 (2016) 137 (2001) 450 138 152 180 185 372 536 639 942 1600
2021-01-04 02:00 3.75 1040 1670 (2016) 137 (2001) 450 138 152 180 185 372 536 639 942 1600
2021-01-04 01:00 3.76 1040 1670 (2016) 137 (2001) 450 138 152 180 185 372 536 639 942 1600
2021-01-04 00:00 3.77 1050 1670 (2016) 137 (2001) 450 138 152 180 185 372 536 639 942 1600
2021-01-03 23:00 3.77 1050 1990 (2016) 137 (2001) 481 138 154 181 186 315 555 696 1110 1910
2021-01-03 22:00 3.81 1080 1990 (2016) 137 (2001) 481 138 154 181 186 315 555 696 1110 1910
2021-01-03 21:00 3.81 1080 1990 (2016) 137 (2001) 481 138 154 181 186 315 555 696 1110 1910
2021-01-03 20:00 3.84 1100 1990 (2016) 137 (2001) 481 138 154 181 186 315 555 696 1110 1910
2021-01-03 19:00 3.82 1080 1990 (2016) 137 (2001) 481 138 154 181 186 315 555 696 1110 1910
2021-01-03 18:00 3.85 1110 1990 (2016) 137 (2001) 481 138 154 181 186 315 555 696 1110 1910
2021-01-03 17:00 3.87 1120 1990 (2016) 137 (2001) 481 138 154 181 186 315 555 696 1110 1910
2021-01-03 16:00 3.88 1130 1990 (2016) 137 (2001) 481 138 154 181 186 315 555 696 1110 1910
2021-01-03 15:00 3.89 1140 1990 (2016) 137 (2001) 481 138 154 181 186 315 555 696 1110 1910
2021-01-03 14:00 3.90 1140 1990 (2016) 137 (2001) 481 138 154 181 186 315 555 696 1110 1910
2021-01-03 13:00 3.92 1160 1990 (2016) 137 (2001) 481 138 154 181 186 315 555 696 1110 1910
2021-01-03 12:00 3.92 1160 1990 (2016) 137 (2001) 481 138 154 181 186 315 555 696 1110 1910
2021-01-03 11:00 3.92 1160 1990 (2016) 137 (2001) 481 138 154 181 186 315 555 696 1110 1910
2021-01-03 10:00 3.95 1180 1990 (2016) 137 (2001) 481 138 154 181 186 315 555 696 1110 1910
2021-01-03 09:00 3.95 1180 1990 (2016) 137 (2001) 481 138 154 181 186 315 555 696 1110 1910
2021-01-03 08:00 3.95 1180 1990 (2016) 137 (2001) 481 138 154 181 186 315 555 696 1110 1910
2021-01-03 07:00 3.96 1190 1990 (2016) 137 (2001) 481 138 154 181 186 315 555 696 1110 1910
2021-01-03 06:00 3.97 1200 1990 (2016) 137 (2001) 481 138 154 181 186 315 555 696 1110 1910
2021-01-03 05:00 3.98 1200 1990 (2016) 137 (2001) 481 138 154 181 186 315 555 696 1110 1910
2021-01-03 04:00 3.99 1210 1990 (2016) 137 (2001) 481 138 154 181 186 315 555 696 1110 1910
2021-01-03 03:00 3.97 1200 1990 (2016) 137 (2001) 481 138 154 181 186 315 555 696 1110 1910
2021-01-03 02:00 3.95 1180 1990 (2016) 137 (2001) 481 138 154 181 186 315 555 696 1110 1910
2021-01-03 01:00 3.94 1170 1990 (2016) 137 (2001) 481 138 154 181 186 315 555 696 1110 1910
2021-01-03 00:00 3.93 1170 1990 (2016) 137 (2001) 481 138 154 181 186 315 555 696 1110 1910
2021-01-02 23:00 3.91 1150 2400 (2016) 138 (2001) 548 139 154 177 184 301 625 788 1450 2310
2021-01-02 22:00 3.86 1110 2400 (2016) 138 (2001) 548 139 154 177 184 301 625 788 1450 2310
2021-01-02 21:00 3.79 1060 2400 (2016) 138 (2001) 548 139 154 177 184 301 625 788 1450 2310
2021-01-02 20:00 3.69 994 2400 (2016) 138 (2001) 548 139 154 177 184 301 625 788 1450 2310
2021-01-02 19:00 3.56 909 2400 (2016) 138 (2001) 548 139 154 177 184 301 625 788 1450 2310
2021-01-02 18:00 3.37 794 2400 (2016) 138 (2001) 548 139 154 177 184 301 625 788 1450 2310
2021-01-02 17:00 3.18 690 2400 (2016) 138 (2001) 548 139 154 177 184 301 625 788 1450 2310
2021-01-02 16:00 3.02 611 2400 (2016) 138 (2001) 548 139 154 177 184 301 625 788 1450 2310
2021-01-02 15:00 2.89 552 2400 (2016) 138 (2001) 548 139 154 177 184 301 625 788 1450 2310
2021-01-02 14:00 2.81 517 2400 (2016) 138 (2001) 548 139 154 177 184 301 625 788 1450 2310
2021-01-02 13:00 2.78 505 2400 (2016) 138 (2001) 548 139 154 177 184 301 625 788 1450 2310
2021-01-02 12:00 2.74 488 2400 (2016) 138 (2001) 548 139 154 177 184 301 625 788 1450 2310
2021-01-02 11:00 2.69 469 2400 (2016) 138 (2001) 548 139 154 177 184 301 625 788 1450 2310
2021-01-02 10:00 2.65 453 2400 (2016) 138 (2001) 548 139 154 177 184 301 625 788 1450 2310
2021-01-02 09:00 2.66 457 2400 (2016) 138 (2001) 548 139 154 177 184 301 625 788 1450 2310
2021-01-02 08:00 2.66 457 2400 (2016) 138 (2001) 548 139 154 177 184 301 625 788 1450 2310
2021-01-02 07:00 2.61 438 2400 (2016) 138 (2001) 548 139 154 177 184 301 625 788 1450 2310
2021-01-02 06:00 2.60 434 2400 (2016) 138 (2001) 548 139 154 177 184 301 625 788 1450 2310
2021-01-02 05:00 2.58 427 2400 (2016) 138 (2001) 548 139 154 177 184 301 625 788 1450 2310
2021-01-02 04:00 2.59 431 2400 (2016) 138 (2001) 548 139 154 177 184 301 625 788 1450 2310
2021-01-02 03:00 2.56 420 2400 (2016) 138 (2001) 548 139 154 177 184 301 625 788 1450 2310
2021-01-02 02:00 2.56 420 2400 (2016) 138 (2001) 548 139 154 177 184 301 625 788 1450 2310
2021-01-02 01:00 2.54 413 2400 (2016) 138 (2001) 548 139 154 177 184 301 625 788 1450 2310
2021-01-02 00:00 2.52 406 2400 (2016) 138 (2001) 548 139 154 177 184 301 625 788 1450 2310
2021-01-01 23:00 2.54 413 2880 (2016) 139 (2001) 609 141 158 178 188 324 670 943 1770 2780
2021-01-01 22:00 2.52 406 2880 (2016) 139 (2001) 609 141 158 178 188 324 670 943 1770 2780
2021-01-01 21:00 2.51 402 2880 (2016) 139 (2001) 609 141 158 178 188 324 670 943 1770 2780
2021-01-01 20:00 2.52 406 2880 (2016) 139 (2001) 609 141 158 178 188 324 670 943 1770 2780
2021-01-01 19:00 2.51 402 2880 (2016) 139 (2001) 609 141 158 178 188 324 670 943 1770 2780
2021-01-01 18:00 2.50 399 2880 (2016) 139 (2001) 609 141 158 178 188 324 670 943 1770 2780
2021-01-01 17:00 2.48 391 2880 (2016) 139 (2001) 609 141 158 178 188 324 670 943 1770 2780
2021-01-01 16:00 2.48 391 2880 (2016) 139 (2001) 609 141 158 178 188 324 670 943 1770 2780
2021-01-01 15:00 2.48 391 2880 (2016) 139 (2001) 609 141 158 178 188 324 670 943 1770 2780
2021-01-01 14:00 2.47 388 2880 (2016) 139 (2001) 609 141 158 178 188 324 670 943 1770 2780
2021-01-01 13:00 2.46 384 2880 (2016) 139 (2001) 609 141 158 178 188 324 670 943 1770 2780
2021-01-01 12:00 2.46 384 2880 (2016) 139 (2001) 609 141 158 178 188 324 670 943 1770 2780
2021-01-01 11:00 2.45 381 2880 (2016) 139 (2001) 609 141 158 178 188 324 670 943 1770 2780
2021-01-01 10:00 2.43 374 2880 (2016) 139 (2001) 609 141 158 178 188 324 670 943 1770 2780
2021-01-01 09:00 2.42 370 2880 (2016) 139 (2001) 609 141 158 178 188 324 670 943 1770 2780
2021-01-01 08:00 2.42 370 2880 (2016) 139 (2001) 609 141 158 178 188 324 670 943 1770 2780
2021-01-01 07:00 2.41 367 2880 (2016) 139 (2001) 609 141 158 178 188 324 670 943 1770 2780
2021-01-01 06:00 2.43 374 2880 (2016) 139 (2001) 609 141 158 178 188 324 670 943 1770 2780
2021-01-01 05:00 2.41 367 2880 (2016) 139 (2001) 609 141 158 178 188 324 670 943 1770 2780
2021-01-01 04:00 2.41 367 2880 (2016) 139 (2001) 609 141 158 178 188 324 670 943 1770 2780
2021-01-01 03:00 2.38 357 2880 (2016) 139 (2001) 609 141 158 178 188 324 670 943 1770 2780
2021-01-01 02:00 2.36 350 2880 (2016) 139 (2001) 609 141 158 178 188 324 670 943 1770 2780
2021-01-01 01:00 2.37 353 2880 (2016) 139 (2001) 609 141 158 178 188 324 670 943 1770 2780
2021-01-01 00:00 2.36 350 2880 (2016) 139 (2001) 609 141 158 178 188 324 670 943 1770 2780
2020-12-31 23:00 2.34 343 3570 (2016) 140 (2001) 612 142 161 180 191 347 690 856 1390 3360
2020-12-31 22:00 2.34 343 3570 (2016) 140 (2001) 612 142 161 180 191 347 690 856 1390 3360
2020-12-31 21:00 2.36 350 3570 (2016) 140 (2001) 612 142 161 180 191 347 690 856 1390 3360
2020-12-31 20:00 2.35 347 3570 (2016) 140 (2001) 612 142 161 180 191 347 690 856 1390 3360
2020-12-31 19:00 2.35 347 3570 (2016) 140 (2001) 612 142 161 180 191 347 690 856 1390 3360
2020-12-31 18:00 2.33 340 3570 (2016) 140 (2001) 612 142 161 180 191 347 690 856 1390 3360
2020-12-31 17:00 2.33 340 3570 (2016) 140 (2001) 612 142 161 180 191 347 690 856 1390 3360
2020-12-31 16:00 2.33 340 3570 (2016) 140 (2001) 612 142 161 180 191 347 690 856 1390 3360
2020-12-31 15:00 2.35 347 3570 (2016) 140 (2001) 612 142 161 180 191 347 690 856 1390 3360
2020-12-31 14:00 2.33 340 3570 (2016) 140 (2001) 612 142 161 180 191 347 690 856 1390 3360
2020-12-31 13:00 2.32 337 3570 (2016) 140 (2001) 612 142 161 180 191 347 690 856 1390 3360
2020-12-31 12:00 2.32 337 3570 (2016) 140 (2001) 612 142 161 180 191 347 690 856 1390 3360
2020-12-31 11:00 2.33 340 3570 (2016) 140 (2001) 612 142 161 180 191 347 690 856 1390 3360
2020-12-31 10:00 2.33 340 3570 (2016) 140 (2001) 612 142 161 180 191 347 690 856 1390 3360
2020-12-31 09:00 2.34 343 3570 (2016) 140 (2001) 612 142 161 180 191 347 690 856 1390 3360
2020-12-31 08:00 2.33 340 3570 (2016) 140 (2001) 612 142 161 180 191 347 690 856 1390 3360
2020-12-31 07:00 2.34 343 3570 (2016) 140 (2001) 612 142 161 180 191 347 690 856 1390 3360
2020-12-31 06:00 2.34 343 3570 (2016) 140 (2001) 612 142 161 180 191 347 690 856 1390 3360
2020-12-31 05:00 2.33 340 3570 (2016) 140 (2001) 612 142 161 180 191 347 690 856 1390 3360
2020-12-31 04:00 2.35 347 3570 (2016) 140 (2001) 612 142 161 180 191 347 690 856 1390 3360
2020-12-31 03:00 2.35 347 3570 (2016) 140 (2001) 612 142 161 180 191 347 690 856 1390 3360
2020-12-31 02:00 2.34 343 3570 (2016) 140 (2001) 612 142 161 180 191 347 690 856 1390 3360
2020-12-31 01:00 2.35 347 3570 (2016) 140 (2001) 612 142 161 180 191 347 690 856 1390 3360
2020-12-31 00:00 2.34 343 3570 (2016) 140 (2001) 612 142 161 180 191 347 690 856 1390 3360
2020-12-30 23:00 2.34 343 5900 (2016) 142 (2001) 757 144 164 183 194 324 719 1010 1730 5490
2020-12-30 22:00 2.36 350 5900 (2016) 142 (2001) 757 144 164 183 194 324 719 1010 1730 5490
2020-12-30 21:00 2.34 343 5900 (2016) 142 (2001) 757 144 164 183 194 324 719 1010 1730 5490
2020-12-30 20:00 2.34 343 5900 (2016) 142 (2001) 757 144 164 183 194 324 719 1010 1730 5490
2020-12-30 19:00 2.34 343 5900 (2016) 142 (2001) 757 144 164 183 194 324 719 1010 1730 5490
2020-12-30 18:00 2.33 340 5900 (2016) 142 (2001) 757 144 164 183 194 324 719 1010 1730 5490
2020-12-30 17:00 2.34 343 5900 (2016) 142 (2001) 757 144 164 183 194 324 719 1010 1730 5490
2020-12-30 16:00 2.34 343 5900 (2016) 142 (2001) 757 144 164 183 194 324 719 1010 1730 5490
2020-12-30 15:00 2.33 340 5900 (2016) 142 (2001) 757 144 164 183 194 324 719 1010 1730 5490
2020-12-30 14:00 2.34 343 5900 (2016) 142 (2001) 757 144 164 183 194 324 719 1010 1730 5490
2020-12-30 13:00 2.35 347 5900 (2016) 142 (2001) 757 144 164 183 194 324 719 1010 1730 5490
2020-12-30 12:00 2.34 343 5900 (2016) 142 (2001) 757 144 164 183 194 324 719 1010 1730 5490
2020-12-30 11:00 2.34 343 5900 (2016) 142 (2001) 757 144 164 183 194 324 719 1010 1730 5490
2020-12-30 10:00 2.34 343 5900 (2016) 142 (2001) 757 144 164 183 194 324 719 1010 1730 5490
2020-12-30 09:00 2.35 347 5900 (2016) 142 (2001) 757 144 164 183 194 324 719 1010 1730 5490
2020-12-30 08:00 2.32 337 5900 (2016) 142 (2001) 757 144 164 183 194 324 719 1010 1730 5490
2020-12-30 07:00 2.34 343 5900 (2016) 142 (2001) 757 144 164 183 194 324 719 1010 1730 5490
2020-12-30 06:00 2.33 340 5900 (2016) 142 (2001) 757 144 164 183 194 324 719 1010 1730 5490
2020-12-30 05:00 2.33 340 5900 (2016) 142 (2001) 757 144 164 183 194 324 719 1010 1730 5490
2020-12-30 04:00 2.33 340 5900 (2016) 142 (2001) 757 144 164 183 194 324 719 1010 1730 5490
2020-12-30 03:00 2.32 337 5900 (2016) 142 (2001) 757 144 164 183 194 324 719 1010 1730 5490
2020-12-30 02:00 2.31 334 5900 (2016) 142 (2001) 757 144 164 183 194 324 719 1010 1730 5490
2020-12-30 01:00 2.30 330 5900 (2016) 142 (2001) 757 144 164 183 194 324 719 1010 1730 5490
2020-12-30 00:00 2.31 334 5900 (2016) 142 (2001) 757 144 164 183 194 324 719 1010 1730 5490
2020-12-29 23:00 2.32 337 38800 (2016) 144 (2001) 2360 146 165 185 196 325 678 807 2410 35200
2020-12-29 22:00 2.31 334 38800 (2016) 144 (2001) 2360 146 165 185 196 325 678 807 2410 35200
2020-12-29 21:00 2.34 343 38800 (2016) 144 (2001) 2360 146 165 185 196 325 678 807 2410 35200
2020-12-29 20:00 2.34 343 38800 (2016) 144 (2001) 2360 146 165 185 196 325 678 807 2410 35200
2020-12-29 19:00 2.33 340 38800 (2016) 144 (2001) 2360 146 165 185 196 325 678 807 2410 35200
2020-12-29 18:00 2.33 340 38800 (2016) 144 (2001) 2360 146 165 185 196 325 678 807 2410 35200
2020-12-29 17:00 2.34 343 38800 (2016) 144 (2001) 2360 146 165 185 196 325 678 807 2410 35200
2020-12-29 16:00 2.33 340 38800 (2016) 144 (2001) 2360 146 165 185 196 325 678 807 2410 35200
2020-12-29 15:00 2.34 343 38800 (2016) 144 (2001) 2360 146 165 185 196 325 678 807 2410 35200
2020-12-29 14:00 2.32 337 38800 (2016) 144 (2001) 2360 146 165 185 196 325 678 807 2410 35200
2020-12-29 13:00 2.32 337 38800 (2016) 144 (2001) 2360 146 165 185 196 325 678 807 2410 35200
2020-12-29 12:00 2.33 340 38800 (2016) 144 (2001) 2360 146 165 185 196 325 678 807 2410 35200
2020-12-29 11:00 2.31 334 38800 (2016) 144 (2001) 2360 146 165 185 196 325 678 807 2410 35200
2020-12-29 10:00 2.32 337 38800 (2016) 144 (2001) 2360 146 165 185 196 325 678 807 2410 35200
2020-12-29 09:00 2.33 340 38800 (2016) 144 (2001) 2360 146 165 185 196 325 678 807 2410 35200
2020-12-29 08:00 2.32 337 38800 (2016) 144 (2001) 2360 146 165 185 196 325 678 807 2410 35200
2020-12-29 07:00 2.33 340 38800 (2016) 144 (2001) 2360 146 165 185 196 325 678 807 2410 35200
2020-12-29 06:00 2.33 340 38800 (2016) 144 (2001) 2360 146 165 185 196 325 678 807 2410 35200
2020-12-29 05:00 2.33 340 38800 (2016) 144 (2001) 2360 146 165 185 196 325 678 807 2410 35200
2020-12-29 04:00 2.32 337 38800 (2016) 144 (2001) 2360 146 165 185 196 325 678 807 2410 35200
2020-12-29 03:00 2.32 337 38800 (2016) 144 (2001) 2360 146 165 185 196 325 678 807 2410 35200
2020-12-29 02:00 2.32 337 38800 (2016) 144 (2001) 2360 146 165 185 196 325 678 807 2410 35200
2020-12-29 01:00 2.33 340 38800 (2016) 144 (2001) 2360 146 165 185 196 325 678 807 2410 35200
2020-12-29 00:00 2.33 340 38800 (2016) 144 (2001) 2360 146 165 185 196 325 678 807 2410 35200
2020-12-28 23:00 2.34 343 22800 (2016) 147 (2001) 1560 149 167 187 198 338 637 804 2020 20700
2020-12-28 22:00 2.35 347 22800 (2016) 147 (2001) 1560 149 167 187 198 338 637 804 2020 20700
2020-12-28 21:00 2.34 343 22800 (2016) 147 (2001) 1560 149 167 187 198 338 637 804 2020 20700
2020-12-28 20:00 2.33 340 22800 (2016) 147 (2001) 1560 149 167 187 198 338 637 804 2020 20700
2020-12-28 19:00 2.32 337 22800 (2016) 147 (2001) 1560 149 167 187 198 338 637 804 2020 20700
2020-12-28 18:00 2.33 340 22800 (2016) 147 (2001) 1560 149 167 187 198 338 637 804 2020 20700
2020-12-28 17:00 2.33 340 22800 (2016) 147 (2001) 1560 149 167 187 198 338 637 804 2020 20700
2020-12-28 16:00 2.35 347 22800 (2016) 147 (2001) 1560 149 167 187 198 338 637 804 2020 20700
2020-12-28 15:00 2.35 347 22800 (2016) 147 (2001) 1560 149 167 187 198 338 637 804 2020 20700
2020-12-28 14:00 2.35 347 22800 (2016) 147 (2001) 1560 149 167 187 198 338 637 804 2020 20700
2020-12-28 13:00 2.36 350 22800 (2016) 147 (2001) 1560 149 167 187 198 338 637 804 2020 20700
2020-12-28 12:00 2.34 343 22800 (2016) 147 (2001) 1560 149 167 187 198 338 637 804 2020 20700
2020-12-28 11:00 2.32 337 22800 (2016) 147 (2001) 1560 149 167 187 198 338 637 804 2020 20700
2020-12-28 10:00 2.33 340 22800 (2016) 147 (2001) 1560 149 167 187 198 338 637 804 2020 20700
2020-12-28 09:00 2.33 340 22800 (2016) 147 (2001) 1560 149 167 187 198 338 637 804 2020 20700
2020-12-28 08:00 2.34 343 22800 (2016) 147 (2001) 1560 149 167 187 198 338 637 804 2020 20700
2020-12-28 07:00 2.34 343 22800 (2016) 147 (2001) 1560 149 167 187 198 338 637 804 2020 20700
2020-12-28 06:00 2.34 343 22800 (2016) 147 (2001) 1560 149 167 187 198 338 637 804 2020 20700
2020-12-28 05:00 2.34 343 22800 (2016) 147 (2001) 1560 149 167 187 198 338 637 804 2020 20700
2020-12-28 04:00 2.36 350 22800 (2016) 147 (2001) 1560 149 167 187 198 338 637 804 2020 20700
2020-12-28 03:00 2.34 343 22800 (2016) 147 (2001) 1560 149 167 187 198 338 637 804 2020 20700
2020-12-28 02:00 2.35 347 22800 (2016) 147 (2001) 1560 149 167 187 198 338 637 804 2020 20700
2020-12-28 01:00 2.35 347 22800 (2016) 147 (2001) 1560 149 167 187 198 338 637 804 2020 20700
2020-12-28 00:00 2.34 343 22800 (2016) 147 (2001) 1560 149 167 187 198 338 637 804 2020 20700
2020-12-27 23:00 2.33 340 12300 (2016) 149 (2001) 953 151 170 190 202 322 543 622 1030 11200
2020-12-27 22:00 2.33 340 12300 (2016) 149 (2001) 953 151 170 190 202 322 543 622 1030 11200
2020-12-27 21:00 2.33 340 12300 (2016) 149 (2001) 953 151 170 190 202 322 543 622 1030 11200
2020-12-27 20:00 2.34 343 12300 (2016) 149 (2001) 953 151 170 190 202 322 543 622 1030 11200
2020-12-27 19:00 2.34 343 12300 (2016) 149 (2001) 953 151 170 190 202 322 543 622 1030 11200
2020-12-27 18:00 2.34 343 12300 (2016) 149 (2001) 953 151 170 190 202 322 543 622 1030 11200
2020-12-27 17:00 2.36 350 12300 (2016) 149 (2001) 953 151 170 190 202 322 543 622 1030 11200
2020-12-27 16:00 2.37 353 12300 (2016) 149 (2001) 953 151 170 190 202 322 543 622 1030 11200
2020-12-27 15:00 2.36 350 12300 (2016) 149 (2001) 953 151 170 190 202 322 543 622 1030 11200
2020-12-27 14:00 2.35 347 12300 (2016) 149 (2001) 953 151 170 190 202 322 543 622 1030 11200
2020-12-27 13:00 2.36 350 12300 (2016) 149 (2001) 953 151 170 190 202 322 543 622 1030 11200
2020-12-27 12:00 2.34 343 12300 (2016) 149 (2001) 953 151 170 190 202 322 543 622 1030 11200
2020-12-27 11:00 2.34 343 12300 (2016) 149 (2001) 953 151 170 190 202 322 543 622 1030 11200
2020-12-27 10:00 2.34 343 12300 (2016) 149 (2001) 953 151 170 190 202 322 543 622 1030 11200
2020-12-27 09:00 2.36 350 12300 (2016) 149 (2001) 953 151 170 190 202 322 543 622 1030 11200
2020-12-27 08:00 2.36 350 12300 (2016) 149 (2001) 953 151 170 190 202 322 543 622 1030 11200
2020-12-27 07:00 2.36 350 12300 (2016) 149 (2001) 953 151 170 190 202 322 543 622 1030 11200
2020-12-27 06:00 2.36 350 12300 (2016) 149 (2001) 953 151 170 190 202 322 543 622 1030 11200
2020-12-27 05:00 2.37 353 12300 (2016) 149 (2001) 953 151 170 190 202 322 543 622 1030 11200
2020-12-27 04:00 2.37 353 12300 (2016) 149 (2001) 953 151 170 190 202 322 543 622 1030 11200
2020-12-27 03:00 2.35 347 12300 (2016) 149 (2001) 953 151 170 190 202 322 543 622 1030 11200
2020-12-27 02:00 2.35 347 12300 (2016) 149 (2001) 953 151 170 190 202 322 543 622 1030 11200
2020-12-27 01:00 2.35 347 12300 (2016) 149 (2001) 953 151 170 190 202 322 543 622 1030 11200
2020-12-27 00:00 2.36 350 12300 (2016) 149 (2001) 953 151 170 190 202 322 543 622 1030 11200
2020-12-26 23:00 2.36 350 2240 (2016) 152 (2001) 478 154 171 192 206 320 549 670 930 2110
2020-12-26 22:00 2.36 350 2240 (2016) 152 (2001) 478 154 171 192 206 320 549 670 930 2110
2020-12-26 21:00 2.37 353 2240 (2016) 152 (2001) 478 154 171 192 206 320 549 670 930 2110
2020-12-26 20:00 2.36 350 2240 (2016) 152 (2001) 478 154 171 192 206 320 549 670 930 2110
2020-12-26 19:00 2.36 350 2240 (2016) 152 (2001) 478 154 171 192 206 320 549 670 930 2110
2020-12-26 18:00 2.38 357 2240 (2016) 152 (2001) 478 154 171 192 206 320 549 670 930 2110
2020-12-26 17:00 2.38 357 2240 (2016) 152 (2001) 478 154 171 192 206 320 549 670 930 2110
2020-12-26 16:00 2.38 357 2240 (2016) 152 (2001) 478 154 171 192 206 320 549 670 930 2110
2020-12-26 15:00 2.37 353 2240 (2016) 152 (2001) 478 154 171 192 206 320 549 670 930 2110
2020-12-26 14:00 2.37 353 2240 (2016) 152 (2001) 478 154 171 192 206 320 549 670 930 2110
2020-12-26 13:00 2.37 353 2240 (2016) 152 (2001) 478 154 171 192 206 320 549 670 930 2110
2020-12-26 12:00 2.38 357 2240 (2016) 152 (2001) 478 154 171 192 206 320 549 670 930 2110
2020-12-26 11:00 2.38 357 2240 (2016) 152 (2001) 478 154 171 192 206 320 549 670 930 2110
2020-12-26 10:00 2.40 363 2240 (2016) 152 (2001) 478 154 171 192 206 320 549 670 930 2110
2020-12-26 09:00 2.38 357 2240 (2016) 152 (2001) 478 154 171 192 206 320 549 670 930 2110
2020-12-26 08:00 2.39 360 2240 (2016) 152 (2001) 478 154 171 192 206 320 549 670 930 2110
2020-12-26 07:00 2.36 350 2240 (2016) 152 (2001) 478 154 171 192 206 320 549 670 930 2110
2020-12-26 06:00 2.37 353 2240 (2016) 152 (2001) 478 154 171 192 206 320 549 670 930 2110
2020-12-26 05:00 2.36 350 2240 (2016) 152 (2001) 478 154 171 192 206 320 549 670 930 2110
2020-12-26 04:00 2.38 357 2240 (2016) 152 (2001) 478 154 171 192 206 320 549 670 930 2110
2020-12-26 03:00 2.39 360 2240 (2016) 152 (2001) 478 154 171 192 206 320 549 670 930 2110
2020-12-26 02:00 2.39 360 2240 (2016) 152 (2001) 478 154 171 192 206 320 549 670 930 2110
2020-12-26 01:00 2.39 360 2240 (2016) 152 (2001) 478 154 171 192 206 320 549 670 930 2110
2020-12-26 00:00 2.37 353 2240 (2016) 152 (2001) 478 154 171 192 206 320 549 670 930 2110
2020-12-25 23:00 2.38 357 1350 (2016) 155 (2001) 443 157 173 192 199 331 578 624 985 1320
2020-12-25 22:00 2.38 357 1350 (2016) 155 (2001) 443 157 173 192 199 331 578 624 985 1320
2020-12-25 21:00 2.39 360 1350 (2016) 155 (2001) 443 157 173 192 199 331 578 624 985 1320
2020-12-25 20:00 2.39 360 1350 (2016) 155 (2001) 443 157 173 192 199 331 578 624 985 1320
2020-12-25 19:00 2.39 360 1350 (2016) 155 (2001) 443 157 173 192 199 331 578 624 985 1320
2020-12-25 18:00 2.40 363 1350 (2016) 155 (2001) 443 157 173 192 199 331 578 624 985 1320
2020-12-25 17:00 2.40 363 1350 (2016) 155 (2001) 443 157 173 192 199 331 578 624 985 1320
2020-12-25 16:00 2.40 363 1350 (2016) 155 (2001) 443 157 173 192 199 331 578 624 985 1320
2020-12-25 15:00 2.39 360 1350 (2016) 155 (2001) 443 157 173 192 199 331 578 624 985 1320
2020-12-25 14:00 2.39 360 1350 (2016) 155 (2001) 443 157 173 192 199 331 578 624 985 1320
2020-12-25 13:00 2.39 360 1350 (2016) 155 (2001) 443 157 173 192 199 331 578 624 985 1320
2020-12-25 12:00 2.38 357 1350 (2016) 155 (2001) 443 157 173 192 199 331 578 624 985 1320
2020-12-25 11:00 2.38 357 1350 (2016) 155 (2001) 443 157 173 192 199 331 578 624 985 1320
2020-12-25 10:00 2.38 357 1350 (2016) 155 (2001) 443 157 173 192 199 331 578 624 985 1320
2020-12-25 09:00 2.39 360 1350 (2016) 155 (2001) 443 157 173 192 199 331 578 624 985 1320
2020-12-25 08:00 2.40 363 1350 (2016) 155 (2001) 443 157 173 192 199 331 578 624 985 1320
2020-12-25 07:00 2.40 363 1350 (2016) 155 (2001) 443 157 173 192 199 331 578 624 985 1320
2020-12-25 06:00 2.41 367 1350 (2016) 155 (2001) 443 157 173 192 199 331 578 624 985 1320
2020-12-25 05:00 2.41 367 1350 (2016) 155 (2001) 443 157 173 192 199 331 578 624 985 1320
2020-12-25 04:00 2.38 357 1350 (2016) 155 (2001) 443 157 173 192 199 331 578 624 985 1320
2020-12-25 03:00 2.39 360 1350 (2016) 155 (2001) 443 157 173 192 199 331 578 624 985 1320
2020-12-25 02:00 2.41 367 1350 (2016) 155 (2001) 443 157 173 192 199 331 578 624 985 1320
2020-12-25 01:00 2.39 360 1350 (2016) 155 (2001) 443 157 173 192 199 331 578 624 985 1320
2020-12-25 00:00 2.40 363 1350 (2016) 155 (2001) 443 157 173 192 199 331 578 624 985 1320
2020-12-24 23:00 2.40 363 1410 (2014) 158 (2001) 459 160 177 188 198 349 649 721 1060 1380
2020-12-24 22:00 2.39 360 1410 (2014) 158 (2001) 459 160 177 188 198 349 649 721 1060 1380
2020-12-24 21:00 2.40 363 1410 (2014) 158 (2001) 459 160 177 188 198 349 649 721 1060 1380
2020-12-24 20:00 2.41 367 1410 (2014) 158 (2001) 459 160 177 188 198 349 649 721 1060 1380
2020-12-24 19:00 2.42 370 1410 (2014) 158 (2001) 459 160 177 188 198 349 649 721 1060 1380
2020-12-24 18:00 2.42 370 1410 (2014) 158 (2001) 459 160 177 188 198 349 649 721 1060 1380
2020-12-24 17:00 2.41 367 1410 (2014) 158 (2001) 459 160 177 188 198 349 649 721 1060 1380
2020-12-24 16:00 2.41 367 1410 (2014) 158 (2001) 459 160 177 188 198 349 649 721 1060 1380
2020-12-24 15:00 2.42 370 1410 (2014) 158 (2001) 459 160 177 188 198 349 649 721 1060 1380
2020-12-24 14:00 2.40 363 1410 (2014) 158 (2001) 459 160 177 188 198 349 649 721 1060 1380
2020-12-24 13:00 2.41 367 1410 (2014) 158 (2001) 459 160 177 188 198 349 649 721 1060 1380
2020-12-24 12:00 2.41 367 1410 (2014) 158 (2001) 459 160 177 188 198 349 649 721 1060 1380
2020-12-24 11:00 2.40 363 1410 (2014) 158 (2001) 459 160 177 188 198 349 649 721 1060 1380
2020-12-24 10:00 2.39 360 1410 (2014) 158 (2001) 459 160 177 188 198 349 649 721 1060 1380
2020-12-24 09:00 2.40 363 1410 (2014) 158 (2001) 459 160 177 188 198 349 649 721 1060 1380
2020-12-24 08:00 2.40 363 1410 (2014) 158 (2001) 459 160 177 188 198 349 649 721 1060 1380
2020-12-24 07:00 2.38 357 1410 (2014) 158 (2001) 459 160 177 188 198 349 649 721 1060 1380
2020-12-24 06:00 2.41 367 1410 (2014) 158 (2001) 459 160 177 188 198 349 649 721 1060 1380
2020-12-24 05:00 2.39 360 1410 (2014) 158 (2001) 459 160 177 188 198 349 649 721 1060 1380
2020-12-24 04:00 2.41 367 1410 (2014) 158 (2001) 459 160 177 188 198 349 649 721 1060 1380
2020-12-24 03:00 2.42 370 1410 (2014) 158 (2001) 459 160 177 188 198 349 649 721 1060 1380
2020-12-24 02:00 2.41 367 1410 (2014) 158 (2001) 459 160 177 188 198 349 649 721 1060 1380
2020-12-24 01:00 2.43 374 1410 (2014) 158 (2001) 459 160 177 188 198 349 649 721 1060 1380
2020-12-24 00:00 2.41 367 1410 (2014) 158 (2001) 459 160 177 188 198 349 649 721 1060 1380
2020-12-23 23:00 2.41 367 2340 (2014) 160 (2001) 494 162 179 188 196 368 672 738 881 2200
2020-12-23 22:00 2.41 367 2340 (2014) 160 (2001) 494 162 179 188 196 368 672 738 881 2200
2020-12-23 21:00 2.43 374 2340 (2014) 160 (2001) 494 162 179 188 196 368 672 738 881 2200
2020-12-23 20:00 2.43 374 2340 (2014) 160 (2001) 494 162 179 188 196 368 672 738 881 2200
2020-12-23 19:00 2.43 374 2340 (2014) 160 (2001) 494 162 179 188 196 368 672 738 881 2200
2020-12-23 18:00 2.44 377 2340 (2014) 160 (2001) 494 162 179 188 196 368 672 738 881 2200
2020-12-23 17:00 2.42 370 2340 (2014) 160 (2001) 494 162 179 188 196 368 672 738 881 2200
2020-12-23 16:00 2.43 374 2340 (2014) 160 (2001) 494 162 179 188 196 368 672 738 881 2200
2020-12-23 15:00 2.45 381 2340 (2014) 160 (2001) 494 162 179 188 196 368 672 738 881 2200
2020-12-23 14:00 2.43 374 2340 (2014) 160 (2001) 494 162 179 188 196 368 672 738 881 2200
2020-12-23 13:00 2.41 367 2340 (2014) 160 (2001) 494 162 179 188 196 368 672 738 881 2200
2020-12-23 12:00 2.42 370 2340 (2014) 160 (2001) 494 162 179 188 196 368 672 738 881 2200
2020-12-23 11:00 2.42 370 2340 (2014) 160 (2001) 494 162 179 188 196 368 672 738 881 2200
2020-12-23 10:00 2.39 360 2340 (2014) 160 (2001) 494 162 179 188 196 368 672 738 881 2200
2020-12-23 09:00 2.44 377 2340 (2014) 160 (2001) 494 162 179 188 196 368 672 738 881 2200
2020-12-23 08:00 2.44 377 2340 (2014) 160 (2001) 494 162 179 188 196 368 672 738 881 2200
2020-12-23 07:00 2.44 377 2340 (2014) 160 (2001) 494 162 179 188 196 368 672 738 881 2200
2020-12-23 06:00 2.44 377 2340 (2014) 160 (2001) 494 162 179 188 196 368 672 738 881 2200
2020-12-23 05:00 2.43 374 2340 (2014) 160 (2001) 494 162 179 188 196 368 672 738 881 2200
2020-12-23 04:00 2.43 374 2340 (2014) 160 (2001) 494 162 179 188 196 368 672 738 881 2200
2020-12-23 03:00 2.41 367 2340 (2014) 160 (2001) 494 162 179 188 196 368 672 738 881 2200
2020-12-23 02:00 2.43 374 2340 (2014) 160 (2001) 494 162 179 188 196 368 672 738 881 2200
2020-12-23 01:00 2.42 370 2340 (2014) 160 (2001) 494 162 179 188 196 368 672 738 881 2200
2020-12-23 00:00 2.43 374 2340 (2014) 160 (2001) 494 162 179 188 196 368 672 738 881 2200
2020-12-22 23:00 2.45 381 2350 (2014) 163 (2001) 508 165 179 185 189 386 659 765 1060 2230
2020-12-22 22:00 2.43 374 2350 (2014) 163 (2001) 508 165 179 185 189 386 659 765 1060 2230
2020-12-22 21:00 2.43 374 2350 (2014) 163 (2001) 508 165 179 185 189 386 659 765 1060 2230
2020-12-22 20:00 2.42 370 2350 (2014) 163 (2001) 508 165 179 185 189 386 659 765 1060 2230
2020-12-22 19:00 2.43 374 2350 (2014) 163 (2001) 508 165 179 185 189 386 659 765 1060 2230
2020-12-22 18:00 2.41 367 2350 (2014) 163 (2001) 508 165 179 185 189 386 659 765 1060 2230
2020-12-22 17:00 2.42 370 2350 (2014) 163 (2001) 508 165 179 185 189 386 659 765 1060 2230
2020-12-22 16:00 2.43 374 2350 (2014) 163 (2001) 508 165 179 185 189 386 659 765 1060 2230
2020-12-22 15:00 2.43 374 2350 (2014) 163 (2001) 508 165 179 185 189 386 659 765 1060 2230
2020-12-22 14:00 2.45 381 2350 (2014) 163 (2001) 508 165 179 185 189 386 659 765 1060 2230
2020-12-22 13:00 2.43 374 2350 (2014) 163 (2001) 508 165 179 185 189 386 659 765 1060 2230
2020-12-22 12:00 2.45 381 2350 (2014) 163 (2001) 508 165 179 185 189 386 659 765 1060 2230
2020-12-22 11:00 2.43 374 2350 (2014) 163 (2001) 508 165 179 185 189 386 659 765 1060 2230
2020-12-22 10:00 2.45 381 2350 (2014) 163 (2001) 508 165 179 185 189 386 659 765 1060 2230
2020-12-22 09:00 2.44 377 2350 (2014) 163 (2001) 508 165 179 185 189 386 659 765 1060 2230
2020-12-22 08:00 2.45 381 2350 (2014) 163 (2001) 508 165 179 185 189 386 659 765 1060 2230
2020-12-22 07:00 2.43 374 2350 (2014) 163 (2001) 508 165 179 185 189 386 659 765 1060 2230
2020-12-22 06:00 2.44 377 2350 (2014) 163 (2001) 508 165 179 185 189 386 659 765 1060 2230
2020-12-22 05:00 2.44 377 2350 (2014) 163 (2001) 508 165 179 185 189 386 659 765 1060 2230
2020-12-22 04:00 2.43 374 2350 (2014) 163 (2001) 508 165 179 185 189 386 659 765 1060 2230
2020-12-22 03:00 2.43 374 2350 (2014) 163 (2001) 508 165 179 185 189 386 659 765 1060 2230
2020-12-22 02:00 2.44 377 2350 (2014) 163 (2001) 508 165 179 185 189 386 659 765 1060 2230
2020-12-22 01:00 2.45 381 2350 (2014) 163 (2001) 508 165 179 185 189 386 659 765 1060 2230
2020-12-22 00:00 2.45 381 2350 (2014) 163 (2001) 508 165 179 185 189 386 659 765 1060 2230
2020-12-21 23:00 2.45 381 1240 (2012) 168 (2001) 446 169 180 188 193 384 585 751 903 1210
2020-12-21 22:00 2.45 381 1240 (2012) 168 (2001) 446 169 180 188 193 384 585 751 903 1210
2020-12-21 21:00 2.45 381 1240 (2012) 168 (2001) 446 169 180 188 193 384 585 751 903 1210
2020-12-21 20:00 2.45 381 1240 (2012) 168 (2001) 446 169 180 188 193 384 585 751 903 1210
2020-12-21 19:00 2.45 381 1240 (2012) 168 (2001) 446 169 180 188 193 384 585 751 903 1210
2020-12-21 18:00 2.45 381 1240 (2012) 168 (2001) 446 169 180 188 193 384 585 751 903 1210
2020-12-21 17:00 2.47 388 1240 (2012) 168 (2001) 446 169 180 188 193 384 585 751 903 1210
2020-12-21 16:00 2.47 388 1240 (2012) 168 (2001) 446 169 180 188 193 384 585 751 903 1210
2020-12-21 15:00 2.47 388 1240 (2012) 168 (2001) 446 169 180 188 193 384 585 751 903 1210
2020-12-21 14:00 2.45 381 1240 (2012) 168 (2001) 446 169 180 188 193 384 585 751 903 1210
2020-12-21 13:00 2.47 388 1240 (2012) 168 (2001) 446 169 180 188 193 384 585 751 903 1210
2020-12-21 12:00 2.45 381 1240 (2012) 168 (2001) 446 169 180 188 193 384 585 751 903 1210
2020-12-21 11:00 2.45 381 1240 (2012) 168 (2001) 446 169 180 188 193 384 585 751 903 1210
2020-12-21 10:00 2.44 377 1240 (2012) 168 (2001) 446 169 180 188 193 384 585 751 903 1210
2020-12-21 09:00 2.45 381 1240 (2012) 168 (2001) 446 169 180 188 193 384 585 751 903 1210
2020-12-21 08:00 2.44 377 1240 (2012) 168 (2001) 446 169 180 188 193 384 585 751 903 1210
2020-12-21 07:00 2.45 381 1240 (2012) 168 (2001) 446 169 180 188 193 384 585 751 903 1210
2020-12-21 06:00 2.47 388 1240 (2012) 168 (2001) 446 169 180 188 193 384 585 751 903 1210
2020-12-21 05:00 2.46 384 1240 (2012) 168 (2001) 446 169 180 188 193 384 585 751 903 1210
2020-12-21 04:00 2.47 388 1240 (2012) 168 (2001) 446 169 180 188 193 384 585 751 903 1210
2020-12-21 03:00 2.46 384 1240 (2012) 168 (2001) 446 169 180 188 193 384 585 751 903 1210
2020-12-21 02:00 2.45 381 1240 (2012) 168 (2001) 446 169 180 188 193 384 585 751 903 1210
2020-12-21 01:00 2.47 388 1240 (2012) 168 (2001) 446 169 180 188 193 384 585 751 903 1210
2020-12-21 00:00 2.48 391 1240 (2012) 168 (2001) 446 169 180 188 193 384 585 751 903 1210
2020-12-20 23:00 2.45 381 1150 (2002) 171 (2001) 438 172 181 190 201 357 573 646 975 1130
2020-12-20 22:00 2.46 384 1150 (2002) 171 (2001) 438 172 181 190 201 357 573 646 975 1130
2020-12-20 21:00 2.47 388 1150 (2002) 171 (2001) 438 172 181 190 201 357 573 646 975 1130
2020-12-20 20:00 2.46 384 1150 (2002) 171 (2001) 438 172 181 190 201 357 573 646 975 1130
2020-12-20 19:00 2.47 388 1150 (2002) 171 (2001) 438 172 181 190 201 357 573 646 975 1130
2020-12-20 18:00 2.48 391 1150 (2002) 171 (2001) 438 172 181 190 201 357 573 646 975 1130
2020-12-20 17:00 2.48 391 1150 (2002) 171 (2001) 438 172 181 190 201 357 573 646 975 1130
2020-12-20 16:00 2.46 384 1150 (2002) 171 (2001) 438 172 181 190 201 357 573 646 975 1130
2020-12-20 15:00 2.48 391 1150 (2002) 171 (2001) 438 172 181 190 201 357 573 646 975 1130
2020-12-20 14:00 2.45 381 1150 (2002) 171 (2001) 438 172 181 190 201 357 573 646 975 1130
2020-12-20 13:00 2.46 384 1150 (2002) 171 (2001) 438 172 181 190 201 357 573 646 975 1130
2020-12-20 12:00 2.47 388 1150 (2002) 171 (2001) 438 172 181 190 201 357 573 646 975 1130
2020-12-20 11:00 2.47 388 1150 (2002) 171 (2001) 438 172 181 190 201 357 573 646 975 1130
2020-12-20 10:00 2.47 388 1150 (2002) 171 (2001) 438 172 181 190 201 357 573 646 975 1130
2020-12-20 09:00 2.48 391 1150 (2002) 171 (2001) 438 172 181 190 201 357 573 646 975 1130
2020-12-20 08:00 2.46 384 1150 (2002) 171 (2001) 438 172 181 190 201 357 573 646 975 1130
2020-12-20 07:00 2.48 391 1150 (2002) 171 (2001) 438 172 181 190 201 357 573 646 975 1130
2020-12-20 06:00 2.48 391 1150 (2002) 171 (2001) 438 172 181 190 201 357 573 646 975 1130
2020-12-20 05:00 2.48 391 1150 (2002) 171 (2001) 438 172 181 190 201 357 573 646 975 1130
2020-12-20 04:00 2.48 391 1150 (2002) 171 (2001) 438 172 181 190 201 357 573 646 975 1130
2020-12-20 03:00 2.47 388 1150 (2002) 171 (2001) 438 172 181 190 201 357 573 646 975 1130
2020-12-20 02:00 2.46 384 1150 (2002) 171 (2001) 438 172 181 190 201 357 573 646 975 1130
2020-12-20 01:00 2.46 384 1150 (2002) 171 (2001) 438 172 181 190 201 357 573 646 975 1130
2020-12-20 00:00 2.46 384 1150 (2002) 171 (2001) 438 172 181 190 201 357 573 646 975 1130
2020-12-19 23:00 2.49 395 1680 (2002) 179 (2001) 491 179 183 188 196 357 610 684 1160 1630
2020-12-19 22:00 2.46 384 1680 (2002) 179 (2001) 491 179 183 188 196 357 610 684 1160 1630
2020-12-19 21:00 2.46 384 1680 (2002) 179 (2001) 491 179 183 188 196 357 610 684 1160 1630
2020-12-19 20:00 2.48 391 1680 (2002) 179 (2001) 491 179 183 188 196 357 610 684 1160 1630
2020-12-19 19:00 2.48 391 1680 (2002) 179 (2001) 491 179 183 188 196 357 610 684 1160 1630
2020-12-19 18:00 2.48 391 1680 (2002) 179 (2001) 491 179 183 188 196 357 610 684 1160 1630
2020-12-19 17:00 2.47 388 1680 (2002) 179 (2001) 491 179 183 188 196 357 610 684 1160 1630
2020-12-19 16:00 2.46 384 1680 (2002) 179 (2001) 491 179 183 188 196 357 610 684 1160 1630
2020-12-19 15:00 2.49 395 1680 (2002) 179 (2001) 491 179 183 188 196 357 610 684 1160 1630
2020-12-19 14:00 2.49 395 1680 (2002) 179 (2001) 491 179 183 188 196 357 610 684 1160 1630
2020-12-19 13:00 2.49 395 1680 (2002) 179 (2001) 491 179 183 188 196 357 610 684 1160 1630
2020-12-19 12:00 2.48 391 1680 (2002) 179 (2001) 491 179 183 188 196 357 610 684 1160 1630
2020-12-19 11:00 2.47 388 1680 (2002) 179 (2001) 491 179 183 188 196 357 610 684 1160 1630
2020-12-19 10:00 2.48 391 1680 (2002) 179 (2001) 491 179 183 188 196 357 610 684 1160 1630
2020-12-19 09:00 2.49 395 1680 (2002) 179 (2001) 491 179 183 188 196 357 610 684 1160 1630
2020-12-19 08:00 2.49 395 1680 (2002) 179 (2001) 491 179 183 188 196 357 610 684 1160 1630
2020-12-19 07:00 2.49 395 1680 (2002) 179 (2001) 491 179 183 188 196 357 610 684 1160 1630
2020-12-19 06:00 2.49 395 1680 (2002) 179 (2001) 491 179 183 188 196 357 610 684 1160 1630
2020-12-19 05:00 2.50 399 1680 (2002) 179 (2001) 491 179 183 188 196 357 610 684 1160 1630
2020-12-19 04:00 2.48 391 1680 (2002) 179 (2001) 491 179 183 188 196 357 610 684 1160 1630
2020-12-19 03:00 2.50 399 1680 (2002) 179 (2001) 491 179 183 188 196 357 610 684 1160 1630
2020-12-19 02:00 2.52 406 1680 (2002) 179 (2001) 491 179 183 188 196 357 610 684 1160 1630
2020-12-19 01:00 2.51 402 1680 (2002) 179 (2001) 491 179 183 188 196 357 610 684 1160 1630
2020-12-19 00:00 2.50 399 1680 (2002) 179 (2001) 491 179 183 188 196 357 610 684 1160 1630
2020-12-18 23:00 2.50 399 5340 (2002) 185 (2018) 708 185 186 189 196 362 653 799 1520 4960
2020-12-18 22:00 2.48 391 5340 (2002) 185 (2018) 708 185 186 189 196 362 653 799 1520 4960
2020-12-18 21:00 2.49 395 5340 (2002) 185 (2018) 708 185 186 189 196 362 653 799 1520 4960
2020-12-18 20:00 2.52 406 5340 (2002) 185 (2018) 708 185 186 189 196 362 653 799 1520 4960
2020-12-18 19:00 2.51 402 5340 (2002) 185 (2018) 708 185 186 189 196 362 653 799 1520 4960
2020-12-18 18:00 2.51 402 5340 (2002) 185 (2018) 708 185 186 189 196 362 653 799 1520 4960
2020-12-18 17:00 2.50 399 5340 (2002) 185 (2018) 708 185 186 189 196 362 653 799 1520 4960
2020-12-18 16:00 2.52 406 5340 (2002) 185 (2018) 708 185 186 189 196 362 653 799 1520 4960
2020-12-18 15:00 2.52 406 5340 (2002) 185 (2018) 708 185 186 189 196 362 653 799 1520 4960
2020-12-18 14:00 2.51 402 5340 (2002) 185 (2018) 708 185 186 189 196 362 653 799 1520 4960
2020-12-18 13:00 2.50 399 5340 (2002) 185 (2018) 708 185 186 189 196 362 653 799 1520 4960
2020-12-18 12:00 2.50 399 5340 (2002) 185 (2018) 708 185 186 189 196 362 653 799 1520 4960
2020-12-18 11:00 2.49 395 5340 (2002) 185 (2018) 708 185 186 189 196 362 653 799 1520 4960
2020-12-18 10:00 2.50 399 5340 (2002) 185 (2018) 708 185 186 189 196 362 653 799 1520 4960
2020-12-18 09:00 2.52 406 5340 (2002) 185 (2018) 708 185 186 189 196 362 653 799 1520 4960
2020-12-18 08:00 2.52 406 5340 (2002) 185 (2018) 708 185 186 189 196 362 653 799 1520 4960
2020-12-18 07:00 2.52 406 5340 (2002) 185 (2018) 708 185 186 189 196 362 653 799 1520 4960
2020-12-18 06:00 2.51 402 5340 (2002) 185 (2018) 708 185 186 189 196 362 653 799 1520 4960
2020-12-18 05:45 2.53 409 5340 (2002) 185 (2018) 708 185 186 189 196 362 653 799 1520 4960
2020-12-18 05:00 2.52 406 5340 (2002) 185 (2018) 708 185 186 189 196 362 653 799 1520 4960
2020-12-18 04:00 2.52 406 5340 (2002) 185 (2018) 708 185 186 189 196 362 653 799 1520 4960
2020-12-18 03:00 2.54 413 5340 (2002) 185 (2018) 708 185 186 189 196 362 653 799 1520 4960
2020-12-18 02:00 2.53 409 5340 (2002) 185 (2018) 708 185 186 189 196 362 653 799 1520 4960
2020-12-18 01:00 2.52 406 5340 (2002) 185 (2018) 708 185 186 189 196 362 653 799 1520 4960
2020-12-18 00:00 2.52 406 5340 (2002) 185 (2018) 708 185 186 189 196 362 653 799 1520 4960
2020-12-17 23:00 2.51 402 3390 (2002) 183 (2018) 684 184 190 195 200 305 719 1010 2220 3280
2020-12-17 22:00 2.50 399 3390 (2002) 183 (2018) 684 184 190 195 200 305 719 1010 2220 3280
2020-12-17 21:00 2.53 409 3390 (2002) 183 (2018) 684 184 190 195 200 305 719 1010 2220 3280
2020-12-17 20:00 2.53 409 3390 (2002) 183 (2018) 684 184 190 195 200 305 719 1010 2220 3280
2020-12-17 19:00 2.53 409 3390 (2002) 183 (2018) 684 184 190 195 200 305 719 1010 2220 3280
2020-12-17 18:00 2.53 409 3390 (2002) 183 (2018) 684 184 190 195 200 305 719 1010 2220 3280
2020-12-17 17:00 2.52 406 3390 (2002) 183 (2018) 684 184 190 195 200 305 719 1010 2220 3280
2020-12-17 16:00 2.55 416 3390 (2002) 183 (2018) 684 184 190 195 200 305 719 1010 2220 3280
2020-12-17 15:00 2.55 416 3390 (2002) 183 (2018) 684 184 190 195 200 305 719 1010 2220 3280
2020-12-17 14:00 2.55 416 3390 (2002) 183 (2018) 684 184 190 195 200 305 719 1010 2220 3280
2020-12-17 13:00 2.56 420 3390 (2002) 183 (2018) 684 184 190 195 200 305 719 1010 2220 3280
2020-12-17 12:00 2.54 413 3390 (2002) 183 (2018) 684 184 190 195 200 305 719 1010 2220 3280
2020-12-17 11:00 2.56 420 3390 (2002) 183 (2018) 684 184 190 195 200 305 719 1010 2220 3280
2020-12-17 10:00 2.55 416 3390 (2002) 183 (2018) 684 184 190 195 200 305 719 1010 2220 3280
2020-12-17 09:00 2.54 413 3390 (2002) 183 (2018) 684 184 190 195 200 305 719 1010 2220 3280
2020-12-17 08:00 2.53 409 3390 (2002) 183 (2018) 684 184 190 195 200 305 719 1010 2220 3280
2020-12-17 07:00 2.55 416 3390 (2002) 183 (2018) 684 184 190 195 200 305 719 1010 2220 3280
2020-12-17 06:00 2.55 416 3390 (2002) 183 (2018) 684 184 190 195 200 305 719 1010 2220 3280
2020-12-17 05:00 2.54 413 3390 (2002) 183 (2018) 684 184 190 195 200 305 719 1010 2220 3280
2020-12-17 04:00 2.54 413 3390 (2002) 183 (2018) 684 184 190 195 200 305 719 1010 2220 3280
2020-12-17 03:00 2.55 416 3390 (2002) 183 (2018) 684 184 190 195 200 305 719 1010 2220 3280
2020-12-17 02:00 2.58 427 3390 (2002) 183 (2018) 684 184 190 195 200 305 719 1010 2220 3280
2020-12-17 01:00 2.54 413 3390 (2002) 183 (2018) 684 184 190 195 200 305 719 1010 2220 3280
2020-12-17 00:00 2.56 420 3390 (2002) 183 (2018) 684 184 190 195 200 305 719 1010 2220 3280
2020-12-16 23:00 2.55 416 3700 (2019) 183 (2018) 656 184 190 194 197 282 689 794 2290 3590
2020-12-16 22:00 2.53 409 3700 (2019) 183 (2018) 656 184 190 194 197 282 689 794 2290 3590
2020-12-16 21:00 2.56 420 3700 (2019) 183 (2018) 656 184 190 194 197 282 689 794 2290 3590
2020-12-16 20:00 2.53 409 3700 (2019) 183 (2018) 656 184 190 194 197 282 689 794 2290 3590
2020-12-16 19:00 2.55 416 3700 (2019) 183 (2018) 656 184 190 194 197 282 689 794 2290 3590
2020-12-16 18:00 2.55 416 3700 (2019) 183 (2018) 656 184 190 194 197 282 689 794 2290 3590
2020-12-16 17:00 2.54 413 3700 (2019) 183 (2018) 656 184 190 194 197 282 689 794 2290 3590
2020-12-16 16:00 2.56 420 3700 (2019) 183 (2018) 656 184 190 194 197 282 689 794 2290 3590
2020-12-16 15:00 2.56 420 3700 (2019) 183 (2018) 656 184 190 194 197 282 689 794 2290 3590
2020-12-16 14:00 2.54 413 3700 (2019) 183 (2018) 656 184 190 194 197 282 689 794 2290 3590
2020-12-16 13:00 2.57 424 3700 (2019) 183 (2018) 656 184 190 194 197 282 689 794 2290 3590
2020-12-16 12:00 2.57 424 3700 (2019) 183 (2018) 656 184 190 194 197 282 689 794 2290 3590
2020-12-16 11:00 2.57 424 3700 (2019) 183 (2018) 656 184 190 194 197 282 689 794 2290 3590
2020-12-16 10:00 2.57 424 3700 (2019) 183 (2018) 656 184 190 194 197 282 689 794 2290 3590
2020-12-16 09:00 2.56 420 3700 (2019) 183 (2018) 656 184 190 194 197 282 689 794 2290 3590
2020-12-16 08:00 2.56 420 3700 (2019) 183 (2018) 656 184 190 194 197 282 689 794 2290 3590
2020-12-16 07:00 2.56 420 3700 (2019) 183 (2018) 656 184 190 194 197 282 689 794 2290 3590
2020-12-16 06:00 2.54 413 3700 (2019) 183 (2018) 656 184 190 194 197 282 689 794 2290 3590
2020-12-16 05:00 2.56 420 3700 (2019) 183 (2018) 656 184 190 194 197 282 689 794 2290 3590
2020-12-16 04:00 2.57 424 3700 (2019) 183 (2018) 656 184 190 194 197 282 689 794 2290 3590
2020-12-16 03:00 2.56 420 3700 (2019) 183 (2018) 656 184 190 194 197 282 689 794 2290 3590
2020-12-16 02:00 2.58 427 3700 (2019) 183 (2018) 656 184 190 194 197 282 689 794 2290 3590
2020-12-16 01:00 2.57 424 3700 (2019) 183 (2018) 656 184 190 194 197 282 689 794 2290 3590
2020-12-16 00:00 2.57 424 3700 (2019) 183 (2018) 656 184 190 194 197 282 689 794 2290 3590
2020-12-15 23:00 2.58 427 4510 (2016) 182 (2018) 607 182 187 194 197 282 556 776 1190 4180
2020-12-15 22:00 2.56 420 4510 (2016) 182 (2018) 607 182 187 194 197 282 556 776 1190 4180
2020-12-15 21:00 2.58 427 4510 (2016) 182 (2018) 607 182 187 194 197 282 556 776 1190 4180
2020-12-15 20:00 2.56 420 4510 (2016) 182 (2018) 607 182 187 194 197 282 556 776 1190 4180
2020-12-15 19:00 2.56 420 4510 (2016) 182 (2018) 607 182 187 194 197 282 556 776 1190 4180
2020-12-15 18:00 2.55 416 4510 (2016) 182 (2018) 607 182 187 194 197 282 556 776 1190 4180
2020-12-15 17:00 2.56 420 4510 (2016) 182 (2018) 607 182 187 194 197 282 556 776 1190 4180
2020-12-15 16:00 2.58 427 4510 (2016) 182 (2018) 607 182 187 194 197 282 556 776 1190 4180
2020-12-15 15:00 2.58 427 4510 (2016) 182 (2018) 607 182 187 194 197 282 556 776 1190 4180
2020-12-15 14:00 2.58 427 4510 (2016) 182 (2018) 607 182 187 194 197 282 556 776 1190 4180
2020-12-15 13:00 2.57 424 4510 (2016) 182 (2018) 607 182 187 194 197 282 556 776 1190 4180
2020-12-15 12:00 2.57 424 4510 (2016) 182 (2018) 607 182 187 194 197 282 556 776 1190 4180
2020-12-15 11:00 2.56 420 4510 (2016) 182 (2018) 607 182 187 194 197 282 556 776 1190 4180
2020-12-15 10:00 2.56 420 4510 (2016) 182 (2018) 607 182 187 194 197 282 556 776 1190 4180
2020-12-15 09:00 2.57 424 4510 (2016) 182 (2018) 607 182 187 194 197 282 556 776 1190 4180
2020-12-15 08:00 2.60 434 4510 (2016) 182 (2018) 607 182 187 194 197 282 556 776 1190 4180
2020-12-15 07:00 2.59 431 4510 (2016) 182 (2018) 607 182 187 194 197 282 556 776 1190 4180
2020-12-15 05:30 2.57 424 4510 (2016) 182 (2018) 607 182 187 194 197 282 556 776 1190 4180
2020-12-15 05:00 2.58 427 4510 (2016) 182 (2018) 607 182 187 194 197 282 556 776 1190 4180
2020-12-15 04:00 2.56 420 4510 (2016) 182 (2018) 607 182 187 194 197 282 556 776 1190 4180
2020-12-15 03:00 2.56 420 4510 (2016) 182 (2018) 607 182 187 194 197 282 556 776 1190 4180
2020-12-15 02:00 2.57 424 4510 (2016) 182 (2018) 607 182 187 194 197 282 556 776 1190 4180
2020-12-15 01:00 2.59 431 4510 (2016) 182 (2018) 607 182 187 194 197 282 556 776 1190 4180
2020-12-15 00:00 2.58 427 4510 (2016) 182 (2018) 607 182 187 194 197 282 556 776 1190 4180
2020-12-14 23:00 2.56 420 2380 (2016) 182 (2018) 474 182 185 191 193 283 477 604 1120 2260
2020-12-14 22:00 2.57 424 2380 (2016) 182 (2018) 474 182 185 191 193 283 477 604 1120 2260
2020-12-14 21:00 2.58 427 2380 (2016) 182 (2018) 474 182 185 191 193 283 477 604 1120 2260
2020-12-14 20:00 2.59 431 2380 (2016) 182 (2018) 474 182 185 191 193 283 477 604 1120 2260
2020-12-14 19:00 2.59 431 2380 (2016) 182 (2018) 474 182 185 191 193 283 477 604 1120 2260
2020-12-14 18:00 2.58 427 2380 (2016) 182 (2018) 474 182 185 191 193 283 477 604 1120 2260
2020-12-14 17:00 2.58 427 2380 (2016) 182 (2018) 474 182 185 191 193 283 477 604 1120 2260
2020-12-14 16:00 2.59 431 2380 (2016) 182 (2018) 474 182 185 191 193 283 477 604 1120 2260
2020-12-14 15:00 2.59 431 2380 (2016) 182 (2018) 474 182 185 191 193 283 477 604 1120 2260
2020-12-14 14:00 2.59 431 2380 (2016) 182 (2018) 474 182 185 191 193 283 477 604 1120 2260
2020-12-14 13:00 2.58 427 2380 (2016) 182 (2018) 474 182 185 191 193 283 477 604 1120 2260
2020-12-14 12:00 2.58 427 2380 (2016) 182 (2018) 474 182 185 191 193 283 477 604 1120 2260
2020-12-14 11:00 2.57 424 2380 (2016) 182 (2018) 474 182 185 191 193 283 477 604 1120 2260
2020-12-14 10:00 2.58 416 2380 (2016) 182 (2018) 474 182 185 191 193 283 477 604 1120 2260
2020-12-14 09:00 2.59 419 2380 (2016) 182 (2018) 474 182 185 191 193 283 477 604 1120 2260
2020-12-14 08:00 2.59 419 2380 (2016) 182 (2018) 474 182 185 191 193 283 477 604 1120 2260
2020-12-14 07:00 2.59 419 2380 (2016) 182 (2018) 474 182 185 191 193 283 477 604 1120 2260
2020-12-14 06:00 2.58 416 2380 (2016) 182 (2018) 474 182 185 191 193 283 477 604 1120 2260
2020-12-14 05:00 2.57 412 2380 (2016) 182 (2018) 474 182 185 191 193 283 477 604 1120 2260
2020-12-14 04:30 2.59 419 2380 (2016) 182 (2018) 474 182 185 191 193 283 477 604 1120 2260
2020-12-14 04:00 2.58 416 2380 (2016) 182 (2018) 474 182 185 191 193 283 477 604 1120 2260
2020-12-14 03:00 2.60 423 2380 (2016) 182 (2018) 474 182 185 191 193 283 477 604 1120 2260
2020-12-14 02:00 2.59 419 2380 (2016) 182 (2018) 474 182 185 191 193 283 477 604 1120 2260
2020-12-14 01:00 2.58 416 2380 (2016) 182 (2018) 474 182 185 191 193 283 477 604 1120 2260
2020-12-14 00:00 2.58 416 2380 (2016) 182 (2018) 474 182 185 191 193 283 477 604 1120 2260
2020-12-13 23:00 2.58 416 1340 (2007) 164 (2001) 400 166 180 192 193 278 469 509 1110 1330
2020-12-13 22:00 2.59 419 1340 (2007) 164 (2001) 400 166 180 192 193 278 469 509 1110 1330
2020-12-13 21:00 2.57 412 1340 (2007) 164 (2001) 400 166 180 192 193 278 469 509 1110 1330
2020-12-13 20:00 2.58 416 1340 (2007) 164 (2001) 400 166 180 192 193 278 469 509 1110 1330
2020-12-13 19:00 2.59 419 1340 (2007) 164 (2001) 400 166 180 192 193 278 469 509 1110 1330
2020-12-13 18:00 2.60 423 1340 (2007) 164 (2001) 400 166 180 192 193 278 469 509 1110 1330
2020-12-13 17:00 2.60 423 1340 (2007) 164 (2001) 400 166 180 192 193 278 469 509 1110 1330
2020-12-13 16:00 2.60 423 1340 (2007) 164 (2001) 400 166 180 192 193 278 469 509 1110 1330
2020-12-13 15:00 2.59 419 1340 (2007) 164 (2001) 400 166 180 192 193 278 469 509 1110 1330
2020-12-13 14:00 2.59 419 1340 (2007) 164 (2001) 400 166 180 192 193 278 469 509 1110 1330
2020-12-13 13:00 2.60 423 1340 (2007) 164 (2001) 400 166 180 192 193 278 469 509 1110 1330
2020-12-13 12:00 2.60 423 1340 (2007) 164 (2001) 400 166 180 192 193 278 469 509 1110 1330
2020-12-13 11:00 2.58 416 1340 (2007) 164 (2001) 400 166 180 192 193 278 469 509 1110 1330
2020-12-13 10:00 2.61 427 1340 (2007) 164 (2001) 400 166 180 192 193 278 469 509 1110 1330
2020-12-13 09:00 2.60 423 1340 (2007) 164 (2001) 400 166 180 192 193 278 469 509 1110 1330
2020-12-13 08:00 2.58 416 1340 (2007) 164 (2001) 400 166 180 192 193 278 469 509 1110 1330
2020-12-13 07:00 2.59 419 1340 (2007) 164 (2001) 400 166 180 192 193 278 469 509 1110 1330
2020-12-13 06:00 2.59 419 1340 (2007) 164 (2001) 400 166 180 192 193 278 469 509 1110 1330
2020-12-13 05:00 2.59 419 1340 (2007) 164 (2001) 400 166 180 192 193 278 469 509 1110 1330
2020-12-13 04:00 2.60 423 1340 (2007) 164 (2001) 400 166 180 192 193 278 469 509 1110 1330
2020-12-13 03:00 2.57 412 1340 (2007) 164 (2001) 400 166 180 192 193 278 469 509 1110 1330
2020-12-13 02:00 2.58 416 1340 (2007) 164 (2001) 400 166 180 192 193 278 469 509 1110 1330
2020-12-13 01:00 2.56 409 1340 (2007) 164 (2001) 400 166 180 192 193 278 469 509 1110 1330
2020-12-13 00:00 2.57 412 1340 (2007) 164 (2001) 400 166 180 192 193 278 469 509 1110 1330
2020-12-12 23:00 2.57 412 1590 (2004) 154 (2001) 395 156 177 186 194 260 466 502 833 1520
2020-12-12 22:00 2.57 412 1590 (2004) 154 (2001) 395 156 177 186 194 260 466 502 833 1520
2020-12-12 21:00 2.58 416 1590 (2004) 154 (2001) 395 156 177 186 194 260 466 502 833 1520
2020-12-12 20:00 2.58 416 1590 (2004) 154 (2001) 395 156 177 186 194 260 466 502 833 1520
2020-12-12 19:00 2.56 409 1590 (2004) 154 (2001) 395 156 177 186 194 260 466 502 833 1520
2020-12-12 18:00 2.53 398 1590 (2004) 154 (2001) 395 156 177 186 194 260 466 502 833 1520
2020-12-12 17:00 2.55 405 1590 (2004) 154 (2001) 395 156 177 186 194 260 466 502 833 1520
2020-12-12 16:00 2.57 412 1590 (2004) 154 (2001) 395 156 177 186 194 260 466 502 833 1520
2020-12-12 15:00 2.58 416 1590 (2004) 154 (2001) 395 156 177 186 194 260 466 502 833 1520
2020-12-12 14:00 2.57 412 1590 (2004) 154 (2001) 395 156 177 186 194 260 466 502 833 1520
2020-12-12 13:00 2.58 416 1590 (2004) 154 (2001) 395 156 177 186 194 260 466 502 833 1520
2020-12-12 12:00 2.58 416 1590 (2004) 154 (2001) 395 156 177 186 194 260 466 502 833 1520
2020-12-12 11:00 2.58 416 1590 (2004) 154 (2001) 395 156 177 186 194 260 466 502 833 1520
2020-12-12 10:00 2.57 412 1590 (2004) 154 (2001) 395 156 177 186 194 260 466 502 833 1520
2020-12-12 09:00 2.56 409 1590 (2004) 154 (2001) 395 156 177 186 194 260 466 502 833 1520
2020-12-12 08:00 2.57 412 1590 (2004) 154 (2001) 395 156 177 186 194 260 466 502 833 1520
2020-12-12 07:00 2.57 412 1590 (2004) 154 (2001) 395 156 177 186 194 260 466 502 833 1520
2020-12-12 06:00 2.55 405 1590 (2004) 154 (2001) 395 156 177 186 194 260 466 502 833 1520
2020-12-12 05:00 2.57 412 1590 (2004) 154 (2001) 395 156 177 186 194 260 466 502 833 1520
2020-12-12 04:00 2.57 412 1590 (2004) 154 (2001) 395 156 177 186 194 260 466 502 833 1520
2020-12-12 03:00 2.58 416 1590 (2004) 154 (2001) 395 156 177 186 194 260 466 502 833 1520
2020-12-12 02:00 2.57 412 1590 (2004) 154 (2001) 395 156 177 186 194 260 466 502 833 1520
2020-12-12 01:00 2.57 412 1590 (2004) 154 (2001) 395 156 177 186 194 260 466 502 833 1520
2020-12-12 00:00 2.56 409 1590 (2004) 154 (2001) 395 156 177 186 194 260 466 502 833 1520
2020-12-11 23:00 2.57 412 3150 (2004) 149 (2001) 479 151 170 187 195 269 490 503 919 2940
2020-12-11 22:00 2.57 412 3150 (2004) 149 (2001) 479 151 170 187 195 269 490 503 919 2940
2020-12-11 21:00 2.57 412 3150 (2004) 149 (2001) 479 151 170 187 195 269 490 503 919 2940
2020-12-11 20:00 2.58 416 3150 (2004) 149 (2001) 479 151 170 187 195 269 490 503 919 2940
2020-12-11 19:00 2.56 409 3150 (2004) 149 (2001) 479 151 170 187 195 269 490 503 919 2940
2020-12-11 18:00 2.56 409 3150 (2004) 149 (2001) 479 151 170 187 195 269 490 503 919 2940
2020-12-11 17:00 2.55 405 3150 (2004) 149 (2001) 479 151 170 187 195 269 490 503 919 2940
2020-12-11 16:00 2.53 398 3150 (2004) 149 (2001) 479 151 170 187 195 269 490 503 919 2940
2020-12-11 15:00 2.54 402 3150 (2004) 149 (2001) 479 151 170 187 195 269 490 503 919 2940
2020-12-11 14:00 2.53 398 3150 (2004) 149 (2001) 479 151 170 187 195 269 490 503 919 2940
2020-12-11 13:00 2.54 402 3150 (2004) 149 (2001) 479 151 170 187 195 269 490 503 919 2940
2020-12-11 12:00 2.55 405 3150 (2004) 149 (2001) 479 151 170 187 195 269 490 503 919 2940
2020-12-11 11:00 2.54 402 3150 (2004) 149 (2001) 479 151 170 187 195 269 490 503 919 2940
2020-12-11 10:00 2.52 395 3150 (2004) 149 (2001) 479 151 170 187 195 269 490 503 919 2940
2020-12-11 09:00 2.54 402 3150 (2004) 149 (2001) 479 151 170 187 195 269 490 503 919 2940
2020-12-11 08:00 2.52 395 3150 (2004) 149 (2001) 479 151 170 187 195 269 490 503 919 2940
2020-12-11 07:00 2.55 405 3150 (2004) 149 (2001) 479 151 170 187 195 269 490 503 919 2940
2020-12-11 06:00 2.55 405 3150 (2004) 149 (2001) 479 151 170 187 195 269 490 503 919 2940
2020-12-11 05:00 2.56 409 3150 (2004) 149 (2001) 479 151 170 187 195 269 490 503 919 2940
2020-12-11 04:00 2.55 405 3150 (2004) 149 (2001) 479 151 170 187 195 269 490 503 919 2940
2020-12-11 03:00 2.56 409 3150 (2004) 149 (2001) 479 151 170 187 195 269 490 503 919 2940
2020-12-11 02:00 2.57 412 3150 (2004) 149 (2001) 479 151 170 187 195 269 490 503 919 2940
2020-12-11 01:00 2.55 405 3150 (2004) 149 (2001) 479 151 170 187 195 269 490 503 919 2940
2020-12-11 00:00 2.56 409 3150 (2004) 149 (2001) 479 151 170 187 195 269 490 503 919 2940
2020-12-10 23:00 2.55 405 1230 (2005) 144 (2001) 396 146 167 188 196 271 515 530 849 1200
2020-12-10 22:00 2.56 409 1230 (2005) 144 (2001) 396 146 167 188 196 271 515 530 849 1200
2020-12-10 21:00 2.55 405 1230 (2005) 144 (2001) 396 146 167 188 196 271 515 530 849 1200
2020-12-10 20:00 2.56 409 1230 (2005) 144 (2001) 396 146 167 188 196 271 515 530 849 1200
2020-12-10 19:00 2.55 405 1230 (2005) 144 (2001) 396 146 167 188 196 271 515 530 849 1200
2020-12-10 18:00 2.54 402 1230 (2005) 144 (2001) 396 146 167 188 196 271 515 530 849 1200
2020-12-10 17:00 2.55 405 1230 (2005) 144 (2001) 396 146 167 188 196 271 515 530 849 1200
2020-12-10 16:00 2.56 409 1230 (2005) 144 (2001) 396 146 167 188 196 271 515 530 849 1200
2020-12-10 15:00 2.56 409 1230 (2005) 144 (2001) 396 146 167 188 196 271 515 530 849 1200
2020-12-10 14:00 2.57 412 1230 (2005) 144 (2001) 396 146 167 188 196 271 515 530 849 1200
2020-12-10 13:00 2.57 412 1230 (2005) 144 (2001) 396 146 167 188 196 271 515 530 849 1200
2020-12-10 12:00 2.57 412 1230 (2005) 144 (2001) 396 146 167 188 196 271 515 530 849 1200
2020-12-10 11:00 2.57 412 1230 (2005) 144 (2001) 396 146 167 188 196 271 515 530 849 1200
2020-12-10 10:00 2.57 412 1230 (2005) 144 (2001) 396 146 167 188 196 271 515 530 849 1200
2020-12-10 09:00 2.57 412 1230 (2005) 144 (2001) 396 146 167 188 196 271 515 530 849 1200
2020-12-10 08:00 2.57 412 1230 (2005) 144 (2001) 396 146 167 188 196 271 515 530 849 1200
2020-12-10 07:00 2.58 416 1230 (2005) 144 (2001) 396 146 167 188 196 271 515 530 849 1200
2020-12-10 06:00 2.57 412 1230 (2005) 144 (2001) 396 146 167 188 196 271 515 530 849 1200
2020-12-10 05:00 2.59 419 1230 (2005) 144 (2001) 396 146 167 188 196 271 515 530 849 1200
2020-12-10 04:00 2.58 416 1230 (2005) 144 (2001) 396 146 167 188 196 271 515 530 849 1200
2020-12-10 03:00 2.57 412 1230 (2005) 144 (2001) 396 146 167 188 196 271 515 530 849 1200
2020-12-10 02:00 2.59 419 1230 (2005) 144 (2001) 396 146 167 188 196 271 515 530 849 1200
2020-12-10 01:00 2.57 412 1230 (2005) 144 (2001) 396 146 167 188 196 271 515 530 849 1200
2020-12-10 00:00 2.56 409 1230 (2005) 144 (2001) 396 146 167 188 196 271 515 530 849 1200
2020-12-09 23:00 2.59 419 1610 (2005) 146 (2008) 396 146 153 188 197 266 521 554 617 1510
2020-12-09 22:00 2.59 419 1610 (2005) 146 (2008) 396 146 153 188 197 266 521 554 617 1510
2020-12-09 21:00 2.59 419 1610 (2005) 146 (2008) 396 146 153 188 197 266 521 554 617 1510
2020-12-09 20:00 2.59 419 1610 (2005) 146 (2008) 396 146 153 188 197 266 521 554 617 1510
2020-12-09 19:00 2.59 419 1610 (2005) 146 (2008) 396 146 153 188 197 266 521 554 617 1510
2020-12-09 18:00 2.56 409 1610 (2005) 146 (2008) 396 146 153 188 197 266 521 554 617 1510
2020-12-09 17:00 2.59 419 1610 (2005) 146 (2008) 396 146 153 188 197 266 521 554 617 1510
2020-12-09 16:00 2.60 423 1610 (2005) 146 (2008) 396 146 153 188 197 266 521 554 617 1510
2020-12-09 15:00 2.58 416 1610 (2005) 146 (2008) 396 146 153 188 197 266 521 554 617 1510
2020-12-09 14:00 2.59 419 1610 (2005) 146 (2008) 396 146 153 188 197 266 521 554 617 1510
2020-12-09 13:00 2.60 423 1610 (2005) 146 (2008) 396 146 153 188 197 266 521 554 617 1510
2020-12-09 12:00 2.62 430 1610 (2005) 146 (2008) 396 146 153 188 197 266 521 554 617 1510
2020-12-09 11:00 2.61 427 1610 (2005) 146 (2008) 396 146 153 188 197 266 521 554 617 1510
2020-12-09 10:00 2.62 430 1610 (2005) 146 (2008) 396 146 153 188 197 266 521 554 617 1510
2020-12-09 09:00 2.61 427 1610 (2005) 146 (2008) 396 146 153 188 197 266 521 554 617 1510
2020-12-09 08:00 2.63 434 1610 (2005) 146 (2008) 396 146 153 188 197 266 521 554 617 1510
2020-12-09 07:00 2.62 430 1610 (2005) 146 (2008) 396 146 153 188 197 266 521 554 617 1510
2020-12-09 06:00 2.62 430 1610 (2005) 146 (2008) 396 146 153 188 197 266 521 554 617 1510
2020-12-09 05:00 2.62 430 1610 (2005) 146 (2008) 396 146 153 188 197 266 521 554 617 1510
2020-12-09 04:00 2.61 427 1610 (2005) 146 (2008) 396 146 153 188 197 266 521 554 617 1510
2020-12-09 03:00 2.62 430 1610 (2005) 146 (2008) 396 146 153 188 197 266 521 554 617 1510
2020-12-09 02:00 2.62 430 1610 (2005) 146 (2008) 396 146 153 188 197 266 521 554 617 1510
2020-12-09 01:00 2.63 434 1610 (2005) 146 (2008) 396 146 153 188 197 266 521 554 617 1510
2020-12-09 00:00 2.63 434 1610 (2005) 146 (2008) 396 146 153 188 197 266 521 554 617 1510
2020-12-08 23:00 2.63 434 2230 (2005) 135 (2008) 444 136 154 181 185 288 604 618 668 2070
2020-12-08 22:00 2.63 434 2230 (2005) 135 (2008) 444 136 154 181 185 288 604 618 668 2070
2020-12-08 21:00 2.63 434 2230 (2005) 135 (2008) 444 136 154 181 185 288 604 618 668 2070
2020-12-08 20:00 2.65 442 2230 (2005) 135 (2008) 444 136 154 181 185 288 604 618 668 2070
2020-12-08 19:00 2.65 442 2230 (2005) 135 (2008) 444 136 154 181 185 288 604 618 668 2070
2020-12-08 18:00 2.66 445 2230 (2005) 135 (2008) 444 136 154 181 185 288 604 618 668 2070
2020-12-08 17:00 2.66 445 2230 (2005) 135 (2008) 444 136 154 181 185 288 604 618 668 2070
2020-12-08 16:00 2.65 442 2230 (2005) 135 (2008) 444 136 154 181 185 288 604 618 668 2070
2020-12-08 15:00 2.65 442 2230 (2005) 135 (2008) 444 136 154 181 185 288 604 618 668 2070
2020-12-08 14:00 2.64 438 2230 (2005) 135 (2008) 444 136 154 181 185 288 604 618 668 2070
2020-12-08 13:00 2.65 442 2230 (2005) 135 (2008) 444 136 154 181 185 288 604 618 668 2070
2020-12-08 12:00 2.64 438 2230 (2005) 135 (2008) 444 136 154 181 185 288 604 618 668 2070
2020-12-08 11:00 2.65 442 2230 (2005) 135 (2008) 444 136 154 181 185 288 604 618 668 2070
2020-12-08 10:00 2.66 445 2230 (2005) 135 (2008) 444 136 154 181 185 288 604 618 668 2070
2020-12-08 09:00 2.67 449 2230 (2005) 135 (2008) 444 136 154 181 185 288 604 618 668 2070
2020-12-08 08:00 2.66 445 2230 (2005) 135 (2008) 444 136 154 181 185 288 604 618 668 2070
2020-12-08 07:00 2.66 445 2230 (2005) 135 (2008) 444 136 154 181 185 288 604 618 668 2070
2020-12-08 06:00 2.66 445 2230 (2005) 135 (2008) 444 136 154 181 185 288 604 618 668 2070
2020-12-08 05:00 2.67 449 2230 (2005) 135 (2008) 444 136 154 181 185 288 604 618 668 2070
2020-12-08 04:00 2.66 445 2230 (2005) 135 (2008) 444 136 154 181 185 288 604 618 668 2070
2020-12-08 03:00 2.68 453 2230 (2005) 135 (2008) 444 136 154 181 185 288 604 618 668 2070
2020-12-08 02:00 2.67 449 2230 (2005) 135 (2008) 444 136 154 181 185 288 604 618 668 2070
2020-12-08 01:00 2.67 449 2230 (2005) 135 (2008) 444 136 154 181 185 288 604 618 668 2070
2020-12-08 00:00 2.67 449 2230 (2005) 135 (2008) 444 136 154 181 185 288 604 618 668 2070
2020-12-07 23:00 2.66 445 1020 (2005) 133 (2008) 404 135 158 184 186 306 626 676 761 994
2020-12-07 22:00 2.67 449 1020 (2005) 133 (2008) 404 135 158 184 186 306 626 676 761 994
2020-12-07 21:00 2.67 449 1020 (2005) 133 (2008) 404 135 158 184 186 306 626 676 761 994
2020-12-07 20:00 2.68 453 1020 (2005) 133 (2008) 404 135 158 184 186 306 626 676 761 994
2020-12-07 19:00 2.69 457 1020 (2005) 133 (2008) 404 135 158 184 186 306 626 676 761 994
2020-12-07 18:00 2.69 457 1020 (2005) 133 (2008) 404 135 158 184 186 306 626 676 761 994
2020-12-07 17:00 2.71 465 1020 (2005) 133 (2008) 404 135 158 184 186 306 626 676 761 994
2020-12-07 16:00 2.70 461 1020 (2005) 133 (2008) 404 135 158 184 186 306 626 676 761 994
2020-12-07 15:00 2.70 461 1020 (2005) 133 (2008) 404 135 158 184 186 306 626 676 761 994
2020-12-07 14:00 2.70 461 1020 (2005) 133 (2008) 404 135 158 184 186 306 626 676 761 994
2020-12-07 13:00 2.70 461 1020 (2005) 133 (2008) 404 135 158 184 186 306 626 676 761 994
2020-12-07 12:00 2.70 461 1020 (2005) 133 (2008) 404 135 158 184 186 306 626 676 761 994
2020-12-07 11:00 2.71 465 1020 (2005) 133 (2008) 404 135 158 184 186 306 626 676 761 994
2020-12-07 10:00 2.70 461 1020 (2005) 133 (2008) 404 135 158 184 186 306 626 676 761 994
2020-12-07 09:00 2.71 465 1020 (2005) 133 (2008) 404 135 158 184 186 306 626 676 761 994
2020-12-07 08:00 2.72 468 1020 (2005) 133 (2008) 404 135 158 184 186 306 626 676 761 994
2020-12-07 07:00 2.70 461 1020 (2005) 133 (2008) 404 135 158 184 186 306 626 676 761 994
2020-12-07 06:00 2.72 468 1020 (2005) 133 (2008) 404 135 158 184 186 306 626 676 761 994
2020-12-07 05:00 2.70 461 1020 (2005) 133 (2008) 404 135 158 184 186 306 626 676 761 994
2020-12-07 04:00 2.72 468 1020 (2005) 133 (2008) 404 135 158 184 186 306 626 676 761 994
2020-12-07 03:00 2.72 468 1020 (2005) 133 (2008) 404 135 158 184 186 306 626 676 761 994
2020-12-07 02:00 2.71 465 1020 (2005) 133 (2008) 404 135 158 184 186 306 626 676 761 994
2020-12-07 01:00 2.73 472 1020 (2005) 133 (2008) 404 135 158 184 186 306 626 676 761 994
2020-12-07 00:00 2.73 472 1020 (2005) 133 (2008) 404 135 158 184 186 306 626 676 761 994
2020-12-06 23:00 2.72 468 840 (2012) 133 (2008) 410 135 159 188 192 263 694 758 822 839
2020-12-06 22:00 2.73 472 840 (2012) 133 (2008) 410 135 159 188 192 263 694 758 822 839
2020-12-06 21:00 2.74 476 840 (2012) 133 (2008) 410 135 159 188 192 263 694 758 822 839
2020-12-06 20:00 2.74 476 840 (2012) 133 (2008) 410 135 159 188 192 263 694 758 822 839
2020-12-06 19:00 2.74 476 840 (2012) 133 (2008) 410 135 159 188 192 263 694 758 822 839
2020-12-06 18:00 2.76 484 840 (2012) 133 (2008) 410 135 159 188 192 263 694 758 822 839
2020-12-06 17:00 2.75 480 840 (2012) 133 (2008) 410 135 159 188 192 263 694 758 822 839
2020-12-06 16:00 2.76 484 840 (2012) 133 (2008) 410 135 159 188 192 263 694 758 822 839
2020-12-06 15:00 2.75 480 840 (2012) 133 (2008) 410 135 159 188 192 263 694 758 822 839
2020-12-06 14:00 2.75 480 840 (2012) 133 (2008) 410 135 159 188 192 263 694 758 822 839
2020-12-06 13:00 2.75 480 840 (2012) 133 (2008) 410 135 159 188 192 263 694 758 822 839
2020-12-06 12:00 2.76 484 840 (2012) 133 (2008) 410 135 159 188 192 263 694 758 822 839
2020-12-06 11:00 2.76 484 840 (2012) 133 (2008) 410 135 159 188 192 263 694 758 822 839
2020-12-06 10:00 2.77 488 840 (2012) 133 (2008) 410 135 159 188 192 263 694 758 822 839
2020-12-06 09:00 2.76 484 840 (2012) 133 (2008) 410 135 159 188 192 263 694 758 822 839
2020-12-06 08:00 2.77 488 840 (2012) 133 (2008) 410 135 159 188 192 263 694 758 822 839
2020-12-06 07:00 2.77 488 840 (2012) 133 (2008) 410 135 159 188 192 263 694 758 822 839
2020-12-06 06:00 2.78 492 840 (2012) 133 (2008) 410 135 159 188 192 263 694 758 822 839
2020-12-06 05:00 2.78 492 840 (2012) 133 (2008) 410 135 159 188 192 263 694 758 822 839
2020-12-06 04:00 2.79 497 840 (2012) 133 (2008) 410 135 159 188 192 263 694 758 822 839
2020-12-06 03:00 2.79 497 840 (2012) 133 (2008) 410 135 159 188 192 263 694 758 822 839
2020-12-06 02:00 2.78 492 840 (2012) 133 (2008) 410 135 159 188 192 263 694 758 822 839
2020-12-06 01:00 2.78 492 840 (2012) 133 (2008) 410 135 159 188 192 263 694 758 822 839
2020-12-06 00:00 2.79 497 840 (2012) 133 (2008) 410 135 159 188 192 263 694 758 822 839
2020-12-05 23:00 2.79 497 959 (2016) 132 (2008) 420 135 162 191 193 277 686 789 915 955
2020-12-05 22:00 2.77 488 959 (2016) 132 (2008) 420 135 162 191 193 277 686 789 915 955
2020-12-05 21:00 2.79 497 959 (2016) 132 (2008) 420 135 162 191 193 277 686 789 915 955
2020-12-05 20:00 2.78 492 959 (2016) 132 (2008) 420 135 162 191 193 277 686 789 915 955
2020-12-05 19:00 2.81 505 959 (2016) 132 (2008) 420 135 162 191 193 277 686 789 915 955
2020-12-05 18:00 2.82 509 959 (2016) 132 (2008) 420 135 162 191 193 277 686 789 915 955
2020-12-05 17:00 2.81 505 959 (2016) 132 (2008) 420 135 162 191 193 277 686 789 915 955
2020-12-05 16:00 2.82 509 959 (2016) 132 (2008) 420 135 162 191 193 277 686 789 915 955
2020-12-05 15:00 2.82 509 959 (2016) 132 (2008) 420 135 162 191 193 277 686 789 915 955
2020-12-05 14:00 2.82 509 959 (2016) 132 (2008) 420 135 162 191 193 277 686 789 915 955
2020-12-05 13:00 2.83 513 959 (2016) 132 (2008) 420 135 162 191 193 277 686 789 915 955
2020-12-05 12:00 2.83 513 959 (2016) 132 (2008) 420 135 162 191 193 277 686 789 915 955
2020-12-05 11:00 2.83 513 959 (2016) 132 (2008) 420 135 162 191 193 277 686 789 915 955
2020-12-05 10:00 2.83 513 959 (2016) 132 (2008) 420 135 162 191 193 277 686 789 915 955
2020-12-05 09:00 2.84 517 959 (2016) 132 (2008) 420 135 162 191 193 277 686 789 915 955
2020-12-05 08:00 2.85 522 959 (2016) 132 (2008) 420 135 162 191 193 277 686 789 915 955
2020-12-05 07:00 2.85 522 959 (2016) 132 (2008) 420 135 162 191 193 277 686 789 915 955
2020-12-05 06:00 2.84 517 959 (2016) 132 (2008) 420 135 162 191 193 277 686 789 915 955
2020-12-05 05:00 2.84 517 959 (2016) 132 (2008) 420 135 162 191 193 277 686 789 915 955
2020-12-05 04:00 2.82 509 959 (2016) 132 (2008) 420 135 162 191 193 277 686 789 915 955
2020-12-05 03:00 2.82 509 959 (2016) 132 (2008) 420 135 162 191 193 277 686 789 915 955
2020-12-05 02:00 2.83 513 959 (2016) 132 (2008) 420 135 162 191 193 277 686 789 915 955
2020-12-05 01:00 2.84 517 959 (2016) 132 (2008) 420 135 162 191 193 277 686 789 915 955
2020-12-05 00:00 2.85 522 959 (2016) 132 (2008) 420 135 162 191 193 277 686 789 915 955
2020-12-04 23:00 2.86 526 1140 (2016) 133 (2008) 459 136 164 188 191 295 704 986 1120 1140
2020-12-04 22:00 2.85 522 1140 (2016) 133 (2008) 459 136 164 188 191 295 704 986 1120 1140
2020-12-04 21:00 2.86 526 1140 (2016) 133 (2008) 459 136 164 188 191 295 704 986 1120 1140
2020-12-04 20:00 2.85 522 1140 (2016) 133 (2008) 459 136 164 188 191 295 704 986 1120 1140
2020-12-04 19:00 2.85 522 1140 (2016) 133 (2008) 459 136 164 188 191 295 704 986 1120 1140
2020-12-04 18:00 2.87 530 1140 (2016) 133 (2008) 459 136 164 188 191 295 704 986 1120 1140
2020-12-04 17:00 2.86 526 1140 (2016) 133 (2008) 459 136 164 188 191 295 704 986 1120 1140
2020-12-04 16:00 2.87 530 1140 (2016) 133 (2008) 459 136 164 188 191 295 704 986 1120 1140
2020-12-04 15:00 2.87 530 1140 (2016) 133 (2008) 459 136 164 188 191 295 704 986 1120 1140
2020-12-04 14:00 2.86 526 1140 (2016) 133 (2008) 459 136 164 188 191 295 704 986 1120 1140
2020-12-04 13:00 2.88 534 1140 (2016) 133 (2008) 459 136 164 188 191 295 704 986 1120 1140
2020-12-04 12:00 2.88 534 1140 (2016) 133 (2008) 459 136 164 188 191 295 704 986 1120 1140
2020-12-04 11:00 2.88 534 1140 (2016) 133 (2008) 459 136 164 188 191 295 704 986 1120 1140
2020-12-04 10:00 2.88 534 1140 (2016) 133 (2008) 459 136 164 188 191 295 704 986 1120 1140
2020-12-04 09:00 2.89 539 1140 (2016) 133 (2008) 459 136 164 188 191 295 704 986 1120 1140
2020-12-04 08:00 2.89 539 1140 (2016) 133 (2008) 459 136 164 188 191 295 704 986 1120 1140
2020-12-04 07:00 2.89 539 1140 (2016) 133 (2008) 459 136 164 188 191 295 704 986 1120 1140
2020-12-04 06:00 2.89 539 1140 (2016) 133 (2008) 459 136 164 188 191 295 704 986 1120 1140
2020-12-04 05:00 2.89 539 1140 (2016) 133 (2008) 459 136 164 188 191 295 704 986 1120 1140
2020-12-04 04:00 2.90 543 1140 (2016) 133 (2008) 459 136 164 188 191 295 704 986 1120 1140
2020-12-04 03:00 2.90 543 1140 (2016) 133 (2008) 459 136 164 188 191 295 704 986 1120 1140
2020-12-04 02:00 2.90 543 1140 (2016) 133 (2008) 459 136 164 188 191 295 704 986 1120 1140
2020-12-04 01:00 2.90 543 1140 (2016) 133 (2008) 459 136 164 188 191 295 704 986 1120 1140
2020-12-04 00:00 2.91 547 1140 (2016) 133 (2008) 459 136 164 188 191 295 704 986 1120 1140
2020-12-03 23:00 2.93 556 1520 (2007) 133 (2008) 550 136 165 179 189 325 874 1290 1500 1520
2020-12-03 22:00 2.93 556 1520 (2007) 133 (2008) 550 136 165 179 189 325 874 1290 1500 1520
2020-12-03 21:00 2.93 556 1520 (2007) 133 (2008) 550 136 165 179 189 325 874 1290 1500 1520
2020-12-03 20:00 2.93 556 1520 (2007) 133 (2008) 550 136 165 179 189 325 874 1290 1500 1520
2020-12-03 19:00 2.92 552 1520 (2007) 133 (2008) 550 136 165 179 189 325 874 1290 1500 1520
2020-12-03 18:00 2.93 556 1520 (2007) 133 (2008) 550 136 165 179 189 325 874 1290 1500 1520
2020-12-03 17:00 2.93 556 1520 (2007) 133 (2008) 550 136 165 179 189 325 874 1290 1500 1520
2020-12-03 16:00 2.94 561 1520 (2007) 133 (2008) 550 136 165 179 189 325 874 1290 1500 1520
2020-12-03 15:00 2.97 574 1520 (2007) 133 (2008) 550 136 165 179 189 325 874 1290 1500 1520
2020-12-03 14:00 2.95 565 1520 (2007) 133 (2008) 550 136 165 179 189 325 874 1290 1500 1520
2020-12-03 13:00 2.95 565 1520 (2007) 133 (2008) 550 136 165 179 189 325 874 1290 1500 1520
2020-12-03 12:00 2.95 565 1520 (2007) 133 (2008) 550 136 165 179 189 325 874 1290 1500 1520
2020-12-03 11:00 2.95 565 1520 (2007) 133 (2008) 550 136 165 179 189 325 874 1290 1500 1520
2020-12-03 10:00 2.96 570 1520 (2007) 133 (2008) 550 136 165 179 189 325 874 1290 1500 1520
2020-12-03 09:00 2.96 570 1520 (2007) 133 (2008) 550 136 165 179 189 325 874 1290 1500 1520
2020-12-03 08:00 2.98 579 1520 (2007) 133 (2008) 550 136 165 179 189 325 874 1290 1500 1520
2020-12-03 07:00 2.98 579 1520 (2007) 133 (2008) 550 136 165 179 189 325 874 1290 1500 1520
2020-12-03 06:00 2.96 570 1520 (2007) 133 (2008) 550 136 165 179 189 325 874 1290 1500 1520
2020-12-03 05:00 2.97 574 1520 (2007) 133 (2008) 550 136 165 179 189 325 874 1290 1500 1520
2020-12-03 04:00 2.99 583 1520 (2007) 133 (2008) 550 136 165 179 189 325 874 1290 1500 1520
2020-12-03 03:00 2.99 583 1520 (2007) 133 (2008) 550 136 165 179 189 325 874 1290 1500 1520
2020-12-03 02:00 2.99 583 1520 (2007) 133 (2008) 550 136 165 179 189 325 874 1290 1500 1520
2020-12-03 01:00 3.00 588 1520 (2007) 133 (2008) 550 136 165 179 189 325 874 1290 1500 1520
2020-12-03 00:00 2.97 574 1520 (2007) 133 (2008) 550 136 165 179 189 325 874 1290 1500 1520
2020-12-02 23:00 2.99 583 3490 (2007) 134 (2008) 773 136 170 186 193 359 874 1680 2420 3440
2020-12-02 22:00 2.97 574 3490 (2007) 134 (2008) 773 136 170 186 193 359 874 1680 2420 3440
2020-12-02 21:00 3.00 588 3490 (2007) 134 (2008) 773 136 170 186 193 359 874 1680 2420 3440
2020-12-02 20:00 3.00 588 3490 (2007) 134 (2008) 773 136 170 186 193 359 874 1680 2420 3440
2020-12-02 19:00 2.99 583 3490 (2007) 134 (2008) 773 136 170 186 193 359 874 1680 2420 3440
2020-12-02 18:00 3.00 588 3490 (2007) 134 (2008) 773 136 170 186 193 359 874 1680 2420 3440
2020-12-02 17:00 3.03 602 3490 (2007) 134 (2008) 773 136 170 186 193 359 874 1680 2420 3440
2020-12-02 16:00 3.03 602 3490 (2007) 134 (2008) 773 136 170 186 193 359 874 1680 2420 3440
2020-12-02 15:00 3.03 602 3490 (2007) 134 (2008) 773 136 170 186 193 359 874 1680 2420 3440
2020-12-02 14:00 3.04 607 3490 (2007) 134 (2008) 773 136 170 186 193 359 874 1680 2420 3440
2020-12-02 13:00 3.03 602 3490 (2007) 134 (2008) 773 136 170 186 193 359 874 1680 2420 3440
2020-12-02 12:00 3.05 612 3490 (2007) 134 (2008) 773 136 170 186 193 359 874 1680 2420 3440
2020-12-02 11:00 3.02 597 3490 (2007) 134 (2008) 773 136 170 186 193 359 874 1680 2420 3440
2020-12-02 10:00 3.02 597 3490 (2007) 134 (2008) 773 136 170 186 193 359 874 1680 2420 3440
2020-12-02 09:00 3.03 602 3490 (2007) 134 (2008) 773 136 170 186 193 359 874 1680 2420 3440
2020-12-02 08:00 3.04 607 3490 (2007) 134 (2008) 773 136 170 186 193 359 874 1680 2420 3440
2020-12-02 07:00 3.06 616 3490 (2007) 134 (2008) 773 136 170 186 193 359 874 1680 2420 3440
2020-12-02 06:00 3.06 616 3490 (2007) 134 (2008) 773 136 170 186 193 359 874 1680 2420 3440
2020-12-02 05:00 3.04 607 3490 (2007) 134 (2008) 773 136 170 186 193 359 874 1680 2420 3440
2020-12-02 04:00 3.09 631 3490 (2007) 134 (2008) 773 136 170 186 193 359 874 1680 2420 3440
2020-12-02 03:00 3.05 612 3490 (2007) 134 (2008) 773 136 170 186 193 359 874 1680 2420 3440
2020-12-02 02:00 3.07 621 3490 (2007) 134 (2008) 773 136 170 186 193 359 874 1680 2420 3440
2020-12-02 01:00 3.10 636 3490 (2007) 134 (2008) 773 136 170 186 193 359 874 1680 2420 3440
2020-12-02 00:00 3.09 631 3490 (2007) 134 (2008) 773 136 170 186 193 359 874 1680 2420 3440
2020-12-01 23:00 3.08 626 4800 (2007) 133 (2008) 992 137 174 189 196 436 712 1740 4230 4780
2020-12-01 22:00 3.09 631 4800 (2007) 133 (2008) 992 137 174 189 196 436 712 1740 4230 4780
2020-12-01 21:00 3.10 636 4800 (2007) 133 (2008) 992 137 174 189 196 436 712 1740 4230 4780
2020-12-01 20:00 3.10 636 4800 (2007) 133 (2008) 992 137 174 189 196 436 712 1740 4230 4780
2020-12-01 19:00 3.12 646 4800 (2007) 133 (2008) 992 137 174 189 196 436 712 1740 4230 4780
2020-12-01 18:00 3.10 636 4800 (2007) 133 (2008) 992 137 174 189 196 436 712 1740 4230 4780
2020-12-01 17:00 3.11 641 4800 (2007) 133 (2008) 992 137 174 189 196 436 712 1740 4230 4780
2020-12-01 16:00 3.15 661 4800 (2007) 133 (2008) 992 137 174 189 196 436 712 1740 4230 4780
2020-12-01 15:00 3.13 651 4800 (2007) 133 (2008) 992 137 174 189 196 436 712 1740 4230 4780
2020-12-01 14:00 3.17 671 4800 (2007) 133 (2008) 992 137 174 189 196 436 712 1740 4230 4780
2020-12-01 13:00 3.15 661 4800 (2007) 133 (2008) 992 137 174 189 196 436 712 1740 4230 4780
2020-12-01 12:00 3.15 661 4800 (2007) 133 (2008) 992 137 174 189 196 436 712 1740 4230 4780
2020-12-01 11:00 3.16 666 4800 (2007) 133 (2008) 992 137 174 189 196 436 712 1740 4230 4780
2020-12-01 10:00 3.14 656 4800 (2007) 133 (2008) 992 137 174 189 196 436 712 1740 4230 4780
2020-12-01 09:00 3.15 661 4800 (2007) 133 (2008) 992 137 174 189 196 436 712 1740 4230 4780
2020-12-01 08:00 3.17 671 4800 (2007) 133 (2008) 992 137 174 189 196 436 712 1740 4230 4780
2020-12-01 07:00 3.17 671 4800 (2007) 133 (2008) 992 137 174 189 196 436 712 1740 4230 4780
2020-12-01 06:00 3.19 681 4800 (2007) 133 (2008) 992 137 174 189 196 436 712 1740 4230 4780
2020-12-01 05:00 3.17 671 4800 (2007) 133 (2008) 992 137 174 189 196 436 712 1740 4230 4780
2020-12-01 04:00 3.18 676 4800 (2007) 133 (2008) 992 137 174 189 196 436 712 1740 4230 4780
2020-12-01 03:00 3.17 671 4800 (2007) 133 (2008) 992 137 174 189 196 436 712 1740 4230 4780
2020-12-01 02:00 3.17 671 4800 (2007) 133 (2008) 992 137 174 189 196 436 712 1740 4230 4780
2020-12-01 01:00 3.17 671 4800 (2007) 133 (2008) 992 137 174 189 196 436 712 1740 4230 4780
2020-12-01 00:00 3.21 691 4800 (2007) 133 (2008) 992 137 174 189 196 436 712 1740 4230 4780
2020-11-30 23:00 3.19 681 3130 (2016) 134 (2008) 602 138 176 190 196 364 647 710 1800 3010
2020-11-30 22:00 3.21 691 3130 (2016) 134 (2008) 602 138 176 190 196 364 647 710 1800 3010
2020-11-30 21:00 3.22 697 3130 (2016) 134 (2008) 602 138 176 190 196 364 647 710 1800 3010
2020-11-30 20:00 3.24 707 3130 (2016) 134 (2008) 602 138 176 190 196 364 647 710 1800 3010
2020-11-30 19:00 3.23 702 3130 (2016) 134 (2008) 602 138 176 190 196 364 647 710 1800 3010
2020-11-30 18:00 3.24 707 3130 (2016) 134 (2008) 602 138 176 190 196 364 647 710 1800 3010
2020-11-30 17:00 3.22 697 3130 (2016) 134 (2008) 602 138 176 190 196 364 647 710 1800 3010
2020-11-30 16:00 3.26 718 3130 (2016) 134 (2008) 602 138 176 190 196 364 647 710 1800 3010
2020-11-30 15:00 3.25 713 3130 (2016) 134 (2008) 602 138 176 190 196 364 647 710 1800 3010
2020-11-30 14:00 3.24 707 3130 (2016) 134 (2008) 602 138 176 190 196 364 647 710 1800 3010
2020-11-30 13:00 3.26 718 3130 (2016) 134 (2008) 602 138 176 190 196 364 647 710 1800 3010
2020-11-30 12:00 3.26 718 3130 (2016) 134 (2008) 602 138 176 190 196 364 647 710 1800 3010
2020-11-30 11:00 3.27 723 3130 (2016) 134 (2008) 602 138 176 190 196 364 647 710 1800 3010
2020-11-30 10:00 3.28 729 3130 (2016) 134 (2008) 602 138 176 190 196 364 647 710 1800 3010
2020-11-30 09:00 3.28 729 3130 (2016) 134 (2008) 602 138 176 190 196 364 647 710 1800 3010
2020-11-30 08:00 3.31 745 3130 (2016) 134 (2008) 602 138 176 190 196 364 647 710 1800 3010
2020-11-30 07:00 3.29 734 3130 (2016) 134 (2008) 602 138 176 190 196 364 647 710 1800 3010
2020-11-30 06:00 3.32 751 3130 (2016) 134 (2008) 602 138 176 190 196 364 647 710 1800 3010
2020-11-30 05:00 3.31 745 3130 (2016) 134 (2008) 602 138 176 190 196 364 647 710 1800 3010
2020-11-30 04:00 3.29 734 3130 (2016) 134 (2008) 602 138 176 190 196 364 647 710 1800 3010
2020-11-30 03:00 3.33 756 3130 (2016) 134 (2008) 602 138 176 190 196 364 647 710 1800 3010
2020-11-30 02:00 3.33 756 3130 (2016) 134 (2008) 602 138 176 190 196 364 647 710 1800 3010
2020-11-30 01:00 3.33 756 3130 (2016) 134 (2008) 602 138 176 190 196 364 647 710 1800 3010
2020-11-30 00:00 3.32 751 3130 (2016) 134 (2008) 602 138 176 190 196 364 647 710 1800 3010
2020-11-29 23:00 3.34 762 4930 (2016) 134 (2008) 608 138 176 190 194 329 659 709 852 4520
2020-11-29 22:00 3.37 779 4930 (2016) 134 (2008) 608 138 176 190 194 329 659 709 852 4520
2020-11-29 21:00 3.35 767 4930 (2016) 134 (2008) 608 138 176 190 194 329 659 709 852 4520
2020-11-29 20:00 3.37 779 4930 (2016) 134 (2008) 608 138 176 190 194 329 659 709 852 4520
2020-11-29 19:00 3.38 784 4930 (2016) 134 (2008) 608 138 176 190 194 329 659 709 852 4520
2020-11-29 18:00 3.37 779 4930 (2016) 134 (2008) 608 138 176 190 194 329 659 709 852 4520
2020-11-29 17:00 3.38 784 4930 (2016) 134 (2008) 608 138 176 190 194 329 659 709 852 4520
2020-11-29 16:00 3.42 808 4930 (2016) 134 (2008) 608 138 176 190 194 329 659 709 852 4520
2020-11-29 15:00 3.41 802 4930 (2016) 134 (2008) 608 138 176 190 194 329 659 709 852 4520
2020-11-29 14:00 3.42 808 4930 (2016) 134 (2008) 608 138 176 190 194 329 659 709 852 4520
2020-11-29 13:00 3.42 808 4930 (2016) 134 (2008) 608 138 176 190 194 329 659 709 852 4520
2020-11-29 12:00 3.40 796 4930 (2016) 134 (2008) 608 138 176 190 194 329 659 709 852 4520
2020-11-29 11:00 3.45 825 4930 (2016) 134 (2008) 608 138 176 190 194 329 659 709 852 4520
2020-11-29 10:00 3.44 819 4930 (2016) 134 (2008) 608 138 176 190 194 329 659 709 852 4520
2020-11-29 09:00 3.46 831 4930 (2016) 134 (2008) 608 138 176 190 194 329 659 709 852 4520
2020-11-29 08:00 3.49 849 4930 (2016) 134 (2008) 608 138 176 190 194 329 659 709 852 4520
2020-11-29 07:00 3.48 843 4930 (2016) 134 (2008) 608 138 176 190 194 329 659 709 852 4520
2020-11-29 06:00 3.50 855 4930 (2016) 134 (2008) 608 138 176 190 194 329 659 709 852 4520
2020-11-29 05:00 3.48 843 4930 (2016) 134 (2008) 608 138 176 190 194 329 659 709 852 4520
2020-11-29 04:00 3.52 868 4930 (2016) 134 (2008) 608 138 176 190 194 329 659 709 852 4520
2020-11-29 03:00 3.52 868 4930 (2016) 134 (2008) 608 138 176 190 194 329 659 709 852 4520
2020-11-29 02:00 3.51 861 4930 (2016) 134 (2008) 608 138 176 190 194 329 659 709 852 4520
2020-11-29 01:00 3.51 861 4930 (2016) 134 (2008) 608 138 176 190 194 329 659 709 852 4520
2020-11-29 00:00 3.53 874 4930 (2016) 134 (2008) 608 138 176 190 194 329 659 709 852 4520
2020-11-28 23:00 3.54 880 4450 (2016) 135 (2008) 619 139 173 191 196 284 742 780 1130 4120
2020-11-28 22:00 3.54 880 4450 (2016) 135 (2008) 619 139 173 191 196 284 742 780 1130 4120
2020-11-28 21:00 3.55 886 4450 (2016) 135 (2008) 619 139 173 191 196 284 742 780 1130 4120
2020-11-28 20:00 3.54 880 4450 (2016) 135 (2008) 619 139 173 191 196 284 742 780 1130 4120
2020-11-28 19:00 3.56 892 4450 (2016) 135 (2008) 619 139 173 191 196 284 742 780 1130 4120
2020-11-28 18:00 3.57 899 4450 (2016) 135 (2008) 619 139 173 191 196 284 742 780 1130 4120
2020-11-28 17:00 3.59 912 4450 (2016) 135 (2008) 619 139 173 191 196 284 742 780 1130 4120
2020-11-28 16:00 3.61 924 4450 (2016) 135 (2008) 619 139 173 191 196 284 742 780 1130 4120
2020-11-28 15:00 3.63 937 4450 (2016) 135 (2008) 619 139 173 191 196 284 742 780 1130 4120
2020-11-28 14:00 3.63 937 4450 (2016) 135 (2008) 619 139 173 191 196 284 742 780 1130 4120
2020-11-28 13:00 3.63 937 4450 (2016) 135 (2008) 619 139 173 191 196 284 742 780 1130 4120
2020-11-28 12:00 3.64 944 4450 (2016) 135 (2008) 619 139 173 191 196 284 742 780 1130 4120
2020-11-28 11:00 3.66 957 4450 (2016) 135 (2008) 619 139 173 191 196 284 742 780 1130 4120
2020-11-28 10:00 3.66 957 4450 (2016) 135 (2008) 619 139 173 191 196 284 742 780 1130 4120
2020-11-28 09:00 3.67 964 4450 (2016) 135 (2008) 619 139 173 191 196 284 742 780 1130 4120
2020-11-28 08:00 3.69 977 4450 (2016) 135 (2008) 619 139 173 191 196 284 742 780 1130 4120
2020-11-28 07:00 3.68 970 4450 (2016) 135 (2008) 619 139 173 191 196 284 742 780 1130 4120
2020-11-28 06:00 3.71 991 4450 (2016) 135 (2008) 619 139 173 191 196 284 742 780 1130 4120
2020-11-28 05:00 3.72 997 4450 (2016) 135 (2008) 619 139 173 191 196 284 742 780 1130 4120
2020-11-28 04:00 3.72 997 4450 (2016) 135 (2008) 619 139 173 191 196 284 742 780 1130 4120
2020-11-28 03:00 3.73 1000 4450 (2016) 135 (2008) 619 139 173 191 196 284 742 780 1130 4120
2020-11-28 02:00 3.75 1020 4450 (2016) 135 (2008) 619 139 173 191 196 284 742 780 1130 4120
2020-11-28 01:00 3.74 1010 4450 (2016) 135 (2008) 619 139 173 191 196 284 742 780 1130 4120
2020-11-28 00:00 3.77 1030 4450 (2016) 135 (2008) 619 139 173 191 196 284 742 780 1130 4120
2020-11-27 23:00 3.79 1050 1150 (2021) 136 (2008) 454 139 165 191 199 294 748 808 997 1140
2020-11-27 22:00 3.80 1050 1150 (2021) 136 (2008) 454 139 165 191 199 294 748 808 997 1140
2020-11-27 21:00 3.81 1060 1150 (2021) 136 (2008) 454 139 165 191 199 294 748 808 997 1140
2020-11-27 20:00 3.83 1070 1150 (2021) 136 (2008) 454 139 165 191 199 294 748 808 997 1140
2020-11-27 19:00 3.82 1070 1150 (2021) 136 (2008) 454 139 165 191 199 294 748 808 997 1140
2020-11-27 18:00 3.85 1090 1150 (2021) 136 (2008) 454 139 165 191 199 294 748 808 997 1140
2020-11-27 17:00 3.84 1080 1150 (2021) 136 (2008) 454 139 165 191 199 294 748 808 997 1140
2020-11-27 16:00 3.85 1090 1150 (2021) 136 (2008) 454 139 165 191 199 294 748 808 997 1140
2020-11-27 15:00 3.89 1120 1150 (2021) 136 (2008) 454 139 165 191 199 294 748 808 997 1140
2020-11-27 14:00 3.88 1110 1150 (2021) 136 (2008) 454 139 165 191 199 294 748 808 997 1140
2020-11-27 13:00 3.88 1110 1150 (2021) 136 (2008) 454 139 165 191 199 294 748 808 997 1140
2020-11-27 12:00 3.89 1120 1150 (2021) 136 (2008) 454 139 165 191 199 294 748 808 997 1140
2020-11-27 11:00 3.92 1140 1150 (2021) 136 (2008) 454 139 165 191 199 294 748 808 997 1140
2020-11-27 10:00 3.93 1150 1150 (2021) 136 (2008) 454 139 165 191 199 294 748 808 997 1140
2020-11-27 09:00 3.92 1140 1150 (2021) 136 (2008) 454 139 165 191 199 294 748 808 997 1140
2020-11-27 08:00 3.95 1160 1150 (2021) 136 (2008) 454 139 165 191 199 294 748 808 997 1140
2020-11-27 07:00 3.96 1170 1150 (2021) 136 (2008) 454 139 165 191 199 294 748 808 997 1140
2020-11-27 06:00 3.97 1180 1150 (2021) 136 (2008) 454 139 165 191 199 294 748 808 997 1140
2020-11-27 05:00 3.97 1180 1150 (2021) 136 (2008) 454 139 165 191 199 294 748 808 997 1140
2020-11-27 04:00 4.01 1210 1150 (2021) 136 (2008) 454 139 165 191 199 294 748 808 997 1140
2020-11-27 03:00 4.03 1230 1150 (2021) 136 (2008) 454 139 165 191 199 294 748 808 997 1140
2020-11-27 02:00 4.03 1230 1150 (2021) 136 (2008) 454 139 165 191 199 294 748 808 997 1140
2020-11-27 01:00 4.06 1250 1150 (2021) 136 (2008) 454 139 165 191 199 294 748 808 997 1140
2020-11-27 00:00 4.08 1270 1150 (2021) 136 (2008) 454 139 165 191 199 294 748 808 997 1140
2020-11-26 23:00 4.07 1260 1320 (2021) 139 (2008) 485 141 160 191 200 306 652 829 1170 1310
2020-11-26 22:00 4.05 1240 1320 (2021) 139 (2008) 485 141 160 191 200 306 652 829 1170 1310
2020-11-26 21:00 4.08 1270 1320 (2021) 139 (2008) 485 141 160 191 200 306 652 829 1170 1310
2020-11-26 20:00 4.10 1290 1320 (2021) 139 (2008) 485 141 160 191 200 306 652 829 1170 1310
2020-11-26 19:00 4.12 1290 1320 (2021) 139 (2008) 485 141 160 191 200 306 652 829 1170 1310
2020-11-26 18:00 4.14 1310 1320 (2021) 139 (2008) 485 141 160 191 200 306 652 829 1170 1310
2020-11-26 17:00 4.15 1320 1320 (2021) 139 (2008) 485 141 160 191 200 306 652 829 1170 1310
2020-11-26 16:00 4.14 1310 1320 (2021) 139 (2008) 485 141 160 191 200 306 652 829 1170